[[{"header":{"parameterUnit":"m.s-1","parameterCategory":1,"la1":30.6,"la2":29.2853,"lo1":-89.7004,"lo2":-87.6739,"dy":0.0162,"dx":0.0183,"nx":112,"ny":82,"refTime":"2024-09-01T18:00:00:Z","depth":0,"parameterNumber":2,"parameterNumberName":"U-component_of_WINDS"},"data":[0.0,0.0,0.0,0.0,0.0,0.0,0.0,0.0,0.0,0.0,0.0,0.0,0.0,0.0,0.0,0.0,0.0,0.0,0.0,0.0,0.0,0.0,0.0,0.0,0.0,0.0,0.0,0.0,0.0,0.0,0.0,0.0,0.0,0.0,0.0,0.0,0.0,0.0,0.0,0.0,0.0,0.0,0.0,0.0,0.0,0.0,0.0,0.0,0.0,0.0,0.0,0.0,0.0,0.0,0.0,0.0,0.0,0.0,0.0,0.0,0.0,0.0,0.0,0.0,0.0,0.0,0.0,0.0,0.0,0.0,0.0,0.0,0.0,0.0,0.0,0.0,0.0,0.0,0.0,0.0,0.0,0.0,0.0,0.0,0.0,0.0,0.0,0.0,0.0,0.0,0.0,3.7474,3.8191,3.8612,3.8702,3.8652,3.7507,3.4981,0.0,0.0,0.0,0.0,0.0,0.0,0.0,0.0,0.0,0.0,0.0,0.0,0.0,0.0,0.0,0.0,0.0,0.0,0.0,0.0,0.0,0.0,0.0,0.0,0.0,0.0,0.0,0.0,0.0,0.0,0.0,0.0,0.0,0.0,0.0,0.0,0.0,0.0,0.0,0.0,0.0,0.0,0.0,0.0,0.0,0.0,0.0,0.0,0.0,0.0,0.0,0.0,0.0,0.0,0.0,0.0,0.0,0.0,0.0,0.0,0.0,0.0,0.0,0.0,0.0,0.0,0.0,0.0,0.0,0.0,0.0,0.0,0.0,0.0,0.0,0.0,0.0,0.0,0.0,0.0,0.0,0.0,0.0,0.0,0.0,0.0,0.0,0.0,0.0,0.0,0.0,0.0,0.0,0.0,0.0,0.0,0.0,0.0,0.0,0.0,0.0,0.0,0.0,0.0,3.6711,3.7738,3.7951,3.7774,3.7121,3.7644,3.6878,3.4137,0.0,0.0,0.0,0.0,0.0,0.0,0.0,0.0,0.0,0.0,0.0,0.0,0.0,0.0,0.0,0.0,0.0,0.0,0.0,0.0,0.0,0.0,0.0,0.0,0.0,0.0,0.0,0.0,0.0,0.0,0.0,0.0,0.0,0.0,0.0,0.0,0.0,0.0,0.0,0.0,0.0,0.0,0.0,0.0,0.0,0.0,0.0,0.0,0.0,0.0,0.0,0.0,0.0,0.0,0.0,0.0,0.0,0.0,0.0,0.0,0.0,0.0,0.0,0.0,0.0,0.0,0.0,0.0,0.0,0.0,0.0,0.0,0.0,0.0,0.0,0.0,0.0,0.0,0.0,0.0,0.0,0.0,0.0,0.0,0.0,0.0,0.0,0.0,0.0,0.0,0.0,0.0,0.0,0.0,0.0,0.0,0.0,0.0,0.0,0.0,0.0,0.0,0.0,3.6468,3.7132,3.7626,3.7691,3.7359,3.6546,3.6823,3.5911,3.3213,3.3093,0.0,0.0,0.0,0.0,0.0,0.0,0.0,0.0,0.0,0.0,0.0,0.0,0.0,0.0,0.0,0.0,0.0,0.0,0.0,0.0,0.0,0.0,0.0,0.0,0.0,0.0,0.0,0.0,0.0,0.0,0.0,0.0,0.0,0.0,0.0,0.0,0.0,0.0,0.0,0.0,0.0,0.0,0.0,0.0,0.0,0.0,0.0,0.0,0.0,0.0,0.0,0.0,0.0,0.0,0.0,0.0,0.0,0.0,0.0,0.0,0.0,0.0,0.0,0.0,0.0,0.0,0.0,0.0,0.0,0.0,0.0,0.0,0.0,0.0,0.0,0.0,0.0,0.0,0.0,0.0,0.0,0.0,0.0,0.0,0.0,0.0,0.0,0.0,0.0,0.0,0.0,0.0,0.0,0.0,0.0,0.0,0.0,0.0,0.0,0.0,0.0,0.0,3.7533,3.7624,3.7239,3.7202,3.6798,3.5789,3.5716,3.4687,3.231,3.2216,0.0,0.0,0.0,0.0,0.0,0.0,0.0,0.0,0.0,0.0,0.0,0.0,0.0,0.0,0.0,0.0,0.0,0.0,0.0,0.0,0.0,0.0,0.0,0.0,0.0,0.0,0.0,0.0,0.0,0.0,0.0,0.0,0.0,0.0,0.0,0.0,0.0,0.0,0.0,0.0,0.0,0.0,0.0,0.0,0.0,0.0,0.0,0.0,0.0,0.0,0.0,0.0,0.0,0.0,0.0,0.0,0.0,0.0,0.0,0.0,0.0,0.0,0.0,0.0,0.0,0.0,0.0,0.0,0.0,0.0,0.0,0.0,0.0,0.0,0.0,0.0,0.0,0.0,0.0,0.0,0.0,0.0,0.0,0.0,0.0,0.0,0.0,0.0,0.0,0.0,0.0,0.0,0.0,0.0,0.0,0.0,0.0,0.0,0.0,0.0,0.0,0.0,3.7698,3.8046,3.6541,3.6376,3.5734,3.41,3.3972,3.323,3.1485,3.1323,0.0,0.0,0.0,0.0,0.0,0.0,0.0,0.0,0.0,0.0,0.0,0.0,0.0,0.0,0.0,0.0,0.0,0.0,0.0,0.0,0.0,0.0,0.0,0.0,0.0,0.0,0.0,0.0,0.0,0.0,0.0,0.0,0.0,0.0,0.0,0.0,0.0,0.0,0.0,0.0,0.0,0.0,0.0,0.0,0.0,0.0,0.0,0.0,0.0,0.0,0.0,0.0,0.0,0.0,0.0,0.0,0.0,0.0,0.0,0.0,0.0,0.0,0.0,0.0,0.0,0.0,0.0,0.0,0.0,0.0,0.0,0.0,0.0,0.0,0.0,0.0,0.0,0.0,0.0,0.0,0.0,0.0,0.0,0.0,0.0,0.0,0.0,0.0,0.0,0.0,0.0,0.0,0.0,0.0,0.0,0.0,0.0,0.0,0.0,0.0,0.0,0.0,3.7101,3.7533,0.0,3.6303,3.5624,3.3935,3.3807,3.3057,3.1342,0.0,0.0,0.0,0.0,0.0,0.0,0.0,0.0,0.0,0.0,0.0,0.0,0.0,0.0,0.0,0.0,0.0,0.0,0.0,0.0,0.0,0.0,0.0,0.0,0.0,0.0,0.0,0.0,0.0,0.0,0.0,0.0,0.0,0.0,0.0,0.0,0.0,0.0,0.0,0.0,0.0,0.0,0.0,0.0,0.0,0.0,0.0,0.0,0.0,0.0,0.0,0.0,0.0,0.0,0.0,0.0,0.0,0.0,0.0,0.0,0.0,0.0,0.0,0.0,0.0,0.0,0.0,0.0,0.0,0.0,0.0,0.0,0.0,0.0,0.0,0.0,0.0,0.0,0.0,0.0,0.0,0.0,0.0,0.0,0.0,0.0,0.0,0.0,0.0,0.0,0.0,0.0,0.0,0.0,0.0,0.0,0.0,0.0,0.0,0.0,0.0,0.0,3.534,3.6936,3.7459,0.0,3.6303,3.5624,3.3935,3.3568,3.2782,3.1279,0.0,0.0,0.0,0.0,0.0,0.0,0.0,0.0,0.0,0.0,0.0,0.0,0.0,0.0,0.0,0.0,0.0,0.0,0.0,0.0,0.0,0.0,0.0,0.0,0.0,0.0,0.0,0.0,0.0,0.0,0.0,0.0,0.0,0.0,0.0,0.0,0.0,0.0,0.0,0.0,0.0,0.0,0.0,0.0,0.0,0.0,0.0,0.0,0.0,0.0,0.0,0.0,0.0,0.0,0.0,0.0,0.0,0.0,0.0,0.0,0.0,0.0,0.0,0.0,0.0,0.0,0.0,0.0,0.0,0.0,0.0,0.0,0.0,0.0,0.0,0.0,0.0,0.0,0.0,0.0,0.0,0.0,0.0,0.0,0.0,0.0,0.0,0.0,0.0,0.0,0.0,0.0,0.0,0.0,0.0,0.0,0.0,0.0,0.0,0.0,0.0,0.0,3.5489,3.7442,3.8083,3.6468,3.6303,3.5624,3.3935,3.3073,3.2214,0.0,0.0,0.0,0.0,0.0,0.0,0.0,0.0,0.0,0.0,0.0,0.0,0.0,0.0,0.0,0.0,0.0,0.0,0.0,0.0,0.0,0.0,0.0,0.0,0.0,0.0,0.0,0.0,0.0,0.0,0.0,0.0,0.0,0.0,0.0,0.0,0.0,0.0,0.0,0.0,0.0,0.0,0.0,0.0,0.0,0.0,0.0,0.0,0.0,0.0,0.0,0.0,0.0,0.0,0.0,0.0,0.0,0.0,0.0,0.0,0.0,0.0,0.0,0.0,0.0,0.0,0.0,0.0,0.0,0.0,0.0,0.0,0.0,0.0,0.0,0.0,0.0,0.0,0.0,0.0,0.0,0.0,0.0,0.0,0.0,0.0,0.0,0.0,0.0,0.0,0.0,0.0,0.0,0.0,0.0,0.0,0.0,0.0,0.0,0.0,0.0,0.0,0.0,3.495,3.7235,3.8083,3.6468,3.6303,3.5624,3.3935,3.3587,3.28,3.1297,0.0,0.0,0.0,0.0,0.0,0.0,0.0,0.0,0.0,0.0,0.0,0.0,0.0,0.0,0.0,0.0,0.0,0.0,0.0,0.0,0.0,0.0,0.0,0.0,0.0,0.0,0.0,0.0,0.0,0.0,0.0,0.0,0.0,0.0,0.0,0.0,0.0,0.0,0.0,0.0,0.0,0.0,0.0,0.0,0.0,0.0,0.0,0.0,0.0,0.0,0.0,0.0,0.0,0.0,0.0,0.0,0.0,0.0,0.0,0.0,0.0,0.0,0.0,0.0,0.0,0.0,0.0,0.0,0.0,0.0,0.0,0.0,0.0,0.0,0.0,0.0,0.0,0.0,0.0,0.0,0.0,0.0,0.0,0.0,0.0,0.0,0.0,0.0,0.0,0.0,0.0,0.0,0.0,0.0,0.0,0.0,0.0,0.0,0.0,0.0,0.0,0.0,3.4817,3.717,3.8083,3.6468,3.6303,3.5624,3.3935,3.3807,3.3057,3.1342,0.0,0.0,0.0,0.0,0.0,0.0,0.0,0.0,0.0,0.0,0.0,0.0,0.0,0.0,0.0,0.0,0.0,0.0,0.0,0.0,0.0,0.0,0.0,0.0,0.0,0.0,0.0,0.0,0.0,0.0,0.0,0.0,0.0,0.0,0.0,0.0,0.0,0.0,0.0,0.0,0.0,0.0,0.0,0.0,0.0,0.0,0.0,0.0,0.0,0.0,0.0,0.0,0.0,0.0,0.0,0.0,0.0,0.0,0.0,0.0,0.0,0.0,0.0,0.0,0.0,0.0,0.0,0.0,0.0,0.0,0.0,0.0,0.0,0.0,0.0,0.0,0.0,0.0,0.0,0.0,0.0,0.0,0.0,0.0,0.0,0.0,0.0,0.0,0.0,0.0,0.0,0.0,0.0,0.0,0.0,0.0,0.0,0.0,0.0,0.0,0.0,0.0,3.5047,3.7297,3.8175,3.6486,3.6303,3.5624,3.3935,3.3807,3.312,3.1503,0.0,0.0,0.0,0.0,0.0,0.0,0.0,0.0,0.0,0.0,0.0,0.0,0.0,0.0,0.0,0.0,0.0,0.0,0.0,0.0,0.0,0.0,0.0,0.0,0.0,0.0,0.0,0.0,0.0,0.0,0.0,0.0,0.0,0.0,0.0,0.0,0.0,0.0,0.0,0.0,0.0,0.0,0.0,0.0,0.0,0.0,0.0,0.0,0.0,0.0,0.0,0.0,0.0,0.0,0.0,0.0,0.0,0.0,0.0,0.0,3.3741,0.0,0.0,0.0,0.0,0.0,0.0,0.0,0.0,0.0,0.0,0.0,0.0,0.0,0.0,0.0,0.0,0.0,0.0,0.0,0.0,0.0,0.0,0.0,0.0,0.0,0.0,0.0,0.0,0.0,0.0,0.0,0.0,0.0,0.0,0.0,0.0,0.0,0.0,0.0,0.0,0.0,3.5705,3.8044,3.8781,3.6541,3.6303,3.5595,3.3872,3.378,3.3331,3.2237,3.1623,0.0,0.0,0.0,0.0,0.0,0.0,0.0,0.0,0.0,0.0,0.0,0.0,0.0,0.0,0.0,0.0,0.0,0.0,0.0,0.0,0.0,0.0,0.0,0.0,0.0,0.0,0.0,0.0,0.0,0.0,0.0,0.0,0.0,0.0,0.0,0.0,0.0,0.0,0.0,0.0,0.0,0.0,0.0,0.0,0.0,0.0,0.0,0.0,0.0,0.0,0.0,0.0,0.0,0.0,0.0,0.0,0.0,0.0,0.0,0.0,3.4833,0.0,0.0,0.0,0.0,0.0,0.0,0.0,0.0,0.0,0.0,0.0,0.0,0.0,0.0,0.0,0.0,0.0,0.0,0.0,0.0,0.0,0.0,0.0,0.0,0.0,0.0,0.0,0.0,0.0,0.0,0.0,0.0,0.0,0.0,0.0,0.0,0.0,0.0,0.0,0.0,3.5863,3.7698,3.8382,3.7008,3.6476,3.5695,3.4431,3.3973,3.3378,3.2492,3.2054,0.0,0.0,0.0,0.0,0.0,0.0,0.0,0.0,0.0,0.0,0.0,0.0,0.0,0.0,0.0,0.0,0.0,0.0,0.0,0.0,0.0,0.0,0.0,0.0,0.0,0.0,0.0,0.0,0.0,0.0,0.0,0.0,0.0,0.0,0.0,0.0,0.0,0.0,0.0,0.0,0.0,0.0,0.0,0.0,0.0,0.0,0.0,0.0,0.0,0.0,0.0,0.0,0.0,3.8311,3.8745,3.9101,3.8745,3.8984,3.9588,3.786,3.7859,3.8921,3.6869,0.0,0.0,0.0,0.0,0.0,0.0,0.0,0.0,0.0,0.0,0.0,0.0,0.0,0.0,0.0,0.0,0.0,0.0,0.0,0.0,0.0,0.0,0.0,0.0,3.8294,3.8667,3.6806,0.0,0.0,0.0,0.0,0.0,0.0,0.0,0.0,0.0,0.0,0.0,3.6,3.722,3.7871,3.7418,3.6607,3.5784,3.5007,3.4174,3.3396,3.2711,3.2502,3.2211,0.0,0.0,0.0,0.0,0.0,0.0,0.0,0.0,0.0,0.0,0.0,0.0,0.0,0.0,0.0,0.0,0.0,0.0,0.0,0.0,0.0,0.0,0.0,0.0,0.0,0.0,0.0,0.0,0.0,0.0,0.0,0.0,3.5457,3.6486,0.0,0.0,0.0,0.0,0.0,0.0,0.0,0.0,0.0,0.0,0.0,0.0,0.0,3.778,3.7678,3.8946,3.9537,3.9405,4.0495,4.1051,4.1139,4.1174,4.12,4.1209,4.1014,0.0,3.9837,3.9546,0.0,0.0,0.0,0.0,0.0,0.0,0.0,0.0,0.0,0.0,0.0,0.0,0.0,0.0,0.0,0.0,0.0,0.0,0.0,0.0,0.0,0.0,3.9766,3.9665,3.9783,3.9851,0.0,3.799,3.6569,3.6366,3.5791,0.0,0.0,0.0,0.0,0.0,0.0,0.0,3.6527,3.7966,3.8453,3.704,3.6344,3.5684,3.4793,3.4089,3.3606,3.3375,3.2812,3.3013,3.4182,3.2863,0.0,0.0,0.0,0.0,0.0,0.0,0.0,0.0,0.0,0.0,0.0,0.0,0.0,0.0,0.0,0.0,0.0,0.0,0.0,0.0,0.0,0.0,0.0,0.0,0.0,0.0,0.0,0.0,0.0,3.5112,3.6825,3.8271,3.7874,3.7516,0.0,0.0,0.0,0.0,0.0,0.0,0.0,0.0,0.0,3.8892,3.8968,3.9174,3.9525,4.0083,4.0377,4.0319,4.0599,4.0832,4.1094,4.0879,4.0926,4.1094,4.1157,4.1069,4.0807,4.0134,3.9571,3.9042,0.0,0.0,0.0,0.0,3.8594,3.847,3.9468,3.9595,3.9181,3.8128,0.0,0.0,0.0,0.0,0.0,0.0,0.0,0.0,0.0,0.0,4.007,4.007,4.007,4.007,4.007,3.9309,3.8514,0.0,3.7753,3.7144,3.5977,0.0,0.0,0.0,0.0,3.6337,3.7029,3.7563,3.7773,3.7412,3.692,3.6297,3.5496,3.4725,3.4022,3.3528,3.3221,3.352,3.4613,3.4007,3.3778,0.0,0.0,0.0,0.0,0.0,0.0,0.0,0.0,0.0,0.0,0.0,0.0,0.0,0.0,0.0,0.0,0.0,0.0,0.0,0.0,0.0,0.0,0.0,0.0,0.0,0.0,0.0,0.0,3.6406,3.7772,3.9581,3.9347,3.8988,0.0,0.0,0.0,0.0,0.0,0.0,3.8447,3.8464,3.8877,3.9787,3.9846,4.0122,4.0611,4.0672,4.0672,4.0628,4.0271,4.0303,4.0628,4.0254,4.0303,4.0628,4.0628,4.0832,4.1087,4.0412,4.0321,4.0385,3.914,3.8794,3.9015,3.933,3.9455,3.9572,4.047,4.0802,4.0612,3.9353,3.8872,3.842,3.6898,0.0,0.0,0.0,0.0,3.9059,3.9059,3.9345,3.9627,3.9627,3.9747,3.9867,3.9867,3.9969,3.9918,0.0,3.9276,3.8853,3.7567,0.0,0.0,0.0,0.0,3.6276,3.7214,3.7132,3.7132,3.7578,3.7295,3.6853,3.6297,3.5302,3.4425,3.3826,3.359,3.3935,3.4878,3.4957,3.5066,3.5204,0.0,0.0,0.0,0.0,0.0,0.0,0.0,0.0,0.0,0.0,0.0,0.0,0.0,0.0,0.0,0.0,0.0,0.0,0.0,0.0,0.0,0.0,0.0,0.0,0.0,0.0,0.0,0.0,0.0,3.9884,3.946,0.0,0.0,0.0,0.0,3.8886,3.8937,3.9242,3.9935,3.9969,4.0036,4.007,4.007,4.0087,4.0121,4.0121,4.0121,4.0121,4.0121,4.0121,4.0121,4.0121,4.0121,4.0121,4.0121,4.0171,4.0254,4.1041,4.1178,4.078,4.0716,4.0429,4.0052,4.0559,4.0703,4.0703,4.0784,4.0802,4.0689,4.0169,3.9545,3.8969,3.8853,3.8853,0.0,0.0,3.9042,3.9209,3.9209,3.8778,3.839,3.839,3.8849,3.9259,3.9259,3.9696,4.007,0.0,4.002,3.9783,3.9005,0.0,3.865,3.7956,3.7271,3.6871,3.6905,3.7043,3.7091,3.7129,3.704,3.6993,3.6957,3.5587,3.4679,3.4552,3.3869,3.4189,3.5693,3.5747,3.6091,3.6852,3.5349,0.0,0.0,0.0,0.0,0.0,0.0,0.0,0.0,0.0,0.0,0.0,0.0,0.0,0.0,0.0,0.0,0.0,0.0,0.0,0.0,0.0,0.0,0.0,0.0,0.0,0.0,0.0,0.0,3.9969,3.9851,0.0,3.9698,3.9462,3.9411,3.9681,3.9698,3.98,4.007,4.007,4.007,4.007,4.007,4.007,4.007,4.007,4.007,4.007,4.007,4.007,4.007,4.007,4.007,4.007,4.007,4.007,4.0121,4.0483,4.0659,4.0754,4.05,4.0434,4.0531,4.0402,4.0353,4.0353,4.0353,4.0353,4.0303,4.0171,3.9901,3.9698,3.9698,3.9698,3.9698,3.9698,3.9767,3.9696,3.9312,3.9028,3.8794,3.839,3.8446,3.8739,3.9152,3.9365,3.9644,4.002,4.007,3.9851,3.9123,3.9377,3.9445,3.8717,3.8021,3.753,3.753,3.723,3.6956,3.6956,3.7453,3.754,3.7033,3.6032,3.5181,3.4643,3.3876,3.4166,3.5747,3.582,3.6417,3.7739,3.6689,3.5235,0.0,0.0,0.0,0.0,0.0,0.0,0.0,0.0,0.0,0.0,0.0,0.0,0.0,0.0,0.0,0.0,0.0,0.0,0.0,0.0,0.0,0.0,0.0,0.0,0.0,0.0,3.9259,3.9986,4.007,4.007,4.007,4.007,4.007,4.007,4.007,4.007,4.007,4.007,4.007,4.007,4.007,4.007,4.007,4.007,4.007,4.007,4.007,4.007,4.007,4.007,4.007,4.007,4.007,4.007,4.007,4.007,4.0303,4.0531,4.0221,4.0303,4.0531,4.0204,4.007,4.007,4.007,4.007,4.007,4.007,4.007,4.007,4.007,3.9969,3.9799,3.9799,3.9523,3.9082,3.8701,3.8407,3.8181,3.778,3.7838,3.8124,3.8535,3.892,3.9312,3.9696,3.9969,3.9918,3.9445,3.9766,3.9918,3.9428,3.8531,3.7905,3.7905,3.7189,3.6759,3.69,3.7541,3.7803,3.7431,3.6417,3.5693,3.5421,3.4407,3.4534,3.6146,3.5946,3.6479,3.7949,3.7444,3.6236,3.4339,0.0,0.0,0.0,0.0,0.0,0.0,0.0,0.0,0.0,0.0,0.0,0.0,0.0,0.0,0.0,0.0,0.0,0.0,0.0,0.0,0.0,0.0,0.0,3.8317,3.8724,3.9326,4.0037,4.0104,4.0104,4.0104,4.0087,4.007,4.007,4.007,4.007,4.007,4.007,4.007,4.007,4.007,4.007,4.007,4.007,4.007,4.007,4.007,4.0087,4.0104,4.0104,4.0121,4.0155,4.0121,4.0104,4.0104,4.0087,4.007,4.007,4.007,4.007,4.007,4.007,4.007,4.007,4.007,4.007,4.007,4.007,4.007,4.0087,4.007,3.9644,3.9206,3.9206,3.8311,3.7401,3.7401,3.6952,3.6492,3.6492,3.6952,3.7358,3.7417,3.8367,3.9189,3.9206,3.9696,4.007,4.007,4.007,4.007,4.007,3.8836,0.0,3.7905,3.696,3.6451,3.6821,3.7246,3.7667,3.814,3.6711,3.6164,3.6942,3.5512,3.5367,3.6961,3.629,3.6435,3.7541,3.7559,3.6984,3.5846,0.0,0.0,0.0,0.0,0.0,0.0,0.0,0.0,0.0,0.0,0.0,0.0,0.0,0.0,0.0,0.0,0.0,0.0,0.0,0.0,0.0,3.7796,3.8689,3.948,4.0138,4.0663,4.0865,4.0899,4.0899,4.0899,4.0392,4.007,4.007,4.007,4.007,4.007,4.007,4.007,4.007,4.007,4.007,4.007,4.007,4.007,4.007,4.007,4.0358,4.0899,4.0899,4.1187,4.166,4.1119,4.0899,4.0849,4.0307,4.007,4.007,4.007,4.007,4.007,4.007,4.007,4.007,4.007,4.007,4.007,4.007,4.007,4.002,3.9592,3.9312,3.9082,3.8684,3.8294,3.7953,3.7519,3.7298,3.7074,3.66,3.6616,3.7013,3.7838,3.8294,3.8794,3.9679,3.9969,4.007,4.007,4.007,4.007,4.007,3.8836,0.0,3.7905,3.7232,3.6678,3.6492,3.7094,3.7542,3.7667,3.6754,3.6407,3.6961,3.6037,3.62,3.7794,3.7649,3.8057,3.9165,3.838,3.7597,0.0,0.0,0.0,0.0,0.0,0.0,0.0,0.0,0.0,0.0,0.0,0.0,0.0,0.0,0.0,0.0,0.0,0.0,0.0,0.0,0.0,0.0,3.8413,3.9378,4.0392,4.0933,4.1322,4.1627,4.139,4.1204,4.1204,4.0527,4.007,4.007,4.007,4.007,4.007,4.007,4.007,4.007,4.007,4.007,4.007,4.007,4.007,4.007,4.007,4.0476,4.1204,4.1204,4.1593,4.2269,4.1847,4.166,4.1627,4.1187,4.0832,0.0,0.0,0.0,0.0,0.0,4.007,4.007,4.007,4.007,4.007,3.9799,3.9696,3.9592,3.9028,3.8645,3.8367,3.801,3.7722,3.7445,3.7118,3.7013,3.6952,3.66,3.6492,3.6769,3.7738,3.8124,3.8557,3.9523,3.9918,0.0,4.007,4.007,4.007,4.007,3.9106,3.8261,3.7939,3.7305,3.6797,3.655,3.6978,3.7537,3.8241,3.7558,0.0,0.0,0.0,3.7721,3.8645,3.8832,0.0,0.0,0.0,0.0,0.0,0.0,0.0,0.0,3.7006,3.6555,0.0,0.0,0.0,0.0,0.0,0.0,0.0,0.0,0.0,0.0,0.0,0.0,0.0,0.0,0.0,0.0,3.9209,4.0307,4.1204,4.1322,4.1593,4.2337,4.1779,4.1373,4.1441,4.0696,4.024,4.0324,4.0324,4.0324,4.0324,0.0,0.0,0.0,0.0,4.0324,4.0324,4.0257,4.0206,4.0206,4.0121,4.0476,4.1204,4.1288,4.1728,4.2422,4.2422,4.2422,4.2405,4.232,4.1914,4.1238,4.0409,4.007,4.007,4.007,4.007,4.007,4.002,0.0,0.0,3.9295,3.9098,3.8974,3.8407,3.7854,3.7417,3.7298,3.6892,3.6492,3.6492,3.6492,3.6492,3.6492,3.6492,3.6662,3.7298,3.7838,3.8463,3.9082,3.9696,4.007,4.007,4.007,4.007,4.007,3.9462,3.8751,3.8108,3.7411,3.7011,3.6992,0.0,0.0,3.9247,3.8775,3.899,4.0419,3.9967,3.9659,3.9659,3.9982,4.0128,3.9975,4.0299,4.0523,4.0707,4.0707,4.0483,4.002,3.7536,3.6697,0.0,0.0,0.0,0.0,0.0,0.0,0.0,0.0,0.0,0.0,0.0,0.0,0.0,0.0,0.0,3.8137,3.8875,3.999,4.1827,4.2083,4.2354,4.3115,4.254,4.232,4.2929,4.1779,4.1221,4.1813,4.1863,4.1863,4.1863,4.1863,4.1863,4.1863,4.1863,4.1863,4.1863,4.1271,4.0984,4.0984,0.0,0.0,4.1221,4.1813,4.2489,4.32,4.32,4.32,4.3149,4.254,4.2202,4.1948,4.0595,4.007,4.007,4.007,4.007,4.002,3.9523,3.9365,3.9259,3.8684,3.8446,3.8351,3.7738,3.746,0.0,3.6846,3.6616,3.6492,3.6492,3.6492,3.6492,3.6492,3.6492,3.6662,3.7298,3.7838,3.8463,3.9082,3.9696,4.007,4.007,4.007,4.007,4.007,3.9462,3.8937,3.8802,3.8423,3.8031,3.7729,3.8356,3.8895,3.9217,3.9426,3.9839,4.0456,4.0999,4.127,4.127,4.1558,4.157,4.1173,4.0889,4.0569,4.0221,4.0221,4.0171,4.007,3.9037,3.8389,0.0,0.0,0.0,0.0,0.0,0.0,0.0,0.0,0.0,0.0,0.0,3.6244,3.72,0.0,3.8067,3.8629,3.8739,3.9468,4.1565,4.1837,4.2366,4.3804,4.3318,4.3014,4.3386,4.2405,4.1897,4.2252,4.2286,4.2286,4.2286,4.2286,4.2286,4.2286,4.2286,4.2286,4.2286,4.1931,4.1745,4.1745,4.1373,4.1373,4.1779,4.2506,4.3064,4.3436,4.3826,4.3995,4.3944,4.3166,4.2861,4.2743,4.1627,4.0967,4.0646,4.0646,4.0409,4.007,3.9747,3.947,3.9082,3.8518,3.8124,3.7738,3.7118,3.6952,3.6892,3.66,3.6492,3.6492,3.6492,3.6492,3.6492,3.6492,3.6723,3.7118,3.7738,3.8294,3.892,3.9523,3.9901,4.007,4.007,4.007,4.007,4.007,3.9766,3.9411,3.9039,3.8826,3.8594,3.8218,3.879,3.9423,4.0076,4.0885,4.1501,4.1705,4.2085,4.2303,4.2303,4.2261,4.1973,4.1525,4.1065,4.058,4.007,4.007,3.9952,3.9644,3.9028,3.8574,0.0,0.0,0.0,0.0,0.0,0.0,0.0,0.0,3.5459,3.6801,3.7064,3.7467,3.8754,3.867,3.8555,3.8939,3.8618,3.9105,4.1319,4.1574,4.2316,4.4345,4.3893,4.347,4.3639,4.2946,4.2574,4.2726,4.2743,4.2743,4.2743,4.2743,4.2743,4.2743,4.2743,4.2743,4.2743,4.2591,4.2506,4.2506,4.2354,4.2286,4.232,4.3064,4.342,4.3453,4.4248,4.4587,4.4536,4.391,4.3639,4.3589,4.298,4.2286,4.161,4.1474,4.095,4.029,4.0172,3.964,3.892,3.8351,3.7738,3.7118,3.6662,3.6492,3.6492,3.6492,3.6492,3.6492,3.6492,3.6492,3.6522,3.6661,3.7094,3.7638,3.838,3.8998,3.957,4.0034,4.024,4.0257,4.0104,4.007,4.007,4.007,4.007,3.9868,3.9276,3.9208,3.9101,3.8848,3.9224,3.9986,4.1141,4.2255,4.2882,4.2882,4.2806,4.275,4.275,4.2239,4.176,4.1348,4.0879,4.0483,4.007,4.007,3.9799,3.9206,3.8574,3.8238,3.5838,3.4981,3.4614,3.5214,3.5368,3.5858,0.0,0.0,3.7559,3.878,3.9078,3.878,3.7887,3.8091,3.8412,3.8455,3.8439,3.9278,4.1948,4.2278,4.2882,4.4412,4.3893,4.369,4.4384,4.3741,4.3572,4.4265,4.4316,4.4316,4.4316,4.4316,4.4316,4.4316,4.4316,4.4316,4.4316,4.3639,4.3301,4.3284,4.2608,4.2286,4.232,4.3064,4.342,4.3453,4.4248,4.4587,4.457,4.4485,4.4451,4.4451,4.435,4.3859,4.3081,4.2422,4.1711,4.1017,4.0491,3.9429,3.8294,3.7679,3.7058,3.6616,3.6492,3.6492,3.6492,3.6492,3.6492,3.6492,3.6492,3.6492,3.6645,3.7246,3.7448,3.784,3.9092,3.9814,4.0286,4.0266,4.0721,4.0865,4.0189,4.007,4.007,4.007,4.007,4.0054,3.9969,3.9952,3.9968,3.9934,4.0323,4.1021,4.1973,4.258,4.2882,4.2882,4.2498,4.2297,4.2297,4.141,4.0926,4.0896,4.0451,4.0171,4.007,4.007,3.9799,3.9206,3.8574,3.801,3.6091,3.5861,3.5814,3.6492,3.6661,3.697,3.8166,3.8271,3.8342,3.9268,3.9474,3.9365,3.9183,3.9087,3.9027,0.0,3.8685,3.9141,4.1032,4.165,4.2407,4.3756,4.4024,4.4215,4.4553,4.4282,4.4231,4.4553,4.4993,4.5229,4.5229,4.5229,4.5229,4.5229,4.4807,4.4587,4.4587,4.4265,4.4096,4.4079,4.3775,4.3386,4.298,4.3741,4.4096,4.4113,4.4434,4.4587,4.4587,4.4587,4.4587,4.4587,4.4587,4.4384,4.3995,4.3234,4.2472,4.1777,4.153,4.0641,3.9402,3.8766,3.7897,3.7015,3.6615,3.6492,3.6569,3.6969,3.7076,3.7169,3.7569,3.7949,3.831,3.8607,3.9198,3.9941,4.0469,4.1058,4.1499,4.1473,4.1317,4.1102,4.0781,4.0358,4.007,4.007,4.007,4.007,4.007,4.007,4.0303,4.0879,4.1094,4.1587,4.2537,4.2806,4.2788,4.2498,4.2297,4.2074,4.1803,4.1139,4.0802,4.0802,4.0353,4.007,4.007,4.007,3.9627,3.8684,3.8407,3.778,3.6353,3.663,3.6892,3.7384,3.7784,3.8185,3.8677,3.8939,3.92,3.9693,3.9801,3.9859,4.0091,3.9811,3.9488,3.9419,3.9212,3.9495,4.0849,4.162,4.2501,4.3656,4.4293,4.4587,4.4587,4.4587,4.4654,4.4874,4.5399,4.5788,4.5991,4.6007,4.6007,4.6007,4.5483,4.5196,4.5196,4.4993,4.4891,4.4891,4.4671,4.4282,4.3758,4.4316,4.4587,4.4587,4.4587,4.4587,4.4587,4.4587,4.4587,4.4587,4.4587,4.4587,4.4502,4.3944,4.3141,4.2303,4.2303,4.1337,4.0035,3.958,3.8667,3.7692,3.72,3.7046,3.7153,3.7646,3.7784,3.7892,3.8385,3.8867,3.9266,3.9455,4.0344,4.1229,4.1617,4.2182,4.261,4.2588,4.2168,4.1745,4.1542,4.1052,4.0696,4.0696,4.051,4.0307,4.0104,4.007,4.0336,4.1047,4.123,4.1569,4.2279,4.2458,4.236,4.2032,4.1906,4.1674,4.1321,4.0832,4.0628,4.0628,4.0254,4.007,4.007,4.007,3.9454,3.8278,3.8278,3.7663,3.6492,3.6969,3.7477,3.7492,3.8492,3.9462,3.9493,4.0001,4.0478,4.0493,4.0493,4.0293,3.9631,3.9508,3.9508,3.9493,4.0028,4.088,4.2266,4.3043,4.3748,4.4497,4.4587,4.4587,4.4587,4.4587,4.4891,4.5618,4.5703,4.6007,4.6718,4.6752,4.6752,4.6752,4.6735,4.6718,4.6718,4.6024,4.5669,4.5669,4.4925,4.457,4.4536,4.457,4.4587,4.4587,4.4587,4.4587,4.4587,4.4587,4.4587,4.4587,4.4587,4.4587,4.4587,4.4553,4.3618,4.2419,4.2419,4.1102,3.9439,3.9377,3.8965,3.8477,3.8462,3.8446,3.8446,3.8477,3.8477,3.8477,3.8508,3.8508,3.8677,3.9339,4.0028,4.0881,4.2185,4.301,4.3423,4.3394,4.3369,4.3115,4.2388,4.2236,4.2219,4.2219,4.1627,4.0899,4.0172,4.007,4.0121,4.0121,4.0531,4.0849,4.0849,4.1276,4.1525,4.1525,4.1094,4.0849,4.0802,4.0353,4.0121,4.0121,4.0138,4.007,4.007,4.007,3.9454,3.8278,3.8278,3.7663,3.703,3.7323,3.7707,3.8616,3.9185,3.9631,4.0078,4.037,4.0524,4.0524,4.017,3.9785,3.9554,3.9524,3.9677,4.0108,4.0777,4.1423,4.1831,4.3281,4.4229,4.4019,4.5236,0.0,4.6041,0.0,0.0,4.5652,4.616,4.6752,4.7496,4.753,4.753,4.753,4.7056,4.6786,4.6786,4.6549,4.643,4.6413,4.5686,4.5331,4.5314,4.4807,4.4587,4.4587,4.4587,4.4587,4.4587,4.4587,4.4587,4.4587,4.4587,4.4587,4.4587,4.4587,4.3954,4.3223,4.3679,4.2822,4.1355,4.0951,4.0023,3.9144,3.9185,3.8867,3.8666,3.9591,3.9486,3.9277,3.9739,4.0153,4.0582,4.0751,4.1661,4.2598,4.3087,4.3722,4.4226,4.4176,4.3775,4.3335,4.3081,4.2625,4.2286,4.2286,4.1677,4.0933,4.0172,4.007,4.0221,4.0531,4.0724,4.0926,4.123,4.1393,4.1348,4.1065,4.0896,4.0676,4.0353,4.0171,4.007,4.007,4.007,4.007,4.007,4.007,3.9454,3.8278,3.8278,3.7663,3.7384,3.7861,3.8431,3.9293,3.9693,4.0001,4.0432,4.0524,4.0462,4.0216,4.0016,3.9739,3.9247,3.9354,3.9739,4.0416,4.1102,4.1828,4.2589,4.4069,4.5029,4.4838,4.5972,4.6786,0.0,0.0,0.0,4.6447,4.6938,4.7513,4.8257,4.8308,4.8308,4.8308,4.7834,4.7581,4.7581,4.7327,4.7056,4.6786,4.6312,4.6092,4.6075,4.5585,4.5229,4.4976,4.4976,4.4823,4.4587,4.4587,4.4587,4.4587,4.4587,4.4587,4.4587,4.4587,4.431,4.3914,4.4105,4.3469,4.2439,4.1986,4.1103,4.0224,4.0196,3.9778,3.9375,4.0244,4.0184,4.0038,4.0659,4.1209,4.1591,4.1771,4.2707,4.3512,4.3512,4.4105,4.4587,4.4587,4.4181,4.3826,4.3826,4.3436,4.3014,4.2743,4.2303,4.1728,4.0967,4.0646,4.0629,4.0893,4.0703,4.0659,4.0955,4.1001,4.0879,4.058,4.0531,4.0385,4.0121,4.007,4.007,4.007,4.007,4.007,4.007,3.985,3.9295,3.8278,3.8067,3.7587,3.7584,3.8539,3.9524,3.9554,4.0047,4.0524,4.0524,4.0493,4.0293,3.9647,4.0001,4.0016,3.8708,3.9031,3.9739,4.0416,4.1086,4.2309,4.4397,4.5291,4.6017,0.0,0.0,0.0,0.0,0.0,0.0,4.7919,0.0,4.824,4.8968,4.9001,4.9001,4.9001,4.9001,4.9001,4.9001,4.8325,4.7614,4.6904,4.687,4.6853,4.6853,4.6802,4.6413,4.5771,4.5771,4.5348,4.4688,4.4688,4.4688,4.4688,4.4654,4.4637,4.4621,4.4587,4.4587,4.4514,4.3781,4.3136,4.2583,4.2583,4.2078,4.1525,4.1525,4.1091,4.0593,4.0578,4.0593,4.0783,4.1393,4.1525,4.1706,4.2332,4.3015,4.3512,4.3512,4.4105,4.4587,4.4587,4.4587,4.4587,4.4587,4.4587,4.4333,4.3589,4.347,4.3183,4.2388,4.1694,4.1271,4.1271,4.0612,4.0189,4.0189,4.0189,4.0189,4.0189,4.0189,4.0172,4.0138,4.0172,4.0172,4.0138,4.0172,4.0172,4.0138,3.9623,3.9002,3.8343,3.7775,3.7573,3.8723,3.9262,3.9647,4.0139,4.0401,4.0524,4.0524,4.0139,3.9739,3.9554,3.9262,3.8769,3.7923,3.8723,0.0,4.0416,4.1527,0.0,4.4484,4.5733,0.0,4.6862,0.0,4.8443,4.8443,4.8443,0.0,0.0,4.8223,4.824,4.8968,4.9001,4.9001,4.9001,4.9001,4.9001,4.9001,4.8815,4.8629,4.8426,4.7885,4.7631,4.7614,4.7056,4.6684,4.6515,4.6515,4.6397,4.6227,4.6227,4.6227,4.6177,4.5635,4.5415,4.5348,4.479,4.4587,4.457,4.4367,4.3856,4.3257,4.3257,4.2458,4.1575,4.2078,4.1771,4.1343,4.1836,4.2013,4.2013,4.2205,4.2269,4.2269,4.2458,4.3015,4.3512,4.3512,4.4105,4.4587,4.4587,4.4587,4.4587,4.4587,4.4587,4.4519,4.4316,4.4282,4.3792,4.2455,4.2134,4.2016,4.2016,4.1847,4.1728,4.1728,4.1728,4.1728,4.1728,4.1728,4.1474,4.0933,4.1441,4.1474,4.0933,4.1457,4.1457,4.0916,4.13,4.0641,3.903,3.9462,3.9168,3.9231,3.9739,4.0047,4.0432,4.0524,4.0447,4.0155,3.9801,3.9354,3.8754,3.8569,3.8215,3.723,3.8169,3.94,0.0,0.0,0.0,4.5292,4.6293,4.7074,0.0,4.8546,0.0,4.9001,4.9001,4.9001,0.0,4.8629,4.8578,4.8984,4.9001,4.9001,4.9001,4.9001,4.9001,4.9001,4.9001,4.9001,4.9001,4.8595,4.8392,4.8376,4.7953,4.7581,4.7293,0.0,4.7107,4.6786,4.6786,4.6786,4.6752,4.6346,4.6177,4.6092,4.5348,4.5077,4.5026,4.4688,4.431,4.3972,4.3972,4.3273,4.2458,4.2814,4.2458,4.2013,4.2395,4.252,4.2583,4.2892,4.2953,4.3015,4.335,4.3722,4.3972,4.3972,4.431,4.4587,4.4587,4.4587,4.4587,4.4587,4.4587,4.4587,4.4587,4.4587,4.4265,4.3403,4.2997,4.2777,4.2777,4.2489,4.2286,4.2286,4.2286,4.2286,4.2286,4.2286,4.21,4.1694,4.2066,4.21,4.1694,4.2083,4.21,4.1677,4.151,4.0918,3.9774,3.9636,3.9328,3.9462,4.0078,4.0524,4.0524,4.0462,4.0232,3.9647,3.9385,3.8908,3.7738,3.7969,3.7984,3.6722,3.76,3.8954,4.0309,0.0,4.2762,4.6175,4.6742,4.7288,4.8656,4.894,4.9001,4.9001,4.9086,4.9154,4.9154,4.9238,4.9221,4.9018,4.9001,4.9001,4.9001,4.9001,4.9001,4.9001,4.9001,4.9001,4.9001,4.9001,4.9001,4.9001,4.9001,4.8663,4.8071,4.8071,4.7682,4.709,4.709,4.709,4.7073,4.6972,4.6938,4.6853,4.6126,4.5855,4.5754,4.5094,4.4874,4.484,4.4637,4.4105,4.3512,4.3512,4.3075,4.2645,4.2645,4.2707,4.2892,4.3529,4.3713,4.3914,4.4592,4.4807,4.4874,4.4874,4.4807,4.4722,4.4722,4.4654,4.4587,4.4587,4.4587,4.4587,4.4587,4.4587,4.4587,4.4587,4.3995,4.3572,4.3572,4.2997,4.2591,4.2591,4.2591,4.2591,4.2591,4.2591,4.2557,4.2439,4.254,4.2557,4.2439,4.254,4.254,4.2439,4.142,4.0837,4.0621,3.9518,3.9261,4.017,4.0432,4.0524,4.0524,4.0108,3.9662,3.9554,3.8646,0.0,0.0,3.7584,3.743,3.6645,3.76,3.8954,4.0309,4.1124,4.2621,4.5484,4.6394,4.7153,0.0,4.8656,4.9001,4.9001,4.9543,0.0,0.0,0.0,5.0304,4.9069,4.9001,4.9001,4.9001,4.9001,4.9001,4.9001,4.9001,4.9001,4.9001,4.9001,4.9001,4.9001,4.9001,4.8934,4.8815,4.8815,0.0,4.8612,4.8612,4.8612,4.8562,4.797,4.7733,4.7631,4.687,4.6599,4.6583,4.6447,4.6413,4.621,4.4976,4.4105,4.3512,4.3512,4.3453,4.3317,4.3317,4.3781,4.4253,4.4384,4.4838,4.5368,4.55,4.5974,4.6413,4.6413,4.594,4.5517,4.5517,4.501,4.4587,4.4587,4.4587,4.4587,4.4587,4.4587,4.4587,4.4587,4.4468,4.4384,4.4384,4.4265,4.4181,4.4181,4.4181,4.4181,4.4181,4.4181,4.3893,4.325,4.3842,4.3876,4.3234,4.3859,4.3859,4.3217,4.362,4.323,4.2038,4.1873,4.1598,4.0743,4.0783,4.0524,4.0524,4.0016,3.9431,3.9077,0.0,0.0,3.7046,3.6969,3.6876,3.6553,3.7307,3.8431,3.9785,4.083,4.2516,4.5352,4.6329,4.721,4.8336,4.9118,4.956,0.0,5.0236,5.0676,5.0676,0.0,5.0913,5.0185,4.9779,4.956,4.956,4.9204,4.9001,4.9001,4.9001,4.9001,4.9001,4.9001,4.9001,4.9001,4.9001,4.9001,4.9001,4.9001,0.0,4.9001,4.9001,4.9001,4.8968,4.8612,4.8477,4.8392,4.7648,4.7378,4.7327,4.6921,4.6786,4.6667,4.5957,4.5529,4.5244,4.5244,4.5244,4.5161,4.4733,4.5168,4.5652,4.5263,4.572,4.6261,4.6261,4.6532,4.6786,4.6786,4.6515,4.6261,4.6261,4.5974,4.5602,4.5229,4.5162,4.5026,4.4637,4.4587,4.4587,4.4587,4.4587,4.4587,4.4587,4.4587,4.4587,4.4587,4.4587,4.4587,4.4587,4.4587,4.4418,4.4045,4.4384,4.4401,4.4028,4.4384,4.4401,4.4012,4.4051,4.3481,4.2446,4.2108,4.1641,4.0946,4.0904,4.0524,4.0524,3.9908,3.917,3.8631,3.7877,0.0,3.6599,3.6492,3.6492,3.6492,3.6923,3.7769,3.9277,4.052,4.2268,4.5182,4.6551,4.7669,0.0,4.9953,0.0,5.0338,5.1014,0.0,5.1454,0.0,0.0,5.1234,5.049,5.0084,5.0084,4.9373,4.9001,4.9001,4.9001,4.9001,4.9001,4.9001,4.9001,4.9001,4.9001,4.9001,4.9001,4.9001,0.0,0.0,4.9001,4.9001,4.9001,4.9001,4.9001,4.8934,4.8359,4.8156,4.8071,4.7479,4.7259,4.7259,4.7259,4.7056,4.6786,4.6786,4.6786,4.6667,4.6109,4.6346,4.6667,4.6092,4.6481,4.7073,4.7225,4.7259,4.7259,4.7259,4.7141,4.7039,4.7039,4.6904,4.6616,4.6041,4.594,4.5686,4.4942,4.4823,4.4756,4.4604,4.4587,4.4587,4.4587,4.4587,4.4587,4.4587,4.4587,4.4587,4.4587,4.4587,4.4587,4.4587,4.4587,4.4587,4.4587,4.4587,4.4587,4.4587,4.403,4.3453,4.2892,4.2269,4.1591,4.0377,4.0524,4.0524,4.0524,3.9554,3.8585,3.8523,0.0,3.6569,3.6507,3.6492,3.6492,3.6492,3.6538,3.723,3.92,4.0078,4.1565,4.4369,4.7146,4.8854,4.8961,0.0,0.0,5.1166,5.1775,0.0,0.0,0.0,0.0,5.1285,5.049,5.0084,5.0084,4.9373,4.9001,4.9001,4.9001,4.9001,4.9001,4.9001,4.9001,4.9001,4.9001,4.9001,4.9001,4.9001,0.0,0.0,4.9001,4.9001,4.9001,4.9001,4.9001,4.9001,4.8934,4.89,4.89,4.8832,4.8798,4.8798,4.8798,4.7885,4.6786,4.6786,4.6786,4.6786,4.6718,4.6735,4.6769,4.6718,4.7259,4.7986,4.8646,4.8798,4.8798,4.8798,4.8274,4.7817,4.7817,4.7259,4.6769,4.6701,4.6684,4.6447,4.572,4.5602,4.5348,4.4671,4.4587,4.4587,4.4587,4.4587,4.4587,4.4587,4.4587,4.4587,4.4587,4.4587,4.4587,4.4587,4.4587,4.4587,4.4587,4.4587,4.4587,4.4587,4.4514,4.4457,4.4384,4.3663,4.2953,4.0719,4.0778,4.0524,4.0524,3.9508,3.8508,3.8508,3.7461,3.6492,3.6492,3.6492,3.6492,3.6492,3.6492,3.703,3.8646,3.9439,4.0774,4.3121,4.5158,4.6925,4.8266,4.9893,0.0,0.0,0.0,5.3027,0.0,0.0,0.0,5.2621,5.1437,5.076,5.076,4.9627,4.9001,4.9001,4.9001,4.9001,4.9001,4.9001,4.9001,4.9001,4.9001,4.9001,4.9001,4.9001,0.0,0.0,4.9001,4.9001,4.9001,4.9001,4.9001,4.9001,4.9001,4.9001,4.9001,4.9001,4.9001,4.9001,4.9001,4.8612,4.8122,4.8122,4.8122,4.8037,4.7597,4.7784,4.802,4.7581,4.802,4.8646,4.8934,4.9001,4.9001,4.9001,4.8781,4.8578,4.8578,4.8325,4.7986,4.7547,4.7462,4.7208,4.6464,4.6363,4.6092,4.5348,4.5263,4.5077,4.4621,4.4587,4.4587,4.4587,4.4587,4.4587,4.4587,4.4587,4.4587,4.4587,4.4587,4.4587,4.4587,4.4587,4.4587,4.4587,4.4587,4.4367,4.3914,4.3647,4.2937,4.0798,4.1118,4.1024,4.0836,3.9811,3.8738,3.8573,3.7461,3.6492,3.6492,3.6492,3.6492,3.6492,3.6661,3.7169,3.8323,3.9194,4.0541,4.2699,4.4381,4.6053,4.8034,0.0,5.0943,0.0,5.3027,5.3501,0.0,0.0,0.0,5.3501,5.2249,5.1437,5.1217,4.9982,4.9221,4.9001,4.9001,4.9001,4.9001,4.9001,4.9001,4.9001,4.9001,4.9001,4.9001,4.9001,0.0,0.0,4.9001,4.9001,4.9001,4.9001,4.9001,4.9001,4.9001,4.9001,4.9001,4.9001,4.9001,4.9001,4.9001,4.9001,4.9001,4.9001,4.9001,4.89,4.8392,4.8612,4.8883,4.8376,4.8612,4.9001,4.9001,4.9001,4.9001,4.9001,4.9001,4.9001,4.9001,4.9001,4.8849,4.8325,4.824,4.7986,4.7242,4.7124,4.6853,4.6126,4.6024,4.5737,4.4993,4.4925,4.4823,4.4604,4.4587,4.4587,4.4587,4.4587,4.4587,4.4587,4.4587,4.4587,4.4587,4.4587,4.4587,4.4587,4.4587,4.431,4.3839,4.3571,4.2883,4.0309,4.1485,4.2332,4.1656,4.0482,3.9346,3.8623,3.7461,3.6492,3.6492,3.6492,3.6492,3.6492,3.703,3.7707,3.84,3.9631,4.1248,4.3352,4.554,4.7405,0.0,0.0,5.151,5.2234,5.3027,0.0,0.0,0.0,0.0,5.3501,5.2739,5.1961,5.1234,5.0473,4.9729,4.9018,4.9001,4.9001,4.9001,4.9001,4.9001,4.9001,4.9001,4.9001,4.9001,0.0,0.0,0.0,4.9001,4.9001,4.9001,4.9001,4.9001,4.9001,4.9001,4.9001,4.9001,4.9001,4.9001,4.9001,4.9001,4.9001,4.9001,4.9001,4.9001,4.9001,4.8984,4.9001,4.9001,4.8984,4.9001,4.9001,4.9001,4.9001,4.9001,4.9001,4.9001,4.9001,4.9001,4.9001,4.9001,4.8984,4.8984,4.8748,4.802,4.7902,4.7631,4.687,4.6786,4.6498,4.5771,4.5703,4.5382,4.4637,4.4587,4.4587,4.4587,4.4587,4.4587,4.4587,4.4587,4.4587,4.4587,4.4587,4.4587,4.4587,4.4587,4.4587,4.457,4.3839,4.316,3.892,3.9408,3.9685,3.9505,3.8772,3.8056,3.788,3.7138,3.6492,3.6492,3.6861,3.7184,3.7184,3.7738,3.8723,4.0355,4.0986,4.1795,4.3412,0.0,0.0,4.8229,5.0957,5.2825,0.0,0.0,0.0,0.0,0.0,0.0,5.3501,5.3264,5.2756,5.1978,5.1251,5.0744,5.0524,4.9999,4.9746,4.9746,4.9238,4.9001,4.9001,4.9001,4.9001,0.0,0.0,0.0,0.0,4.9001,4.9001,4.9001,4.9001,4.9001,4.9001,4.9001,4.9001,4.9001,4.9001,4.9001,4.9001,4.9001,4.9001,4.9001,4.9001,4.9001,4.9001,4.9001,4.9001,4.9001,4.9001,4.9001,4.9001,4.9001,4.9001,4.9001,4.9001,4.9001,4.9001,4.9001,4.9001,4.9001,4.9001,4.9001,4.8934,4.8697,4.8663,4.8392,4.7665,4.7564,4.709,4.5838,4.5703,4.5399,4.4637,4.4587,4.4587,4.4587,4.4587,4.4587,4.4587,4.4587,4.4587,4.4587,4.4587,4.4587,4.4587,4.5094,4.5336,4.5374,4.4631,4.3928,3.8197,3.8826,3.9219,3.8916,3.8354,3.7778,3.7556,3.7169,3.6799,3.6538,3.723,3.78,3.7554,3.8262,3.94,4.094,4.1632,4.2577,0.0,0.0,0.0,4.8642,0.0,0.0,0.0,0.0,0.0,0.0,0.0,0.0,5.3501,5.3501,5.3281,5.2773,5.2012,5.1488,5.1217,5.0744,5.0371,5.0084,4.9627,4.9272,4.9001,4.9001,4.9001,0.0,0.0,0.0,0.0,4.9001,4.9001,4.9001,4.9001,4.9001,4.9001,4.9001,4.9001,4.9001,4.9001,4.9001,4.9001,4.9001,4.9001,4.9001,4.9001,4.9001,4.9001,4.9001,4.9001,4.9001,4.9001,4.9001,4.9001,4.9001,4.9001,4.9001,4.9001,4.9001,4.9001,4.9001,4.9001,4.9001,4.9001,4.9001,4.9001,4.9001,4.9001,4.8832,4.8392,4.8342,4.7767,4.6278,4.6126,4.5686,4.4671,4.4587,4.4587,4.4587,4.4587,4.4587,4.4587,4.4587,4.4587,4.4587,4.4587,4.4722,4.501,4.5754,4.5822,4.5337,4.5147,4.4557,0.0,3.9278,4.0075,3.9421,3.8823,3.8182,3.7604,3.7507,0.0,3.6753,3.7677,3.8415,3.7831,3.8739,3.9862,4.0693,4.1909,0.0,0.0,4.6643,0.0,0.0,5.1564,0.0,5.2384,0.0,0.0,0.0,0.0,0.0,5.3501,5.3501,5.3501,5.3501,5.279,5.2063,5.1386,5.1319,5.093,5.0253,5.0135,4.9729,4.9086,4.9018,4.9001,0.0,0.0,0.0,0.0,4.9001,4.9001,4.9001,4.9001,4.9001,4.9001,4.9001,4.9001,4.9001,4.9001,4.9001,4.9001,4.9001,4.9001,4.9001,4.9001,4.9001,4.9001,4.9001,4.9001,4.9001,4.9001,4.9001,4.9001,4.9001,4.9001,4.9001,4.9001,4.9001,4.9001,4.9001,4.9001,4.9001,4.9001,4.9001,4.9001,4.9001,4.9001,4.9001,4.9001,4.9001,4.8426,4.6955,4.6786,4.6194,4.4705,4.4587,4.4587,4.4587,4.4587,4.4587,4.4587,4.4587,4.4587,4.4587,4.4621,4.5026,4.5788,4.6515,4.6174,4.4836,4.55,4.4999,3.6848,0.0,3.742,3.7251,3.708,3.7095,0.0,3.7507,3.76,3.7969,3.8708,3.9385,3.9754,4.0078,4.1016,4.3264,0.0,4.4858,4.6997,0.0,0.0,5.3261,5.3382,5.323,0.0,0.0,0.0,0.0,0.0,5.3501,5.3501,5.3501,5.3501,5.3501,5.3315,5.3129,5.2976,5.235,5.1944,5.1775,5.0625,4.9999,4.9813,4.9255,4.9001,0.0,0.0,0.0,4.9001,4.9001,4.9001,4.9001,4.9001,4.9001,4.9001,4.9001,4.9001,4.9001,4.9001,4.9001,4.9001,4.9001,4.9001,4.9001,4.9001,4.9001,4.9001,4.9001,4.9001,4.9001,4.9001,4.9001,4.9001,4.9001,4.9001,4.9001,4.9001,4.9001,4.9001,4.9001,4.9001,4.9001,4.9001,4.9001,4.9001,4.9001,4.9001,4.9001,4.9001,4.9001,4.8426,4.6955,4.6786,4.6194,4.4705,4.4587,4.4587,4.4587,4.4587,4.4587,4.4587,4.4587,4.4587,4.4587,4.5145,4.5805,4.6532,4.7293,4.7191,4.6309,4.6488,4.573,3.6492,3.6953,3.7415,3.7415,3.7415,3.7584,3.8262,3.8185,3.8061,3.8431,3.9293,4.0093,4.0462,4.1031,4.2179,0.0,4.5466,0.0,0.0,0.0,5.2134,5.3389,5.3516,5.3501,0.0,0.0,0.0,0.0,0.0,5.3501,5.3501,5.3501,5.3501,5.3501,5.3501,5.3501,5.3501,5.3078,5.2672,5.2283,5.115,5.0422,5.0067,4.934,4.9001,0.0,0.0,0.0,4.9001,4.9001,4.9001,4.9001,4.9001,4.9001,4.9001,4.9001,4.9001,4.9001,4.9001,4.9001,4.9001,4.9001,4.9001,4.9001,4.9001,4.9001,4.9001,4.9001,4.9001,4.9001,4.9001,4.9001,4.9001,4.9001,4.9001,4.9001,4.9001,4.9001,4.9001,4.9001,4.9001,4.9001,4.9001,4.9001,4.9001,4.9001,4.9001,4.9001,4.9001,4.9001,4.8562,4.7428,4.731,4.6718,4.5229,4.5094,4.5094,4.5094,4.4773,4.4739,4.5077,4.4756,4.4739,4.5094,4.5821,4.6566,4.731,4.8054,4.8018,4.7288,4.6949,4.6182,3.6738,3.7849,3.8855,3.8431,3.8508,3.8816,3.9385,3.9077,3.8692,3.88,3.9816,4.0755,4.1094,4.206,0.0,0.0,0.0,0.0,5.1164,5.1954,5.2366,5.2599,5.3025,0.0,0.0,0.0,0.0,0.0,0.0,5.3501,5.3501,5.3501,5.3501,5.3501,5.3501,5.3501,5.3501,5.3501,5.3162,5.2469,5.1623,5.0879,5.0236,4.939,4.9001,4.9001,0.0,0.0,4.9001,4.9001,4.9001,4.9001,4.9001,4.9001,4.9001,4.9001,4.9001,4.9001,4.9001,4.9001,4.9001,4.9001,4.9001,4.9001,4.9001,4.9001,4.9001,4.9001,4.9001,4.9001,4.9001,4.9001,4.9001,4.9001,4.9001,4.9001,4.9001,4.9001,4.9001,4.9001,4.9001,4.9001,4.9001,4.9001,4.9001,4.9001,4.9001,4.9001,4.9001,4.9001,4.8731,4.8003,4.7919,4.7361,4.5991,4.5771,4.5754,4.5872,4.506,4.4874,4.5517,4.4925,4.4942,4.5703,4.6413,4.7158,4.7919,4.8646,4.8656,4.7885,4.7288,4.6534,3.7892,3.9667,4.0588,3.8255,3.8523,3.9385,3.9493,3.9447,3.9524,4.0108,4.0863,4.1983,4.3796,4.3738,4.434,0.0,0.0,5.0473,0.0,0.0,5.2741,5.4108,0.0,0.0,0.0,0.0,0.0,0.0,0.0,5.3501,5.3501,5.3501,5.3501,5.3501,5.3501,5.3501,5.3501,5.3501,5.345,5.3298,5.1894,5.115,5.0997,4.9627,4.9001,4.9001,0.0,4.9001,4.9001,4.9001,4.9001,4.9001,4.9001,4.9001,4.9001,4.9001,4.9001,4.9001,4.9001,4.9001,4.9001,4.9001,4.9001,4.9001,4.9001,4.9001,4.9001,4.9001,4.9001,4.9001,4.9001,4.9001,4.9001,4.9001,4.9001,4.9001,4.9001,4.9001,4.9001,4.9001,4.9001,4.9001,4.9001,4.9001,4.9001,4.9001,4.9001,4.9001,4.9001,4.9001,4.8731,4.8003,4.7919,4.7564,4.6701,4.6058,4.5974,4.6583,4.5331,4.4621,4.4739,4.4637,4.4942,4.5703,4.6413,4.7158,4.7919,4.8646,4.8656,4.7885,4.7754,4.7001,3.7246,3.8908,4.0244,3.9405,4.0812,4.2351,4.2338,4.1716,4.1336,4.158,4.1909,4.2829,4.4914,0.0,4.6445,4.9698,0.0,5.0945,5.2037,5.1874,0.0,0.0,0.0,0.0,0.0,0.0,0.0,0.0,0.0,0.0,5.3501,5.3501,5.3501,5.3501,5.3501,5.3501,5.3501,5.3078,5.3078,5.3484,5.1961,5.1217,5.1166,4.9678,4.9001,4.9001,0.0,4.9001,4.9001,4.9001,4.9001,4.9001,4.9001,4.9001,4.9001,4.9001,4.9001,4.9001,4.9001,4.9001,4.9001,4.9001,4.9001,4.9001,4.9001,4.9001,4.9001,4.9001,4.9001,4.9001,4.9001,4.9001,4.9001,4.9001,4.9001,4.9001,4.9001,4.9001,4.9001,4.9001,4.9001,4.9001,4.9001,4.9001,4.9001,4.9001,4.9001,4.9001,4.9001,4.9001,4.8883,4.8545,4.8494,4.8206,4.7462,4.709,4.6701,4.6227,4.5568,4.5365,4.5754,4.5399,4.5737,4.6887,4.7225,4.7767,4.8511,4.8832,4.8798,4.8513,4.8096,4.7339,3.6876,3.833,3.9955,4.0893,4.2571,4.4157,4.4605,4.3652,4.2777,4.3025,4.3063,4.3712,0.0,4.6892,0.0,5.1295,5.1548,5.1401,0.0,0.0,0.0,0.0,0.0,0.0,0.0,0.0,0.0,0.0,0.0,0.0,5.3501,5.3501,5.3501,5.3501,5.3501,5.3501,5.3501,5.2706,5.2604,5.3213,5.1674,5.0947,5.0913,4.9593,4.9001,4.9001,4.9001,4.9001,4.9001,4.9001,4.9001,4.9001,4.9001,4.9001,4.9001,4.9001,4.9001,4.9001,4.9001,4.9001,4.9001,4.9001,4.9001,4.9001,4.9001,4.9001,4.9001,4.9001,4.9001,4.9001,4.9001,4.9001,4.9001,4.9001,4.9001,4.9001,4.9001,4.9001,4.9001,4.9001,4.9001,4.9001,4.9001,4.9001,4.9001,4.9001,4.9001,4.9001,4.9001,4.9001,4.9001,4.9001,4.9001,4.8714,4.797,4.7919,4.7445,4.6295,4.6058,4.621,4.6769,4.6261,4.6583,4.7885,4.7919,4.8274,4.9001,4.9001,4.9001,4.9001,4.8225,4.7473,3.8015,3.9401,4.0847,4.2177,4.2191,4.2326,4.4228,4.3638,4.2967,4.4172,0.0,0.0,0.0,4.84,4.9831,5.014,5.1349,5.2184,0.0,0.0,0.0,0.0,0.0,0.0,0.0,0.0,0.0,0.0,0.0,0.0,5.3467,5.3501,5.3501,5.3501,5.3501,5.3501,5.3501,5.2706,5.2334,5.2367,5.0879,5.0168,5.0152,4.9357,4.9001,4.9001,4.9001,4.9001,4.9001,4.9001,4.9001,4.9001,4.9001,4.9001,4.9001,4.9001,4.9001,4.9001,4.9001,4.9001,4.9001,4.9001,4.9001,4.9001,4.9001,4.9001,4.9001,4.9001,4.9001,4.9001,4.9001,4.9001,4.9001,4.9001,4.9001,4.9001,4.9001,4.9001,4.9001,4.9001,4.9001,4.9001,4.9001,4.9001,4.9001,4.9001,4.9001,4.9001,4.9001,4.9001,4.9001,4.9001,4.9001,4.8714,4.797,4.7919,4.7868,4.7767,4.7107,4.6735,4.6786,4.6735,4.709,4.7902,4.7919,4.8274,4.9001,4.9001,4.9001,4.9001,4.8225,4.7473,3.7107,3.8843,4.0649,4.1241,4.2138,4.3267,4.4953,4.4912,4.4767,4.5619,4.5834,0.0,0.0,0.0,5.0237,5.0697,5.1239,5.1614,5.1609,0.0,0.0,0.0,0.0,0.0,0.0,0.0,0.0,0.0,0.0,0.0,5.2063,5.208,5.208,5.208,5.208,5.208,5.208,5.1319,5.093,5.093,5.0355,5.0084,5.0067,4.934,4.9001,4.9001,4.9001,4.9001,4.9001,4.9001,4.9001,4.9001,4.9001,4.9001,4.9001,4.9001,4.9001,4.9001,4.9001,4.9001,4.9001,4.9001,4.9001,4.9001,4.9001,4.9001,4.9001,4.9001,4.9001,4.9001,4.9001,4.9001,4.9001,4.9001,4.9001,4.9001,4.9001,4.9001,4.9001,4.9001,4.9001,4.9001,4.9001,4.9001,4.9001,4.9001,4.9001,4.9001,4.9001,4.9001,4.9001,4.9001,4.9001,4.89,4.8612,4.8595,4.8595,4.8595,4.7462,4.7208,4.8139,4.7733,4.7834,4.8578,4.8595,4.8731,4.9001,4.9001,4.9001,4.9001,4.8225,4.7473,3.6815,3.8477,4.0322,4.0782,4.2116,4.375,4.5544,4.5833,4.5919,4.6698,4.6742,4.6748,4.7316,0.0,0.0,0.0,5.0894,5.1133,5.0896,0.0,0.0,0.0,0.0,0.0,0.0,0.0,0.0,0.0,0.0,0.0,0.0,5.1217,5.1217,5.1217,5.1217,5.1217,5.1217,5.0473,5.0084,5.0084,4.9847,4.9746,4.9729,4.9238,4.9001,4.9001,4.9001,4.9001,4.9001,4.9001,4.9001,4.9001,4.9001,4.9001,4.9001,4.9001,4.9001,4.9001,4.9001,4.9001,4.9001,4.9001,4.9001,4.9001,4.9001,4.9001,4.9001,4.9001,4.9001,4.9001,4.9001,4.9001,4.9001,4.9001,4.9001,4.9001,4.9001,4.9001,4.9001,4.9001,4.9001,4.9001,4.9001,4.9001,4.9001,4.9001,4.9001,4.9001,4.9001,4.9001,4.9001,4.9001,4.9001,4.9001,4.9001,4.9001,4.9001,4.9001,4.8054,4.7953,4.8968,4.8528,4.8494,4.8984,4.9001,4.9001,4.9001,4.9001,4.9001,4.9001,4.8225,4.7622,3.7507,3.8492,3.9862,4.1247,4.2109,4.3325,4.5972,4.6065,4.5972,4.7327,4.7065,4.6609,4.6642,4.7349,0.0,0.0,0.0,0.0,5.0185,5.0084,0.0,0.0,0.0,0.0,0.0,0.0,0.0,0.0,0.0,0.0,0.0,5.12,5.12,5.12,5.12,5.12,5.12,5.0456,5.0084,5.0067,4.9357,4.9001,4.9001,4.9001,4.9001,4.9001,4.9001,4.9001,4.9001,4.9001,4.9001,4.9001,4.9001,4.9001,4.9001,4.9001,4.9001,4.9001,4.9001,4.9001,4.9001,4.9001,4.9001,4.9001,4.9001,4.9001,4.9001,4.9001,4.9001,4.9001,4.9001,4.9001,4.9001,4.9001,4.9001,4.9001,4.9001,4.9001,4.9001,4.9001,4.9001,4.9001,4.9001,4.9001,4.9001,4.9001,4.9001,4.9001,4.9001,4.9001,4.9001,4.9001,4.9001,4.9001,4.9001,4.9001,4.9001,4.9001,4.9001,4.9001,4.9001,4.9001,4.9001,4.9001,4.9001,4.9001,4.9001,4.9001,4.9001,4.9001,4.8225,4.7885,3.7631,3.8831,4.0324,4.0739,0.0,0.0,4.4495,4.5418,4.6542,0.0,4.7065,4.6467,4.6005,0.0,0.0,0.0,0.0,0.0,0.0,4.9312,4.9255,0.0,0.0,0.0,0.0,0.0,0.0,0.0,0.0,0.0,0.0,4.9661,4.9661,4.9661,4.9661,4.9661,4.9661,4.9441,4.9323,4.9323,4.9103,4.9001,4.9001,4.9001,4.9001,4.9001,4.9001,4.9001,4.9001,4.9001,4.9001,4.9001,4.9001,4.9001,4.9001,4.9001,4.9001,4.9001,4.9001,4.9001,4.9001,4.9001,4.9001,4.9001,4.9001,4.9001,4.9001,4.9001,4.9001,4.9001,4.9001,4.9001,4.9001,4.9001,4.9001,4.9001,4.9001,4.9001,4.9001,4.9001,4.9001,4.9001,4.9001,4.9001,4.9001,4.9001,4.9001,4.9001,4.9001,4.9001,4.9001,4.9001,4.9001,4.9001,4.9001,4.9001,4.9001,4.9001,4.9001,4.9001,4.9001,4.9001,4.9001,4.9001,4.9001,4.9001,4.9001,4.9001,4.9001,4.9001,4.8225,4.7885,3.9016,4.0016,4.114,4.194,4.3679,4.511,4.4833,0.0,0.0,0.0,4.6665,4.6143,4.6096,4.5892,0.0,0.0,0.0,0.0,0.0,0.0,4.9001,0.0,0.0,0.0,0.0,0.0,0.0,0.0,0.0,0.0,0.0,4.9001,4.9001,4.9001,4.9001,4.9001,4.9001,4.9001,4.9001,4.9001,4.9001,4.9001,4.9001,4.9001,4.9001,4.9001,4.9001,4.9001,4.9001,4.9001,4.9001,4.9001,4.9001,4.9001,4.9001,4.9001,4.9001,4.9001,4.9001,4.9001,4.9001,4.9001,4.9001,4.9001,4.9001,4.9001,4.9001,4.9001,4.9001,4.9001,4.9001,4.9001,4.9001,4.9001,4.9001,4.9001,4.9001,4.9001,4.9001,4.9001,4.9001,4.9001,4.9001,4.9001,4.9001,4.9001,4.9001,4.9001,4.9001,4.9001,4.9001,4.9001,4.9001,4.9001,4.9001,4.9001,4.9001,4.9001,4.9001,4.9001,4.9001,4.9001,4.9001,4.9001,4.9001,4.9001,4.9001,4.9001,4.9001,4.9001,4.8513,4.837,4.0909,4.1509,4.2063,4.4002,4.4526,0.0,4.6203,4.5972,4.5695,4.6372,0.0,4.5789,4.6363,4.5977,4.5841,0.0,0.0,0.0,0.0,0.0,4.9001,0.0,0.0,0.0,0.0,0.0,0.0,0.0,0.0,0.0,0.0,4.9001,4.9001,4.9001,4.9001,4.9001,4.9001,4.9001,4.9001,4.9001,4.9001,4.9001,4.9001,4.9001,4.9001,4.9001,4.9001,4.9001,4.9001,4.9001,4.9001,4.9001,4.9001,4.9001,4.9001,4.9001,4.9001,4.9001,4.9001,4.9001,4.9001,4.9001,4.9001,4.9001,4.9001,4.9001,4.9001,4.9001,4.9001,4.9001,4.9001,4.9001,4.9001,4.9001,4.9001,4.9001,4.9001,4.9001,4.9001,4.9001,4.9001,4.9001,4.9001,4.9001,4.9001,4.9001,4.9001,4.9001,4.9001,4.9001,4.9001,4.9001,4.9001,4.9001,4.9001,4.9001,4.9001,4.9001,4.9001,4.9001,4.9001,4.9001,4.9001,4.9001,4.9001,4.9001,4.9001,4.9001,4.9001,4.9001,4.9001,4.9001,3.9985,4.077,4.1955,4.3417,4.4187,4.4787,4.5618,4.528,4.4987,4.5664,4.5695,4.5496,4.5108,4.4951,4.4858,0.0,0.0,0.0,0.0,0.0,0.0,0.0,0.0,0.0,0.0,0.0,0.0,0.0,0.0,0.0,4.9001,4.9001,4.9001,4.9001,4.9001,4.9001,4.9001,4.9001,4.9001,0.0,4.9001,4.9001,4.9001,4.9001,4.9001,4.9001,4.9001,4.9001,4.9001,4.9001,4.9001,4.9001,4.9001,4.9001,4.9001,4.9001,4.9001,4.9001,4.9001,4.9001,4.9001,4.9001,4.9001,4.9001,4.9001,4.9001,4.9001,4.9001,4.9001,4.9001,4.9001,4.9001,4.9001,4.9001,4.9001,4.9001,4.9001,4.9001,4.9001,4.9001,4.9001,4.9001,4.9001,4.9001,4.9001,4.9001,4.9001,4.9001,4.9001,4.9001,4.9001,4.9001,4.9001,4.9001,4.9001,4.9001,4.9001,4.9001,4.9001,4.9001,4.9001,4.9001,4.9001,4.9001,4.9001,4.9001,4.9001,4.9001,4.9001,4.9001,4.9001,4.9001,4.0739,4.1524,4.2402,4.3725,0.0,4.4664,4.5018,4.4833,4.4679,4.5033,4.511,4.4987,4.4633,4.4572,4.4723,4.5067,0.0,0.0,0.0,0.0,0.0,0.0,0.0,0.0,0.0,0.0,0.0,0.0,0.0,4.9001,4.9001,4.9001,4.9001,4.9001,4.9001,4.9001,4.9001,4.9001,4.9001,4.9001,4.9001,4.9001,4.9001,4.9001,4.9001,4.9001,4.9001,4.9001,4.9001,4.9001,4.9001,4.9001,4.9001,4.9001,4.9001,4.9001,4.9001,4.9001,4.9001,4.9001,4.9001,4.9001,4.9001,4.9001,4.9001,4.9001,4.9001,4.9001,4.9001,4.9001,4.9001,4.9001,4.9001,4.9001,4.9001,4.9001,4.9001,4.9001,4.9001,4.9001,4.9001,4.9001,4.9001,4.9001,4.9001,4.9001,4.9001,4.9001,4.9001,4.9001,4.9001,4.9001,4.9001,4.9001,4.9001,4.9001,4.9001,4.9001,4.9001,4.9001,4.9001,4.9001,4.9001,4.9001,4.9001,4.9001,4.9001,4.9001,4.9001,4.9001,4.9001,4.9001,4.1278,4.2248,4.2925,4.4249,4.4572,0.0,4.4572,4.4572,4.4572,4.4572,4.4572,4.4572,4.4572,4.4572,4.4858,4.5551,4.6324,0.0,0.0,0.0,0.0,0.0,0.0,0.0,0.0,0.0,0.0,0.0,0.0,4.9001,4.9001,4.9001,4.9001,4.9001,4.9001,4.9001,4.9001,4.9001,4.9001,4.9001,4.9001,4.9001,4.9001,4.9001,4.9001,4.9001,4.9001,4.9001,4.9001,4.9001,4.9001,4.9001,4.9001,4.9001,4.9001,4.9001,4.9001,4.9001,4.9001,4.9001,4.9001,4.9001,4.9001,4.9001,4.9001,4.9001,4.9001,4.9001,4.9001,4.9001,4.9001,4.9001,4.9001,4.9001,4.9001,4.9001,4.9001,4.9001,4.9001,4.9001,4.9001,4.9001,4.9001,4.9001,4.9001,4.9001,4.9001,4.9001,4.9001,4.9001,4.9001,4.9001,4.9001,4.9001,4.9001,4.9001,4.9001,4.9001,4.9001,4.9001,4.9001,4.9001,4.9001,4.9001,4.9001,4.9001,4.9001,4.9001,4.9001,4.9001,4.9001,4.9001,3.8954,4.0801,4.2925,4.4249,4.4572,4.4572,0.0,0.0,4.4572,0.0,4.4572,4.4572,4.4572,4.4572,4.4858,4.5551,4.6324,4.7085,4.7819,0.0,0.0,0.0,0.0,0.0,0.0,0.0,0.0,0.0,4.9001,4.9001,4.9001,4.9001,4.9001,4.9001,4.9001,4.9001,4.9001,4.9001,4.9001,4.9001,4.9001,4.9001,4.9001,4.9001,4.9001,4.9001,4.9001,4.9001,4.9001,4.9001,4.9001,4.9001,4.9001,4.9001,4.9001,4.9001,4.9001,4.9001,4.9001,4.9001,4.9001,4.9001,4.9001,4.9001,4.9001,4.9001,4.9001,4.9001,4.9001,4.9001,4.9001,4.9001,4.9001,4.9001,4.9001,4.9001,4.9001,4.9001,4.9001,4.9001,4.9001,4.9001,4.9001,4.9001,4.9001,4.9001,4.9001,4.9001,4.9001,4.9001,4.9001,4.9001,4.9001,4.9001,4.9001,4.9001,4.9001,4.9001,4.9001,4.9001,4.9001,4.9001,4.9001,4.9001,4.9001,4.9001,4.9001,4.9001,4.9001,4.9001,4.9001,4.9001,3.9831,4.1401,4.2925,4.4249,4.4572,4.4572,4.4572,4.4572,4.4572,4.4572,4.4572,4.4572,4.4572,4.4933,4.562,4.6765,4.7533,4.8298,4.9053,4.9405,4.9458,4.9052,0.0,0.0,0.0,0.0,0.0,0.0,4.9001,4.9001,4.9001,4.9001,4.9001,4.9001,4.9001,4.9001,4.9001,4.9001,4.9001,4.9001,4.9001,4.9001,4.9001,4.9001,4.9001,4.9001,4.9001,4.9001,4.9001,4.9001,4.9001,4.9001,4.9001,4.9001,4.9001,4.9001,4.9001,4.9001,4.9001,4.9001,4.9001,4.9001,4.9001,4.9001,4.9001,4.9001,4.9001,4.9001,4.9001,4.9001,4.9001,4.9001,4.9001,4.9001,4.9001,4.9001,4.9001,4.9001,4.9001,4.9001,4.9001,4.9001,4.9001,4.9001,4.9001,4.9001,4.9001,4.9001,4.9001,4.9001,4.9001,4.9001,4.9001,4.9001,4.9001,4.9001,4.9001,4.9001,4.9001,4.9001,4.9001,4.9001,4.9001,4.9001,4.9001,4.9001,4.9001,4.9001,4.9001,4.9001,4.9001,4.9001,4.0155,4.1309,4.2186,4.3694,4.4202,4.4372,0.0,0.0,4.4572,0.0,4.4572,4.4572,4.4572,4.5356,4.647,4.7907,4.8789,4.9543,5.0308,5.0371,5.0185,4.9627,4.956,4.9492,0.0,0.0,0.0,0.0,4.9001,4.9001,4.9001,4.9001,4.9001,4.9001,4.9001,4.9001,4.9001,4.9001,4.9001,4.9001,4.9001,4.9001,4.9001,4.9001,4.9001,4.9001,4.9001,4.9001,4.9001,4.9001,4.9001,4.9001,4.9001,4.9001,4.9001,4.9001,4.9001,4.9001,4.9001,4.9001,4.9001,4.9001,4.9001,4.9001,4.9001,4.9001,4.9001,4.9001,4.9001,4.9001,4.9001,4.9001,4.9001,4.9001,4.9001,4.9001,4.9001,4.9001,4.9001,4.9001,4.9001,4.9001,4.9001,4.9001,4.9001,4.9001,4.9001,4.9001,4.9001,4.9001,4.9001,4.9001,4.9001,4.9001,4.9001,4.9001,4.9001,4.9001,4.9001,4.9001,4.9063,4.9001,4.9001,4.9063,4.9001,4.9001,4.9001,4.9001,4.9001,4.9001,4.9063,4.89,3.8292,3.917,4.017,4.2202,4.3171,4.3787,0.0,0.0,4.4572,4.4572,4.4572,4.4572,4.4572,4.579,4.7245,4.8693,4.9558,5.0292,5.102,5.115,5.115,5.1099,5.1099,5.0828,5.0101,5.0033,0.0,0.0,4.9001,4.9001,4.9001,4.9001,4.9001,4.9001,4.9001,4.9001,4.9001,4.9001,4.9001,4.9001,4.9001,4.9001,4.9001,4.9001,4.9001,4.9001,4.9001,4.9001,4.9001,4.9001,4.9001,4.9001,4.9001,4.9001,4.9001,4.9001,4.9001,4.9001,4.9001,4.9001,4.9001,4.9001,4.9001,4.9001,4.9001,4.9001,4.9001,4.9001,4.9001,4.9001,4.9001,4.9001,4.9001,4.9001,4.9001,4.9001,4.9001,4.9001,4.9001,4.9001,4.9001,4.9001,4.9001,4.9001,4.9001,4.9001,4.9001,4.9001,4.9001,4.9001,4.9001,4.9001,4.9001,4.9001,4.9001,4.9001,4.9001,4.9001,4.9001,4.9063,4.9168,4.9063,4.9063,4.9168,4.9063,4.9001,4.9001,4.9001,4.9001,4.9001,4.9107,4.8751,3.8138,3.8692,3.937,4.1447,4.2463,4.3125,4.3787,4.4264,4.4572,4.4572,4.4572,4.4858,4.5841,4.6813,4.7852,4.8833,5.0423,5.1613,5.1845,5.1911,5.1742,5.1268,5.1217,5.1116,5.0845,5.0811,5.071,5.0439,0.0,5.0422,5.0422,5.0422,5.0422,5.0422,4.9949,4.9475,4.9001,4.9001,4.9001,4.9001,4.9001,4.9001,4.9001,4.9001,4.9001,4.9001,4.9001,4.9001,4.9001,4.9001,4.9001,4.9001,4.9001,4.9001,4.9001,4.9001,4.9001,4.9001,4.9001,4.9001,4.9001,4.9001,4.9001,4.9001,4.9001,4.9001,4.9001,4.9001,4.9001,4.9001,4.9001,4.9001,4.9001,4.9001,4.9001,4.9001,4.9107,4.9063,4.9001,4.9001,4.9001,4.9001,4.9001,4.9001,4.9001,4.9001,4.9046,4.9124,4.9001,4.9063,4.9124,4.9001,4.9063,4.9107,4.9001,4.9185,4.9246,4.9107,4.9246,4.9367,4.9411,4.9367,4.9367,4.9411,4.8907,4.877,4.9107,4.9107,4.8931,4.8609,4.8652,4.8243,3.7584,3.8,3.8662,4.0724,4.1586,4.2263,4.3602,4.4079,4.431,4.4526,4.4783,4.529,4.6253,4.7448,4.858,4.9595,5.1396,5.2706,5.2706,5.2469,5.2232,5.2012,5.1742,5.1589,5.1589,5.1589,5.1488,5.1234,5.1217,0.0,5.1217,5.1217,5.1217,5.1217,5.0473,4.9847,4.9373,4.912,4.9001,4.9001,4.9001,4.9001,4.9001,4.9001,4.9001,4.9001,4.9001,4.9001,4.9001,4.9001,4.9001,4.9001,4.9001,4.9001,4.9001,4.9001,4.9001,4.9001,4.9001,4.9001,4.9001,4.9001,4.9001,4.9001,4.9001,4.9001,4.9001,4.9001,4.9001,4.9001,4.9001,4.9001,4.9001,4.9063,4.9063,4.9124,4.929,4.9185,4.9063,4.9063,4.9124,4.9124,4.9063,4.9124,4.9185,4.9185,4.9229,4.929,4.9185,4.9246,4.929,4.9185,4.9246,4.9229,4.9185,4.9367,4.9428,4.929,4.9428,4.9547,4.9547,4.953,4.9428,4.9171,4.8692,4.8497,4.8618,4.8541,4.8345,4.8001,4.8077,4.7786,0.0,0.0,0.0,0.0,0.0,0.0,4.3848,0.0,4.371,4.4478,4.5184,4.5665,4.5753,4.7517,4.951,5.0919,5.2452,5.3433,5.3433,5.2756,5.2553,5.3348,5.2739,5.2283,5.23,5.23,5.2012,5.1336,5.1285,5.1285,5.1285,5.1285,5.1268,5.1217,5.0524,5.0135,5.0084,4.9407,4.9069,4.9069,4.9069,4.9069,4.9069,4.9069,4.9069,4.9069,4.9035,4.9035,4.9035,4.9018,4.9001,4.9001,4.9001,4.9001,4.9001,4.9001,4.9001,4.9001,4.9001,4.9001,4.9001,4.9001,4.9001,4.9001,4.9001,4.9001,4.9001,4.9001,4.9001,4.9001,4.9001,4.9001,4.9063,4.9168,4.9229,4.929,4.9471,4.935,4.9229,4.9229,4.935,4.9411,4.9229,4.935,4.9488,4.9488,4.9488,4.9488,4.9488,4.9488,4.9488,4.9488,4.9488,4.9488,4.9488,4.9488,4.9488,4.9488,4.9488,4.959,4.9708,4.9573,4.923,4.8627,4.846,4.8083,4.7477,4.729,4.7199,4.7182,4.7369,4.7442,3.6492,0.0,0.0,0.0,0.0,0.0,0.0,0.0,4.2592,4.4288,4.4811,4.5435,4.7039,4.8215,4.9326,5.0227,5.1217,5.186,5.186,5.1657,5.1606,5.1826,5.1657,5.1725,5.2249,5.23,5.2469,0.0,5.2875,5.2875,5.2875,5.2875,5.2367,5.1251,5.1522,5.1183,5.0101,5.0439,5.0608,5.0608,5.0608,5.0608,5.0608,5.0608,5.0608,5.0574,5.0033,4.9796,4.9746,4.9221,4.9001,4.9001,4.9001,4.9001,4.9001,4.9001,4.9001,4.9001,4.9001,4.9001,4.9001,4.9001,4.9001,4.9001,4.9001,4.9001,4.9001,4.9001,4.9001,4.9001,4.9001,4.9063,4.9168,4.9168,4.929,4.9471,4.959,4.959,4.953,4.9428,4.935,4.929,4.9411,4.9471,4.9488,4.9488,4.959,4.959,4.9488,4.959,4.959,4.9488,4.9607,4.9607,4.9488,4.9742,4.9801,4.9649,4.9801,4.9877,4.9935,4.9326,4.8931,4.8764,4.7657,4.7021,4.6869,4.7236,4.7202,4.678,4.6212,4.6008,3.6492,3.6692,0.0,0.0,0.0,0.0,4.127,4.1937,4.2613,0.0,4.5628,4.6445,4.7671,4.851,4.915,4.9565,5.0253,5.0862,5.1166,5.0947,5.0862,5.1183,5.0947,5.1031,5.1775,5.1843,5.2046,5.252,5.2553,5.2553,5.2553,5.2841,5.2604,5.1708,5.208,5.1894,5.1031,5.115,5.1217,5.1217,5.1217,5.1217,5.12,5.0896,5.0744,5.071,4.9965,4.9644,4.961,4.9187,4.9001,4.9001,4.9001,4.9001,4.9001,4.9001,4.9001,4.9001,4.9001,4.9001,4.9001,4.9001,4.9001,4.9001,4.9001,4.9001,4.9001,4.9001,4.9063,4.9107,4.9185,4.9246,4.935,4.9411,4.9471,4.9607,4.9784,4.9784,4.9649,4.959,4.9547,4.9547,4.9607,4.9666,4.9683,4.9683,4.9801,4.9801,4.9742,4.9801,4.9801,4.9742,4.9801,4.9801,4.9742,4.9877,4.9797,4.9378,4.9436,4.9373,4.9062,4.8596,4.8217,4.7907,4.7044,4.6441,4.6113,4.6436,4.6436,4.6096,4.5648,4.5423,3.6507,3.6984,3.7769,0.0,3.8846,0.0,4.2265,4.2595,4.2817,0.0,4.6224,4.7226,4.7439,4.8072,4.8647,4.8562,4.9367,5.0257,5.0997,5.0507,5.0338,5.1014,5.0422,5.027,5.1014,5.1099,5.1116,5.1217,5.1217,5.1217,5.1217,5.1826,5.2181,5.2181,5.2266,5.23,5.23,5.1758,5.142,5.1336,5.1336,5.1302,5.12,5.0524,5.0219,5.0168,4.9441,4.912,4.912,4.9035,4.9001,4.9001,4.9001,4.9001,4.9001,4.9001,4.9001,4.9001,4.9001,4.9001,4.9001,4.9001,4.9001,4.9001,4.9001,4.9001,4.9001,4.9001,4.9107,4.929,4.9488,4.9488,4.9547,4.9649,4.9708,4.9784,4.9935,4.986,4.9708,4.9708,4.986,4.9935,4.9784,4.986,5.0011,5.0011,5.0011,5.0011,5.0011,5.0011,4.9976,4.989,4.9873,4.9838,4.9752,4.9752,4.9441,4.8734,4.87,4.8407,4.7751,4.7631,4.7286,4.6613,4.6527,4.613,4.5423,4.5423,4.5423,4.5423,4.5423,4.5423,3.6645,3.6984,3.743,3.7153,0.0,0.0,3.8673,3.8998,3.9757,0.0,4.2269,4.3202,4.4398,4.5587,4.6241,4.5734,4.7622,4.9458,5.0223,5.0185,5.0135,5.0287,4.9661,4.9509,5.0236,5.0304,5.0557,5.1166,5.1217,5.1217,5.1217,5.1352,5.142,5.142,5.1995,5.23,5.23,5.2807,5.2739,5.2097,5.2097,5.1775,5.1217,5.1065,5.0997,5.0947,5.0202,4.9881,4.983,4.9238,4.9001,4.9001,4.9001,4.9001,4.9001,4.9001,4.9001,4.9001,4.9001,4.9001,4.9001,4.9001,4.9001,4.9001,4.9001,4.9001,4.9001,4.9107,4.9307,4.9488,4.9488,4.959,4.9649,4.9708,4.9784,4.9935,5.0011,4.9935,4.9935,4.9935,4.986,4.9784,4.9935,4.9993,5.0011,5.0011,5.0011,5.0011,5.0011,5.0011,4.9769,4.9114,4.9045,4.8803,4.8217,4.8165,4.8096,4.7941,4.7924,4.7872,4.7717,4.7148,4.6751,4.6613,4.5975,4.5579,4.5423,4.5423,4.5423,4.5423,4.5423,4.5423,3.6676,3.6984,3.7507,3.7507,0.0,0.0,0.0,3.9745,4.0428,4.1885,4.2446,4.2929,4.3637,4.4607,4.529,4.5337,4.74,4.9147,4.948,5.0185,5.0507,5.0135,4.9763,4.9543,4.9543,4.9543,4.9695,5.0084,5.0118,5.0118,5.0118,5.0811,5.1217,5.1217,5.2317,5.2909,5.2909,5.2909,5.2706,5.23,5.1944,5.1572,5.12,5.0828,5.0862,5.115,5.0033,4.9746,5.0033,4.9306,4.9001,4.9001,4.9001,4.9001,4.9001,4.9001,4.9001,4.9001,4.9001,4.9001,4.9001,4.9001,4.9001,4.9001,4.9001,4.9063,4.9168,4.9411,4.953,4.959,4.9742,4.9801,4.986,4.986,4.9935,5.0011,5.0011,5.0011,5.0011,5.0011,4.9608,4.9275,4.9407,4.9735,4.9873,4.9476,4.9407,4.9407,4.9407,4.9097,4.8717,4.8303,4.8269,4.8114,4.7751,4.7717,4.7562,4.7182,4.7165,4.6993,4.6596,4.6217,4.601,4.601,4.563,4.5423,4.5423,4.5423,4.5423,4.5423,4.5423,4.5423,0.0,0.0,0.0,0.0,0.0,3.904,0.0,0.0,0.0,4.243,4.2864,0.0,0.0,0.0,0.0,0.0,0.0,0.0,0.0,4.9784,0.0,4.9949,4.9881,4.9644,4.9069,4.8883,4.8849,4.8984,4.8883,4.8849,4.9001,5.0135,5.0862,5.0997,5.2334,5.3129,5.3264,5.2621,5.2232,5.208,5.1352,5.093,5.0777,5.0152,5.0202,5.0727,4.9526,4.934,4.983,4.9255,4.9001,4.9001,4.9001,4.9001,4.9001,4.9001,4.9001,4.9001,4.9001,4.9001,4.9001,4.9001,4.9001,4.9063,4.9063,4.9168,4.9316,4.9478,4.9605,4.975,4.9746,4.9769,4.9769,4.9769,4.9666,4.9614,4.9752,4.9769,4.9821,4.9976,4.9373,4.8821,4.8821,4.9235,4.9355,4.87,4.8614,4.8614,4.8614,4.8079,4.7665,4.751,4.751,4.7441,4.7286,4.7269,4.701,4.6424,4.6372,4.6096,4.5458,4.5423,4.5423,4.5423,4.5423,4.5423,4.5423,4.5423,4.5423,4.5423,4.5423,4.5476,0.0,0.0,0.0,0.0,3.8077,0.0,0.0,0.0,3.887,3.9079,0.0,0.0,0.0,0.0,0.0,0.0,0.0,0.0,4.6184,4.7922,4.9221,4.9137,4.912,4.9086,4.9018,4.8426,4.8308,4.8951,4.8409,4.8325,4.8968,4.9171,4.9543,5.0202,5.1031,5.1792,5.2435,5.235,5.1978,5.1336,5.0574,4.9881,4.9255,4.9171,4.9171,4.9238,4.9069,4.9052,4.912,4.9035,4.9001,4.9001,4.9001,4.9001,4.9001,4.9001,4.9001,4.9001,4.9001,4.9001,4.9001,4.9001,4.9063,4.9168,4.9168,4.9411,4.9512,4.8918,4.9344,4.978,4.9148,4.8959,4.8959,4.8959,4.8459,4.8148,4.8821,4.8959,4.9166,4.9873,4.9373,4.8821,4.8821,4.8355,4.7941,4.7855,4.7838,4.7838,4.7838,4.7769,4.7458,4.6803,4.6734,4.6458,4.5751,4.5682,4.5648,4.5561,4.5561,4.5527,4.5423,4.5423,4.5423,4.5423,4.5423,4.5476,4.5581,4.5581,4.5581,4.5581,4.5581,4.5632,0.0,0.0,0.0,0.0,0.0,0.0,3.8708,0.0,3.8616,0.0,0.0,0.0,0.0,0.0,0.0,0.0,4.4544,0.0,0.0,0.0,4.7885,0.0,0.0,0.0,4.8376,4.8105,4.8223,4.8951,4.8342,4.824,4.8968,4.9407,4.9779,5.0084,5.0828,5.1369,5.1674,5.1234,5.0862,5.0557,4.9813,4.9306,4.9001,4.9001,4.9238,4.961,4.9187,4.9238,4.961,4.9187,4.9001,4.9001,4.9001,4.9001,4.9001,4.9001,4.9001,4.9001,4.9001,4.9001,4.9001,4.9124,4.888,4.86,4.8779,4.8648,4.8369,4.8156,4.8368,4.8596,4.8269,4.8183,4.8183,4.8183,4.7941,4.7803,4.8114,4.8183,4.8269,4.8614,4.8062,4.7527,4.7527,4.7631,4.7562,4.7148,4.7079,4.7079,4.7079,4.6665,4.6268,4.5958,4.5924,4.5786,4.5458,4.5423,4.5423,4.5423,4.5423,4.5423,4.5423,4.5476,4.5528,4.5528,4.5581,4.5667,4.5736,4.597,4.6151,4.6217,4.5854,4.5736,3.6676,0.0,0.0,0.0,0.0,0.0,0.0,0.0,0.0,0.0,0.0,0.0,0.0,0.0,0.0,0.0,0.0,4.5162,0.0,4.5855,0.0,0.0,0.0,0.0,0.0,4.7851,4.8003,4.8934,4.8139,4.802,4.8951,4.9509,4.9796,4.9796,5.0507,5.0913,5.0913,5.0371,5.0084,5.0084,4.9357,4.9001,4.9001,4.9001,4.9289,4.9763,4.9238,4.9187,4.9475,4.9137,4.8883,4.8731,4.8934,4.9001,4.9001,4.9001,4.9001,4.9001,4.9001,4.9001,4.9029,4.8931,4.8566,4.8209,4.8312,4.7923,4.7516,4.742,4.7562,4.7665,4.7458,4.7424,4.7424,4.7424,4.7251,4.7148,4.7372,4.7424,4.7476,4.7683,4.7113,4.6613,4.6613,4.6872,4.6906,4.6372,4.6286,4.6286,4.6286,4.5786,4.5423,4.5423,4.5423,4.5423,4.5423,4.5423,4.5476,4.5476,4.5476,4.5476,4.5476,4.5563,4.5667,4.5667,4.5854,4.5988,4.6038,4.6519,4.6827,4.6936,4.6489,4.6266,0.0,0.0,0.0,3.6692,0.0,0.0,0.0,0.0,3.8708,0.0,0.0,0.0,0.0,0.0,0.0,0.0,0.0,0.0,0.0,0.0,0.0,0.0,0.0,0.0,0.0,4.7665,4.7428,0.0,4.7665,4.7462,4.8917,4.9018,4.9035,4.9035,4.9746,5.0135,5.0135,5.0101,5.0084,5.0084,4.9357,4.9001,4.9001,4.9001,4.9018,4.9035,4.9018,4.8612,4.8037,4.8731,4.8595,4.802,4.8731,4.9001,4.9001,4.9001,4.9001,4.9001,4.9001,4.9046,4.905,4.8354,4.8336,4.8472,4.7751,4.7623,4.7562,4.6837,4.7165,4.7562,4.6837,4.6648,4.6648,4.6648,4.6061,4.5717,4.6475,4.6648,4.6855,4.7579,4.7113,4.6613,4.6613,4.5992,4.5492,4.5458,4.5458,4.5458,4.5458,4.5441,4.5423,4.5423,4.5423,4.5423,4.5423,4.5528,4.5563,4.5563,4.5563,4.5563,4.5563,4.5718,4.577,4.577,4.6249,4.6566,4.666,4.7124,4.7446,4.7591,4.7446,4.7446,0.0,0.0,3.7338,3.6661,0.0,0.0,0.0,0.0,0.0,0.0,0.0,0.0,0.0,0.0,0.0,0.0,0.0,0.0,0.0,0.0,0.0,0.0,0.0,0.0,0.0,0.0,0.0,0.0,4.7361,0.0,4.8917,4.9001,4.9001,4.9001,4.9238,4.9373,4.9373,4.9373,4.9373,4.9357,4.8629,4.8545,4.8968,4.7986,4.7817,4.8257,4.775,4.7394,4.7192,4.7428,4.7394,4.7192,4.7445,4.7851,4.8342,4.8832,4.9001,4.9001,4.9107,4.8846,4.8464,4.8446,4.7809,4.7065,4.6935,4.6559,4.6148,4.5906,4.601,4.6148,4.5889,4.582,4.582,4.582,4.563,4.5492,4.5768,4.582,4.5906,4.6148,4.601,4.582,4.582,4.5596,4.5423,4.5423,4.5423,4.5423,4.5423,4.5423,4.5423,4.5423,4.5476,4.5476,4.5423,4.5528,4.5632,4.5736,4.602,4.62,4.62,4.6346,4.6519,4.6873,4.6799,4.6936,4.7291,4.7775,4.8035,4.8075,4.8383,4.8174,3.6492,3.6815,0.0,3.6599,3.6815,0.0,3.7138,0.0,0.0,0.0,0.0,0.0,0.0,0.0,0.0,4.3504,0.0,0.0,0.0,4.3115,0.0,0.0,0.0,0.0,0.0,0.0,4.6938,4.8206,4.7361,0.0,0.0,4.9001,4.9001,4.9001,4.9001,4.9001,4.9001,4.9001,4.9001,4.9001,4.8257,4.8173,4.8578,4.7344,4.7056,4.7479,4.7005,4.665,4.643,4.6684,4.665,4.643,4.6684,4.709,4.7581,4.8037,4.8223,4.8223,4.8388,4.8124,4.7682,4.7775,4.7116,4.6258,4.6197,4.5837,4.5423,4.5423,4.5423,4.5423,4.5423,4.5423,4.5423,4.5423,4.5423,4.5423,4.5423,4.5423,4.5423,4.5423,4.5423,4.5423,4.5423,4.5423,4.5423,4.5423,4.5423,4.5423,4.5423,4.5423,4.5423,4.5423,4.5528,4.5615,4.5615,4.5803,4.5988,4.6137,4.6548,4.6809,4.6809,4.6963,4.7142,4.7488,4.7421,4.7567,4.7856,4.8326,4.8587,4.8587,4.8962,4.8785]},{"header":{"parameterUnit":"m.s-1","parameterCategory":1,"la1":30.6,"la2":29.2853,"lo1":-89.7004,"lo2":-87.6739,"dy":0.0162,"dx":0.0183,"nx":112,"ny":82,"refTime":"2024-09-01T18:00:00:Z","depth":0,"parameterNumber":3,"parameterNumberName":"V-component_of_WINDS"},"data":[0.0,0.0,0.0,0.0,0.0,0.0,0.0,0.0,0.0,0.0,0.0,0.0,0.0,0.0,0.0,0.0,0.0,0.0,0.0,0.0,0.0,0.0,0.0,0.0,0.0,0.0,0.0,0.0,0.0,0.0,0.0,0.0,0.0,0.0,0.0,0.0,0.0,0.0,0.0,0.0,0.0,0.0,0.0,0.0,0.0,0.0,0.0,0.0,0.0,0.0,0.0,0.0,0.0,0.0,0.0,0.0,0.0,0.0,0.0,0.0,0.0,0.0,0.0,0.0,0.0,0.0,0.0,0.0,0.0,0.0,0.0,0.0,0.0,0.0,0.0,0.0,0.0,0.0,0.0,0.0,0.0,0.0,0.0,0.0,0.0,0.0,0.0,0.0,0.0,0.0,0.0,1.3362,1.3618,1.3484,1.2668,1.3309,1.3559,1.2905,0.0,0.0,0.0,0.0,0.0,0.0,0.0,0.0,0.0,0.0,0.0,0.0,0.0,0.0,0.0,0.0,0.0,0.0,0.0,0.0,0.0,0.0,0.0,0.0,0.0,0.0,0.0,0.0,0.0,0.0,0.0,0.0,0.0,0.0,0.0,0.0,0.0,0.0,0.0,0.0,0.0,0.0,0.0,0.0,0.0,0.0,0.0,0.0,0.0,0.0,0.0,0.0,0.0,0.0,0.0,0.0,0.0,0.0,0.0,0.0,0.0,0.0,0.0,0.0,0.0,0.0,0.0,0.0,0.0,0.0,0.0,0.0,0.0,0.0,0.0,0.0,0.0,0.0,0.0,0.0,0.0,0.0,0.0,0.0,0.0,0.0,0.0,0.0,0.0,0.0,0.0,0.0,0.0,0.0,0.0,0.0,0.0,0.0,0.0,0.0,0.0,0.0,0.0,0.0,1.3,1.2535,1.2514,1.2365,1.1972,1.2322,1.2519,1.2425,0.0,0.0,0.0,0.0,0.0,0.0,0.0,0.0,0.0,0.0,0.0,0.0,0.0,0.0,0.0,0.0,0.0,0.0,0.0,0.0,0.0,0.0,0.0,0.0,0.0,0.0,0.0,0.0,0.0,0.0,0.0,0.0,0.0,0.0,0.0,0.0,0.0,0.0,0.0,0.0,0.0,0.0,0.0,0.0,0.0,0.0,0.0,0.0,0.0,0.0,0.0,0.0,0.0,0.0,0.0,0.0,0.0,0.0,0.0,0.0,0.0,0.0,0.0,0.0,0.0,0.0,0.0,0.0,0.0,0.0,0.0,0.0,0.0,0.0,0.0,0.0,0.0,0.0,0.0,0.0,0.0,0.0,0.0,0.0,0.0,0.0,0.0,0.0,0.0,0.0,0.0,0.0,0.0,0.0,0.0,0.0,0.0,0.0,0.0,0.0,0.0,0.0,0.0,1.3273,1.3332,1.3048,1.2978,1.2864,1.2584,1.2679,1.2628,1.2335,1.2209,0.0,0.0,0.0,0.0,0.0,0.0,0.0,0.0,0.0,0.0,0.0,0.0,0.0,0.0,0.0,0.0,0.0,0.0,0.0,0.0,0.0,0.0,0.0,0.0,0.0,0.0,0.0,0.0,0.0,0.0,0.0,0.0,0.0,0.0,0.0,0.0,0.0,0.0,0.0,0.0,0.0,0.0,0.0,0.0,0.0,0.0,0.0,0.0,0.0,0.0,0.0,0.0,0.0,0.0,0.0,0.0,0.0,0.0,0.0,0.0,0.0,0.0,0.0,0.0,0.0,0.0,0.0,0.0,0.0,0.0,0.0,0.0,0.0,0.0,0.0,0.0,0.0,0.0,0.0,0.0,0.0,0.0,0.0,0.0,0.0,0.0,0.0,0.0,0.0,0.0,0.0,0.0,0.0,0.0,0.0,0.0,0.0,0.0,0.0,0.0,0.0,0.0,1.3661,1.3694,1.3554,1.354,1.3394,1.3026,1.2999,1.2797,1.2241,1.2045,0.0,0.0,0.0,0.0,0.0,0.0,0.0,0.0,0.0,0.0,0.0,0.0,0.0,0.0,0.0,0.0,0.0,0.0,0.0,0.0,0.0,0.0,0.0,0.0,0.0,0.0,0.0,0.0,0.0,0.0,0.0,0.0,0.0,0.0,0.0,0.0,0.0,0.0,0.0,0.0,0.0,0.0,0.0,0.0,0.0,0.0,0.0,0.0,0.0,0.0,0.0,0.0,0.0,0.0,0.0,0.0,0.0,0.0,0.0,0.0,0.0,0.0,0.0,0.0,0.0,0.0,0.0,0.0,0.0,0.0,0.0,0.0,0.0,0.0,0.0,0.0,0.0,0.0,0.0,0.0,0.0,0.0,0.0,0.0,0.0,0.0,0.0,0.0,0.0,0.0,0.0,0.0,0.0,0.0,0.0,0.0,0.0,0.0,0.0,0.0,0.0,0.0,1.3721,1.3848,1.33,1.324,1.3006,1.2412,1.2365,1.2177,1.1772,1.1867,0.0,0.0,0.0,0.0,0.0,0.0,0.0,0.0,0.0,0.0,0.0,0.0,0.0,0.0,0.0,0.0,0.0,0.0,0.0,0.0,0.0,0.0,0.0,0.0,0.0,0.0,0.0,0.0,0.0,0.0,0.0,0.0,0.0,0.0,0.0,0.0,0.0,0.0,0.0,0.0,0.0,0.0,0.0,0.0,0.0,0.0,0.0,0.0,0.0,0.0,0.0,0.0,0.0,0.0,0.0,0.0,0.0,0.0,0.0,0.0,0.0,0.0,0.0,0.0,0.0,0.0,0.0,0.0,0.0,0.0,0.0,0.0,0.0,0.0,0.0,0.0,0.0,0.0,0.0,0.0,0.0,0.0,0.0,0.0,0.0,0.0,0.0,0.0,0.0,0.0,0.0,0.0,0.0,0.0,0.0,0.0,0.0,0.0,0.0,0.0,0.0,0.0,1.3871,1.3661,0.0,1.3213,1.2966,1.2351,1.2305,1.2195,1.1874,0.0,0.0,0.0,0.0,0.0,0.0,0.0,0.0,0.0,0.0,0.0,0.0,0.0,0.0,0.0,0.0,0.0,0.0,0.0,0.0,0.0,0.0,0.0,0.0,0.0,0.0,0.0,0.0,0.0,0.0,0.0,0.0,0.0,0.0,0.0,0.0,0.0,0.0,0.0,0.0,0.0,0.0,0.0,0.0,0.0,0.0,0.0,0.0,0.0,0.0,0.0,0.0,0.0,0.0,0.0,0.0,0.0,0.0,0.0,0.0,0.0,0.0,0.0,0.0,0.0,0.0,0.0,0.0,0.0,0.0,0.0,0.0,0.0,0.0,0.0,0.0,0.0,0.0,0.0,0.0,0.0,0.0,0.0,0.0,0.0,0.0,0.0,0.0,0.0,0.0,0.0,0.0,0.0,0.0,0.0,0.0,0.0,0.0,0.0,0.0,0.0,0.0,1.4458,1.4086,1.3634,0.0,1.3213,1.2966,1.2351,1.2218,1.2094,1.1929,0.0,0.0,0.0,0.0,0.0,0.0,0.0,0.0,0.0,0.0,0.0,0.0,0.0,0.0,0.0,0.0,0.0,0.0,0.0,0.0,0.0,0.0,0.0,0.0,0.0,0.0,0.0,0.0,0.0,0.0,0.0,0.0,0.0,0.0,0.0,0.0,0.0,0.0,0.0,0.0,0.0,0.0,0.0,0.0,0.0,0.0,0.0,0.0,0.0,0.0,0.0,0.0,0.0,0.0,0.0,0.0,0.0,0.0,0.0,0.0,0.0,0.0,0.0,0.0,0.0,0.0,0.0,0.0,0.0,0.0,0.0,0.0,0.0,0.0,0.0,0.0,0.0,0.0,0.0,0.0,0.0,0.0,0.0,0.0,0.0,0.0,0.0,0.0,0.0,0.0,0.0,0.0,0.0,0.0,0.0,0.0,0.0,0.0,0.0,0.0,0.0,0.0,1.4248,1.4185,1.3861,1.3273,1.3213,1.2966,1.2351,1.2037,1.1884,0.0,0.0,0.0,0.0,0.0,0.0,0.0,0.0,0.0,0.0,0.0,0.0,0.0,0.0,0.0,0.0,0.0,0.0,0.0,0.0,0.0,0.0,0.0,0.0,0.0,0.0,0.0,0.0,0.0,0.0,0.0,0.0,0.0,0.0,0.0,0.0,0.0,0.0,0.0,0.0,0.0,0.0,0.0,0.0,0.0,0.0,0.0,0.0,0.0,0.0,0.0,0.0,0.0,0.0,0.0,0.0,0.0,0.0,0.0,0.0,0.0,0.0,0.0,0.0,0.0,0.0,0.0,0.0,0.0,0.0,0.0,0.0,0.0,0.0,0.0,0.0,0.0,0.0,0.0,0.0,0.0,0.0,0.0,0.0,0.0,0.0,0.0,0.0,0.0,0.0,0.0,0.0,0.0,0.0,0.0,0.0,0.0,0.0,0.0,0.0,0.0,0.0,0.0,1.5378,1.4667,1.3861,1.3273,1.3213,1.2966,1.2351,1.2225,1.2101,1.1936,0.0,0.0,0.0,0.0,0.0,0.0,0.0,0.0,0.0,0.0,0.0,0.0,0.0,0.0,0.0,0.0,0.0,0.0,0.0,0.0,0.0,0.0,0.0,0.0,0.0,0.0,0.0,0.0,0.0,0.0,0.0,0.0,0.0,0.0,0.0,0.0,0.0,0.0,0.0,0.0,0.0,0.0,0.0,0.0,0.0,0.0,0.0,0.0,0.0,0.0,0.0,0.0,0.0,0.0,0.0,0.0,0.0,0.0,0.0,0.0,0.0,0.0,0.0,0.0,0.0,0.0,0.0,0.0,0.0,0.0,0.0,0.0,0.0,0.0,0.0,0.0,0.0,0.0,0.0,0.0,0.0,0.0,0.0,0.0,0.0,0.0,0.0,0.0,0.0,0.0,0.0,0.0,0.0,0.0,0.0,0.0,0.0,0.0,0.0,0.0,0.0,0.0,1.5867,1.483,1.3861,1.3273,1.3213,1.2966,1.2351,1.2305,1.2195,1.1874,0.0,0.0,0.0,0.0,0.0,0.0,0.0,0.0,0.0,0.0,0.0,0.0,0.0,0.0,0.0,0.0,0.0,0.0,0.0,0.0,0.0,0.0,0.0,0.0,0.0,0.0,0.0,0.0,0.0,0.0,0.0,0.0,0.0,0.0,0.0,0.0,0.0,0.0,0.0,0.0,0.0,0.0,0.0,0.0,0.0,0.0,0.0,0.0,0.0,0.0,0.0,0.0,0.0,0.0,0.0,0.0,0.0,0.0,0.0,0.0,0.0,0.0,0.0,0.0,0.0,0.0,0.0,0.0,0.0,0.0,0.0,0.0,0.0,0.0,0.0,0.0,0.0,0.0,0.0,0.0,0.0,0.0,0.0,0.0,0.0,0.0,0.0,0.0,0.0,0.0,0.0,0.0,0.0,0.0,0.0,0.0,0.0,0.0,0.0,0.0,0.0,0.0,1.588,1.488,1.3895,1.328,1.3213,1.2966,1.2351,1.2305,1.2136,1.1778,0.0,0.0,0.0,0.0,0.0,0.0,0.0,0.0,0.0,0.0,0.0,0.0,0.0,0.0,0.0,0.0,0.0,0.0,0.0,0.0,0.0,0.0,0.0,0.0,0.0,0.0,0.0,0.0,0.0,0.0,0.0,0.0,0.0,0.0,0.0,0.0,0.0,0.0,0.0,0.0,0.0,0.0,0.0,0.0,0.0,0.0,0.0,0.0,0.0,0.0,0.0,0.0,0.0,0.0,0.0,0.0,0.0,0.0,0.0,0.0,1.6184,0.0,0.0,0.0,0.0,0.0,0.0,0.0,0.0,0.0,0.0,0.0,0.0,0.0,0.0,0.0,0.0,0.0,0.0,0.0,0.0,0.0,0.0,0.0,0.0,0.0,0.0,0.0,0.0,0.0,0.0,0.0,0.0,0.0,0.0,0.0,0.0,0.0,0.0,0.0,0.0,0.0,1.646,1.5274,1.4115,1.33,1.3213,1.3044,1.258,1.2378,1.2297,1.2213,1.1902,0.0,0.0,0.0,0.0,0.0,0.0,0.0,0.0,0.0,0.0,0.0,0.0,0.0,0.0,0.0,0.0,0.0,0.0,0.0,0.0,0.0,0.0,0.0,0.0,0.0,0.0,0.0,0.0,0.0,0.0,0.0,0.0,0.0,0.0,0.0,0.0,0.0,0.0,0.0,0.0,0.0,0.0,0.0,0.0,0.0,0.0,0.0,0.0,0.0,0.0,0.0,0.0,0.0,0.0,0.0,0.0,0.0,0.0,0.0,0.0,1.6708,0.0,0.0,0.0,0.0,0.0,0.0,0.0,0.0,0.0,0.0,0.0,0.0,0.0,0.0,0.0,0.0,0.0,0.0,0.0,0.0,0.0,0.0,0.0,0.0,0.0,0.0,0.0,0.0,0.0,0.0,0.0,0.0,0.0,0.0,0.0,0.0,0.0,0.0,0.0,0.0,1.6723,1.5808,1.4734,1.3561,1.3366,1.3169,1.2702,1.2533,1.2396,1.231,1.2144,0.0,0.0,0.0,0.0,0.0,0.0,0.0,0.0,0.0,0.0,0.0,0.0,0.0,0.0,0.0,0.0,0.0,0.0,0.0,0.0,0.0,0.0,0.0,0.0,0.0,0.0,0.0,0.0,0.0,0.0,0.0,0.0,0.0,0.0,0.0,0.0,0.0,0.0,0.0,0.0,0.0,0.0,0.0,0.0,0.0,0.0,0.0,0.0,0.0,0.0,0.0,0.0,0.0,2.1127,2.1147,2.0355,2.1147,2.0619,1.8988,1.7755,1.7054,1.6923,1.7883,0.0,0.0,0.0,0.0,0.0,0.0,0.0,0.0,0.0,0.0,0.0,0.0,0.0,0.0,0.0,0.0,0.0,0.0,0.0,0.0,0.0,0.0,0.0,0.0,2.2109,2.2324,2.125,0.0,0.0,0.0,0.0,0.0,0.0,0.0,0.0,0.0,0.0,0.0,1.7075,1.6474,1.5493,1.4083,1.3687,1.3379,1.3002,1.2777,1.257,1.2393,1.2395,1.2445,0.0,0.0,0.0,0.0,0.0,0.0,0.0,0.0,0.0,0.0,0.0,0.0,0.0,0.0,0.0,0.0,0.0,0.0,0.0,0.0,0.0,0.0,0.0,0.0,0.0,0.0,0.0,0.0,0.0,0.0,0.0,0.0,2.0265,2.0748,0.0,0.0,0.0,0.0,0.0,0.0,0.0,0.0,0.0,0.0,0.0,0.0,0.0,2.1593,2.1535,2.1146,2.0912,2.0952,2.0633,2.0355,2.0176,2.0193,2.0095,1.9988,1.9673,0.0,1.7218,1.7298,0.0,0.0,0.0,0.0,0.0,0.0,0.0,0.0,0.0,0.0,0.0,0.0,0.0,0.0,0.0,0.0,0.0,0.0,0.0,0.0,0.0,0.0,2.2959,2.29,2.2969,2.3008,0.0,2.1934,2.1113,2.0996,2.0664,0.0,0.0,0.0,0.0,0.0,0.0,0.0,1.8311,1.7103,1.5928,1.5153,1.4316,1.3698,1.3618,1.3,1.2732,1.3063,1.2513,1.259,1.3465,1.3028,0.0,0.0,0.0,0.0,0.0,0.0,0.0,0.0,0.0,0.0,0.0,0.0,0.0,0.0,0.0,0.0,0.0,0.0,0.0,0.0,0.0,0.0,0.0,0.0,0.0,0.0,0.0,0.0,0.0,1.9765,2.0941,2.0996,2.1428,2.166,0.0,0.0,0.0,0.0,0.0,0.0,0.0,0.0,0.0,2.1448,2.1268,2.1381,2.1796,2.1425,2.1244,2.1438,2.1701,2.1596,2.1051,2.1507,2.1418,2.1051,2.097,2.0142,1.8921,1.925,1.9514,1.9786,0.0,0.0,0.0,0.0,2.1503,2.1324,2.1207,2.1053,2.0833,2.081,0.0,0.0,0.0,0.0,0.0,0.0,0.0,0.0,0.0,0.0,2.3135,2.3135,2.3135,2.3135,2.3135,2.2695,2.2236,0.0,2.1797,2.1445,2.0771,0.0,0.0,0.0,0.0,1.9524,1.9174,1.8017,1.6818,1.5784,1.4823,1.4115,1.3804,1.3417,1.323,1.3207,1.2919,1.3119,1.3809,1.3482,1.3476,0.0,0.0,0.0,0.0,0.0,0.0,0.0,0.0,0.0,0.0,0.0,0.0,0.0,0.0,0.0,0.0,0.0,0.0,0.0,0.0,0.0,0.0,0.0,0.0,0.0,0.0,0.0,0.0,2.0493,2.137,2.1491,2.2036,2.251,0.0,0.0,0.0,0.0,0.0,0.0,2.2197,2.2207,2.1996,2.1603,2.141,2.1558,2.205,2.1854,2.1854,2.2059,2.2784,2.2687,2.2059,2.2775,2.2687,2.2059,2.2059,2.1596,2.0935,2.0925,2.0545,2.0245,2.1362,2.1504,2.1183,2.2026,2.2323,2.2275,2.1859,2.1695,2.1594,2.1256,2.0996,2.0969,2.1089,0.0,0.0,0.0,0.0,2.3008,2.3008,2.3408,2.381,2.381,2.3647,2.3484,2.3484,2.3309,2.3047,0.0,2.2676,2.2432,2.1689,0.0,0.0,0.0,0.0,2.0524,1.9996,1.8716,1.7513,1.6535,1.5353,1.4517,1.4115,1.3817,1.3647,1.341,1.3316,1.3453,1.4092,1.3947,1.399,1.4223,0.0,0.0,0.0,0.0,0.0,0.0,0.0,0.0,0.0,0.0,0.0,0.0,0.0,0.0,0.0,0.0,0.0,0.0,0.0,0.0,0.0,0.0,0.0,0.0,0.0,0.0,0.0,0.0,0.0,2.2911,2.2668,0.0,0.0,0.0,0.0,2.2451,2.248,2.2656,2.3057,2.3076,2.2999,2.3018,2.3018,2.3028,2.3047,2.3047,2.3047,2.3047,2.3047,2.3047,2.3047,2.3047,2.3047,2.3047,2.3047,2.296,2.2775,2.1025,2.0755,2.1569,2.1649,2.218,2.2892,2.2022,2.1756,2.1756,2.1686,2.1695,2.1863,2.2726,2.2716,2.2386,2.2432,2.2432,0.0,0.0,2.3343,2.4382,2.4382,2.5062,2.5652,2.5652,2.4988,2.4413,2.4413,2.3734,2.3135,0.0,2.3105,2.2969,2.2519,0.0,2.2314,2.1914,2.1302,2.0861,2.088,1.8976,1.7691,1.761,1.6009,1.4852,1.4838,1.4108,1.3748,1.396,1.3512,1.3554,1.4421,1.4443,1.4582,1.4889,1.4282,0.0,0.0,0.0,0.0,0.0,0.0,0.0,0.0,0.0,0.0,0.0,0.0,0.0,0.0,0.0,0.0,0.0,0.0,0.0,0.0,0.0,0.0,0.0,0.0,0.0,0.0,0.0,0.0,2.3076,2.3008,0.0,2.292,2.2783,2.2754,2.291,2.292,2.2978,2.3135,2.3135,2.3135,2.3135,2.3135,2.3135,2.3135,2.3135,2.3135,2.3135,2.3135,2.3135,2.3135,2.3135,2.3135,2.3135,2.3135,2.3135,2.3047,2.2325,2.1961,2.1784,2.2334,2.2413,2.2236,2.2511,2.2599,2.2599,2.2599,2.2599,2.2687,2.296,2.3037,2.292,2.292,2.292,2.292,2.292,2.3191,2.3734,2.4327,2.4744,2.5073,2.5652,2.5568,2.5158,2.4584,2.4241,2.382,2.3222,2.3135,2.3008,2.2588,2.2734,2.2773,2.2353,2.1841,2.1559,2.1559,1.9381,1.7925,1.7925,1.6285,1.5167,1.4962,1.4467,1.4125,1.3996,1.3601,1.3717,1.4443,1.4472,1.4714,1.5248,1.4823,1.4866,0.0,0.0,0.0,0.0,0.0,0.0,0.0,0.0,0.0,0.0,0.0,0.0,0.0,0.0,0.0,0.0,0.0,0.0,0.0,0.0,0.0,0.0,0.0,0.0,0.0,0.0,2.2666,2.3086,2.3135,2.3135,2.3135,2.3135,2.3135,2.3135,2.3135,2.3135,2.3135,2.3135,2.3135,2.3135,2.3135,2.3135,2.3135,2.3135,2.3135,2.3135,2.3135,2.3135,2.3135,2.3135,2.3135,2.3135,2.3135,2.3135,2.3135,2.3135,2.2687,2.2236,2.2872,2.2687,2.2236,2.2862,2.3135,2.3135,2.3135,2.3135,2.3135,2.3135,2.3135,2.3135,2.3135,2.3309,2.356,2.356,2.3983,2.4659,2.5253,2.5663,2.5997,2.6577,2.6494,2.608,2.5505,2.4914,2.4327,2.3734,2.3309,2.3047,2.2773,2.2959,2.3047,2.2764,2.2246,2.1885,2.1885,1.9878,1.8327,1.7997,1.6714,1.5659,1.5123,1.4714,1.4421,1.4311,1.3901,1.3953,1.4604,1.4523,1.4924,1.5816,1.5606,1.585,1.6563,0.0,0.0,0.0,0.0,0.0,0.0,0.0,0.0,0.0,0.0,0.0,0.0,0.0,0.0,0.0,0.0,0.0,0.0,0.0,0.0,0.0,0.0,0.0,2.3596,2.3038,2.2705,2.3115,2.3154,2.3154,2.3154,2.3144,2.3135,2.3135,2.3135,2.3135,2.3135,2.3135,2.3135,2.3135,2.3135,2.3135,2.3135,2.3135,2.3135,2.3135,2.3135,2.3144,2.3154,2.3154,2.3164,2.3184,2.3164,2.3154,2.3154,2.3144,2.3135,2.3135,2.3135,2.3135,2.3135,2.3135,2.3135,2.3135,2.3135,2.3135,2.3135,2.3135,2.3135,2.3144,2.3135,2.382,2.4498,2.4498,2.5841,2.7174,2.7174,2.7846,2.851,2.851,2.7846,2.7267,2.7185,2.5757,2.4488,2.4498,2.3734,2.3135,2.3135,2.3135,2.3135,2.3135,2.2422,0.0,2.1885,2.0382,1.8975,1.8158,1.7269,1.6378,1.5506,1.4925,1.4611,1.4926,1.4348,1.4289,1.4933,1.4662,1.5185,1.6714,1.6722,1.6952,1.7483,0.0,0.0,0.0,0.0,0.0,0.0,0.0,0.0,0.0,0.0,0.0,0.0,0.0,0.0,0.0,0.0,0.0,0.0,0.0,0.0,0.0,2.3732,2.3362,2.3256,2.3408,2.3477,2.3594,2.3613,2.3613,2.3613,2.332,2.3135,2.3135,2.3135,2.3135,2.3135,2.3135,2.3135,2.3135,2.3135,2.3135,2.3135,2.3135,2.3135,2.3135,2.3135,2.3301,2.3613,2.3613,2.3779,2.4053,2.374,2.3613,2.3584,2.3271,2.3135,2.3135,2.3135,2.3135,2.3135,2.3135,2.3135,2.3135,2.3135,2.3135,2.3135,2.3135,2.3135,2.3222,2.3907,2.4327,2.4659,2.5242,2.583,2.6329,2.701,2.7348,2.7684,2.8339,2.8351,2.7765,2.6494,2.583,2.5073,2.3724,2.3309,2.3135,2.3135,2.3135,2.3135,2.3135,2.2422,0.0,2.1885,1.9797,1.8487,1.8895,1.7594,1.6617,1.6378,1.5981,1.5454,1.4933,1.456,1.4626,1.527,1.5211,1.5861,1.7437,1.7795,1.8439,0.0,0.0,0.0,0.0,0.0,0.0,0.0,0.0,0.0,0.0,0.0,0.0,0.0,0.0,0.0,0.0,0.0,0.0,0.0,0.0,0.0,0.0,2.3887,2.3428,2.3438,2.3633,2.3857,2.4033,2.3896,2.3789,2.3789,2.3398,2.3135,2.3135,2.3135,2.3135,2.3135,2.3135,2.3135,2.3135,2.3135,2.3135,2.3135,2.3135,2.3135,2.3135,2.3135,2.3369,2.3789,2.3789,2.4014,2.4404,2.416,2.4053,2.4033,2.3779,2.3574,0.0,0.0,0.0,0.0,0.0,2.3135,2.3135,2.3135,2.3135,2.3135,2.356,2.3734,2.3907,2.4744,2.5337,2.5757,2.6246,2.6659,2.708,2.7592,2.7765,2.7846,2.8339,2.851,2.8087,2.667,2.608,2.54,2.3983,2.3396,0.0,2.3135,2.3135,2.3135,2.3135,2.2578,2.209,2.1904,2.0361,1.9155,1.8825,1.7836,1.7008,1.643,1.6039,0.0,0.0,0.0,1.524,1.5613,1.6085,0.0,0.0,0.0,0.0,0.0,0.0,0.0,0.0,2.1798,2.2732,0.0,0.0,0.0,0.0,0.0,0.0,0.0,0.0,0.0,0.0,0.0,0.0,0.0,0.0,0.0,0.0,2.3559,2.3389,2.3789,2.3857,2.4014,2.4443,2.4121,2.3887,2.3926,2.3496,2.3232,2.3281,2.3281,2.3281,2.3281,0.0,0.0,0.0,0.0,2.3281,2.3281,2.3242,2.3213,2.3213,2.3164,2.3369,2.3789,2.3838,2.4092,2.4492,2.4492,2.4492,2.4482,2.4434,2.4199,2.3809,2.333,2.3135,2.3135,2.3135,2.3135,2.3135,2.3222,0.0,0.0,2.4317,2.4669,2.4829,2.5663,2.6505,2.7185,2.7348,2.7926,2.851,2.851,2.851,2.851,2.851,2.851,2.8259,2.7348,2.6494,2.5579,2.4659,2.3734,2.3135,2.3135,2.3135,2.3135,2.3135,2.2783,2.2373,2.2002,2.1491,2.041,1.8646,0.0,0.0,1.6357,1.5863,1.5852,1.633,1.6148,1.6023,1.6023,1.7177,1.7866,1.8112,1.9222,2.0536,2.1872,2.1872,2.2325,2.3105,2.2777,2.3604,0.0,0.0,0.0,0.0,0.0,0.0,0.0,0.0,0.0,0.0,0.0,0.0,0.0,0.0,0.0,2.5362,2.4766,2.4267,2.4271,2.4297,2.4453,2.4893,2.456,2.4434,2.4785,2.4121,2.3799,2.4141,2.417,2.417,2.417,2.417,2.417,2.417,2.417,2.417,2.417,2.3828,2.3662,2.3662,0.0,0.0,2.3799,2.4141,2.4531,2.4941,2.4941,2.4941,2.4912,2.456,2.4365,2.4219,2.3437,2.3135,2.3135,2.3135,2.3135,2.3222,2.3983,2.4241,2.4413,2.5242,2.5568,2.5746,2.667,2.7092,0.0,2.8018,2.8351,2.851,2.851,2.851,2.851,2.851,2.851,2.8259,2.7348,2.6494,2.5579,2.4659,2.3734,2.3135,2.3135,2.3135,2.3135,2.3135,2.2783,2.248,2.2402,2.1408,2.0865,2.1129,1.9755,1.8761,1.8496,1.776,1.7014,1.6448,1.6565,1.6674,1.6674,1.7962,1.8945,1.9749,2.0722,2.1799,2.2872,2.2872,2.296,2.3135,2.3805,2.4692,0.0,0.0,0.0,0.0,0.0,0.0,0.0,0.0,0.0,0.0,0.0,2.7065,2.7151,0.0,2.6163,2.5326,2.5158,2.5144,2.5098,2.5138,2.5205,2.5418,2.501,2.4834,2.5049,2.4482,2.4189,2.4394,2.4414,2.4414,2.4414,2.4414,2.4414,2.4414,2.4414,2.4414,2.4414,2.4209,2.4102,2.4102,2.3887,2.3887,2.4121,2.4541,2.4863,2.5078,2.5303,2.54,2.5371,2.4922,2.4746,2.4678,2.4033,2.3652,2.3467,2.3467,2.333,2.3135,2.3647,2.4069,2.4659,2.5495,2.608,2.667,2.7592,2.7846,2.7926,2.8339,2.851,2.851,2.851,2.851,2.851,2.851,2.8179,2.7592,2.667,2.583,2.4914,2.3983,2.3387,2.3135,2.3135,2.3135,2.3135,2.3135,2.2959,2.2754,2.2539,2.1967,2.1503,2.1294,1.9978,1.9015,1.8688,1.799,1.7296,1.685,1.7004,1.7091,1.7091,1.8157,1.9239,2.0141,2.115,2.2148,2.3135,2.3135,2.3299,2.382,2.4744,2.5411,0.0,0.0,0.0,0.0,0.0,0.0,0.0,0.0,2.7579,2.8366,2.8569,2.8234,2.7262,2.7583,2.7375,2.553,2.5804,2.6129,2.5944,2.5978,2.5931,2.5732,2.5342,2.5098,2.5195,2.4795,2.458,2.4668,2.4678,2.4678,2.4678,2.4678,2.4678,2.4678,2.4678,2.4678,2.4678,2.459,2.4541,2.4541,2.4453,2.4414,2.4434,2.4863,2.5068,2.5088,2.5547,2.5742,2.5713,2.5352,2.5195,2.5166,2.4814,2.4414,2.4023,2.3945,2.3643,2.3262,2.3427,2.4054,2.4914,2.5746,2.667,2.7592,2.8259,2.851,2.851,2.851,2.851,2.851,2.851,2.851,2.8534,2.8643,2.8079,2.7346,2.6501,2.569,2.4726,2.37,2.335,2.3242,2.3154,2.3135,2.3135,2.3135,2.3135,2.3018,2.2676,2.2637,2.2235,2.1203,2.0202,1.9287,1.8425,1.7719,1.7326,1.7326,1.7512,1.7598,1.7598,1.8696,1.9695,2.0503,2.1507,2.2325,2.3135,2.3135,2.356,2.4498,2.5411,2.5913,2.7376,2.7208,2.7043,2.7512,2.7633,2.7639,0.0,0.0,2.8951,2.8827,2.8785,2.8827,2.8941,2.8444,2.7908,2.7683,2.7672,2.7502,2.6595,2.6547,2.6278,2.5771,2.5342,2.5225,2.5625,2.5254,2.5156,2.5557,2.5586,2.5586,2.5586,2.5586,2.5586,2.5586,2.5586,2.5586,2.5586,2.5195,2.5,2.499,2.46,2.4414,2.4434,2.4863,2.5068,2.5088,2.5547,2.5742,2.5732,2.5684,2.5664,2.5664,2.5605,2.5322,2.4873,2.4492,2.4082,2.38,2.4571,2.524,2.583,2.6753,2.7672,2.8351,2.851,2.851,2.851,2.851,2.851,2.851,2.851,2.851,2.8631,2.91,2.9126,2.8905,2.8402,2.762,2.6539,2.5161,2.4226,2.3594,2.3203,2.3135,2.3135,2.3135,2.3135,2.3125,2.3076,2.3066,2.296,2.2824,2.2007,2.0676,1.8907,1.7855,1.7326,1.7326,1.8149,1.8611,1.8611,2.0421,2.1418,2.1516,2.2422,2.296,2.3135,2.3135,2.356,2.4498,2.5411,2.6246,2.8071,2.8017,2.7981,2.851,2.8643,2.8754,2.9154,2.9499,2.9822,2.9996,3.0016,2.9934,2.9526,2.9588,2.9409,0.0,2.8888,2.8963,2.8332,2.7698,2.7146,2.6683,2.5932,2.5527,2.5723,2.5566,2.5537,2.5723,2.5977,2.6113,2.6113,2.6113,2.6113,2.6113,2.5869,2.5742,2.5742,2.5557,2.5459,2.5449,2.5273,2.5049,2.4814,2.5254,2.5459,2.5469,2.5654,2.5742,2.5742,2.5742,2.5742,2.5742,2.5742,2.5625,2.54,2.4961,2.4521,2.4242,2.4585,2.5519,2.6702,2.6768,2.7787,2.8919,2.8607,2.851,2.857,2.8883,2.8967,2.9039,2.9352,2.8988,2.8607,2.8829,2.8089,2.7195,2.7041,2.6283,2.5431,2.4796,2.4216,2.373,2.3545,2.3301,2.3135,2.3135,2.3135,2.3135,2.3135,2.3135,2.2687,2.1507,2.1051,2.0059,1.8056,1.7512,1.7505,1.8149,1.8611,1.9063,1.9604,2.0962,2.1695,2.1695,2.2599,2.3135,2.3135,2.3135,2.381,2.5242,2.5663,2.6577,2.8402,2.8619,2.8823,2.9208,2.952,2.9833,3.0218,3.0422,3.0627,3.1011,3.1096,3.0862,3.0074,3.0411,3.0575,2.957,2.9683,2.9762,2.9272,2.8338,2.7469,2.6884,2.6091,2.5742,2.5742,2.5742,2.5781,2.5908,2.6211,2.6435,2.6553,2.6562,2.6562,2.6562,2.626,2.6094,2.6094,2.5977,2.5918,2.5918,2.5791,2.5566,2.5264,2.5586,2.5742,2.5742,2.5742,2.5742,2.5742,2.5742,2.5742,2.5742,2.5742,2.5742,2.5693,2.5371,2.5159,2.5043,2.5043,2.6208,2.7644,2.7203,2.8222,2.9448,2.9063,2.8943,2.9027,2.9412,2.952,2.9605,2.9989,2.9555,2.9056,2.9195,2.7988,2.6774,2.6641,2.5849,2.5099,2.4712,2.4346,2.4102,2.3984,2.3701,2.3496,2.3496,2.3389,2.3271,2.3154,2.3135,2.2589,2.1141,2.0782,2.0051,1.8603,1.8241,1.8419,1.9155,1.943,1.9877,2.0602,2.1596,2.2059,2.2059,2.2775,2.3135,2.3135,2.3135,2.4059,2.5819,2.5819,2.6741,2.851,2.8883,2.928,2.9292,3.0074,3.0831,3.0855,3.1252,3.1625,3.1637,3.1637,3.148,3.0963,3.0867,3.0867,3.0855,3.0027,2.9294,2.8778,2.7819,2.6809,2.582,2.5742,2.5742,2.5742,2.5742,2.5918,2.6338,2.6387,2.6562,2.6973,2.6992,2.6992,2.6992,2.6982,2.6973,2.6973,2.6572,2.6367,2.6367,2.5937,2.5732,2.5713,2.5732,2.5742,2.5742,2.5742,2.5742,2.5742,2.5742,2.5742,2.5742,2.5742,2.5742,2.5742,2.5723,2.6079,2.6506,2.6506,2.7464,2.8654,2.874,2.9362,3.0062,3.005,3.0037,3.0037,3.0062,3.0062,3.0062,3.0086,3.0086,3.0218,3.0735,3.0027,2.916,2.8723,2.7798,2.674,2.5307,2.5039,2.4893,2.4473,2.4385,2.4375,2.4375,2.4033,2.3613,2.3193,2.3135,2.3047,2.3047,2.2236,2.1606,2.1606,2.0692,2.0141,2.0141,2.1051,2.1606,2.1695,2.2599,2.3047,2.3047,2.3057,2.3135,2.3135,2.3135,2.4059,2.5819,2.5819,2.6741,2.8931,2.916,2.946,3.017,3.0615,3.0963,3.1312,3.1541,3.1661,3.1661,3.1384,3.1084,3.0903,3.0879,3.0999,3.1336,3.1431,3.1357,3.1237,3.0025,2.886,2.8178,2.718,0.0,2.6582,0.0,0.0,2.6357,2.665,2.6992,2.7422,2.7441,2.7441,2.7441,2.7168,2.7012,2.7012,2.6875,2.6807,2.6797,2.6377,2.6172,2.6162,2.5869,2.5742,2.5742,2.5742,2.5742,2.5742,2.5742,2.5742,2.5742,2.5742,2.5742,2.5742,2.5742,2.628,2.6878,2.6245,2.7149,2.8689,2.8277,2.9346,3.0445,2.9394,2.9555,3.0073,2.9699,3.0162,3.0687,3.1048,3.0671,3.0167,3.043,2.9172,2.7929,2.7714,2.6924,2.6051,2.5633,2.5273,2.5019,2.4873,2.4609,2.4414,2.4414,2.4062,2.3633,2.3193,2.3135,2.2872,2.2236,2.1882,2.1418,2.0782,2.0413,2.0503,2.115,2.1516,2.1971,2.2599,2.296,2.3135,2.3135,2.3135,2.3135,2.3135,2.3135,2.4059,2.5819,2.5819,2.6741,2.9208,2.9581,3.0025,3.0699,3.1011,3.1252,3.1589,3.1661,3.1613,3.142,3.1264,3.1048,3.0663,3.0747,3.1048,3.1577,3.1681,3.1663,3.1658,3.043,2.9242,2.8565,2.7623,2.7012,0.0,0.0,0.0,2.6816,2.71,2.7432,2.7861,2.7891,2.7891,2.7891,2.7617,2.7471,2.7471,2.7324,2.7168,2.7012,2.6738,2.6611,2.6602,2.6318,2.6113,2.5967,2.5967,2.5879,2.5742,2.5742,2.5742,2.5742,2.5742,2.5742,2.5742,2.5742,2.61,2.6648,2.637,2.7295,2.8626,2.832,2.9319,3.0449,2.9473,2.9839,3.0625,3.0326,3.0695,3.1141,3.1199,3.0633,3.0079,2.9795,2.8402,2.7189,2.7189,2.637,2.5742,2.5742,2.5508,2.5303,2.5303,2.5078,2.4834,2.4678,2.4424,2.4092,2.3652,2.3467,2.3104,2.2551,2.233,2.1961,2.132,2.123,2.1507,2.2148,2.2236,2.2501,2.3047,2.3135,2.3135,2.3135,2.3135,2.3135,2.3135,2.3474,2.4317,2.5819,2.6163,2.7183,2.9364,3.011,3.0879,3.0903,3.1288,3.1661,3.1661,3.1637,3.148,3.0975,3.1252,3.1264,3.0242,3.0494,3.1048,3.1577,3.096,3.0318,3.0229,2.9413,2.8338,0.0,0.0,0.0,0.0,0.0,0.0,2.7666,0.0,2.7851,2.8271,2.8291,2.8291,2.8291,2.8291,2.8291,2.8291,2.79,2.749,2.708,2.706,2.7051,2.7051,2.7021,2.6797,2.6426,2.6426,2.6182,2.5801,2.5801,2.5801,2.5801,2.5781,2.5771,2.5762,2.5742,2.5742,2.583,2.6829,2.7746,2.8588,2.8588,2.9326,3.017,3.017,3.0824,3.1572,3.156,3.1572,3.1294,3.0351,3.017,2.9886,2.8958,2.7934,2.7189,2.7189,2.637,2.5742,2.5742,2.5742,2.5742,2.5742,2.5742,2.5596,2.5166,2.5098,2.4932,2.4473,2.4072,2.3828,2.3828,2.3447,2.3203,2.3203,2.3203,2.3203,2.3203,2.3203,2.3193,2.3174,2.3193,2.3193,2.3174,2.3193,2.3193,2.3174,2.4044,2.4967,2.5863,2.682,2.7929,3.0254,3.0675,3.0975,3.136,3.1565,3.1661,3.1661,3.136,3.1048,3.0903,3.0675,3.029,2.9629,3.0254,0.0,3.1577,3.2153,0.0,3.1877,3.1285,0.0,2.8717,0.0,2.7969,2.7969,2.7969,0.0,0.0,2.7842,2.7851,2.8271,2.8291,2.8291,2.8291,2.8291,2.8291,2.8291,2.8184,2.8076,2.7959,2.7646,2.75,2.749,2.7168,2.6953,2.6855,2.6855,2.6787,2.6689,2.6689,2.6689,2.666,2.6348,2.6221,2.6182,2.5859,2.5742,2.5732,2.6004,2.6744,2.7558,2.7558,2.8773,3.0068,2.9326,2.9795,3.0453,2.9704,2.9418,2.9418,2.9143,2.905,2.905,2.8773,2.7934,2.7189,2.7189,2.637,2.5742,2.5742,2.5742,2.5742,2.5742,2.5742,2.5703,2.5586,2.5566,2.5283,2.4512,2.4326,2.4258,2.4258,2.416,2.4092,2.4092,2.4092,2.4092,2.4092,2.4092,2.3945,2.3633,2.3926,2.3945,2.3633,2.3935,2.3935,2.3623,2.4206,2.5149,2.645,2.6995,2.8197,3.0651,3.1048,3.1288,3.1589,3.1661,3.1601,3.1372,3.1096,3.0747,3.0278,3.0134,2.9857,2.9088,2.9821,3.0783,0.0,0.0,0.0,3.2157,3.1816,3.0863,0.0,2.8453,0.0,2.8291,2.8291,2.8291,0.0,2.8076,2.8047,2.8281,2.8291,2.8291,2.8291,2.8291,2.8291,2.8291,2.8291,2.8291,2.8291,2.8057,2.7939,2.793,2.7685,2.7471,2.7305,0.0,2.7197,2.7012,2.7012,2.7012,2.6992,2.6758,2.666,2.6611,2.6182,2.6025,2.5996,2.5801,2.61,2.6552,2.6552,2.7568,2.8773,2.8204,2.8773,2.9418,2.8866,2.868,2.8588,2.8121,2.8028,2.7934,2.7484,2.6924,2.6552,2.6552,2.61,2.5742,2.5742,2.5742,2.5742,2.5742,2.5742,2.5742,2.5742,2.5742,2.5557,2.5059,2.4824,2.4697,2.4697,2.4531,2.4414,2.4414,2.4414,2.4414,2.4414,2.4414,2.4307,2.4072,2.4287,2.4307,2.4072,2.4297,2.4307,2.4062,2.5189,2.6067,2.6954,2.8012,2.9234,3.0831,3.1312,3.1661,3.1661,3.1613,3.1432,3.0975,3.0771,3.0398,2.9484,2.9665,2.9677,2.8691,2.9376,3.0434,3.1492,0.0,3.237,3.1884,3.1677,3.0856,2.8804,2.8398,2.8291,2.8291,2.834,2.8379,2.8379,2.8428,2.8418,2.8301,2.8291,2.8291,2.8291,2.8291,2.8291,2.8291,2.8291,2.8291,2.8291,2.8291,2.8291,2.8291,2.8291,2.8096,2.7754,2.7754,2.7529,2.7187,2.7187,2.7187,2.7178,2.7119,2.71,2.7051,2.6631,2.6475,2.6416,2.6035,2.5908,2.5889,2.5771,2.637,2.7189,2.7189,2.784,2.8495,2.8495,2.8402,2.8121,2.72,2.7051,2.6911,2.6005,2.5869,2.5908,2.5908,2.5869,2.582,2.582,2.5781,2.5742,2.5742,2.5742,2.5742,2.5742,2.5742,2.5742,2.5742,2.54,2.5156,2.5156,2.4824,2.459,2.459,2.459,2.459,2.459,2.459,2.457,2.4502,2.456,2.457,2.4502,2.456,2.456,2.4502,2.626,2.7158,2.727,2.9109,3.0262,3.1384,3.1589,3.1661,3.1661,3.1336,3.0987,3.0903,3.0194,0.0,0.0,2.9364,2.9244,2.8631,2.9376,3.0434,3.1492,3.213,3.2557,3.2895,3.2185,3.1062,0.0,2.8804,2.8291,2.8291,2.8603,0.0,0.0,0.0,2.9043,2.833,2.8291,2.8291,2.8291,2.8291,2.8291,2.8291,2.8291,2.8291,2.8291,2.8291,2.8291,2.8291,2.8291,2.8252,2.8184,2.8184,0.0,2.8066,2.8066,2.8066,2.8037,2.7695,2.7559,2.75,2.706,2.6904,2.6894,2.6816,2.6797,2.668,2.5967,2.637,2.7189,2.7189,2.7284,2.7463,2.7463,2.6829,2.6197,2.6014,2.628,2.6458,2.6269,2.6543,2.6797,2.6797,2.6523,2.6279,2.6279,2.5986,2.5742,2.5742,2.5742,2.5742,2.5742,2.5742,2.5742,2.5742,2.5674,2.5625,2.5625,2.5557,2.5508,2.5508,2.5508,2.5508,2.5508,2.5508,2.5342,2.4971,2.5312,2.5332,2.4961,2.5322,2.5322,2.4951,2.5694,2.6232,2.6781,2.8244,2.9398,3.0702,3.1294,3.1661,3.1661,3.1264,3.0807,3.053,0.0,0.0,2.8943,2.8883,2.8811,2.8558,2.9148,3.0025,3.1084,3.133,3.146,3.1903,3.1102,3.0076,2.9187,2.8789,2.8613,0.0,2.9004,2.9258,2.9258,0.0,2.9394,2.8975,2.874,2.8613,2.8613,2.8408,2.8291,2.8291,2.8291,2.8291,2.8291,2.8291,2.8291,2.8291,2.8291,2.8291,2.8291,2.8291,0.0,2.8291,2.8291,2.8291,2.8271,2.8066,2.7988,2.7939,2.751,2.7353,2.7324,2.709,2.7012,2.6943,2.6533,2.6685,2.7051,2.7051,2.7051,2.7001,2.6878,2.6606,2.6357,2.6133,2.6396,2.6709,2.6709,2.6865,2.7012,2.7012,2.6855,2.6709,2.6709,2.6543,2.6328,2.6113,2.6074,2.5996,2.5771,2.5742,2.5742,2.5742,2.5742,2.5742,2.5742,2.5742,2.5742,2.5742,2.5742,2.5742,2.5742,2.5742,2.5644,2.543,2.5625,2.5635,2.542,2.5625,2.5635,2.541,2.6078,2.6907,2.7697,2.894,2.9977,3.0299,3.1104,3.1661,3.1661,3.118,3.0603,3.0182,2.9593,0.0,2.8595,2.851,2.851,2.851,2.8847,2.9508,3.0687,3.0673,3.0709,3.1053,3.052,2.9787,0.0,2.8986,0.0,2.9062,2.9453,0.0,2.9707,0.0,0.0,2.958,2.915,2.8916,2.8916,2.8506,2.8291,2.8291,2.8291,2.8291,2.8291,2.8291,2.8291,2.8291,2.8291,2.8291,2.8291,2.8291,0.0,0.0,2.8291,2.8291,2.8291,2.8291,2.8291,2.8252,2.792,2.7803,2.7754,2.7412,2.7285,2.7285,2.7285,2.7168,2.7012,2.7012,2.7012,2.6943,2.6621,2.6758,2.6943,2.6611,2.6836,2.7178,2.7266,2.7285,2.7285,2.7285,2.7217,2.7158,2.7158,2.708,2.6914,2.6582,2.6523,2.6377,2.5947,2.5879,2.584,2.5752,2.5742,2.5742,2.5742,2.5742,2.5742,2.5742,2.5742,2.5742,2.5742,2.5742,2.5742,2.5742,2.5742,2.5742,2.5742,2.5742,2.5742,2.5742,2.6456,2.7284,2.8121,2.905,3.0079,3.1404,3.1661,3.1661,3.1661,3.0903,3.0146,3.0098,0.0,2.857,2.8522,2.851,2.851,2.851,2.8546,2.9088,3.0627,3.1312,3.175,3.2236,3.2402,3.203,3.0594,0.0,0.0,2.9541,2.9893,0.0,0.0,0.0,0.0,2.9609,2.915,2.8916,2.8916,2.8506,2.8291,2.8291,2.8291,2.8291,2.8291,2.8291,2.8291,2.8291,2.8291,2.8291,2.8291,2.8291,0.0,0.0,2.8291,2.8291,2.8291,2.8291,2.8291,2.8291,2.8252,2.8232,2.8232,2.8193,2.8174,2.8174,2.8174,2.7646,2.7012,2.7012,2.7012,2.7012,2.6973,2.6982,2.7002,2.6973,2.7285,2.7705,2.8086,2.8174,2.8174,2.8174,2.7871,2.7607,2.7607,2.7285,2.7002,2.6963,2.6953,2.6816,2.6396,2.6328,2.6182,2.5791,2.5742,2.5742,2.5742,2.5742,2.5742,2.5742,2.5742,2.5742,2.5742,2.5742,2.5742,2.5742,2.5742,2.5742,2.5742,2.5742,2.5742,2.5742,2.583,2.5927,2.6014,2.702,2.8028,2.9584,3.0589,3.1661,3.1661,3.0867,3.0086,3.0086,2.9268,2.851,2.851,2.851,2.851,2.851,2.851,2.8931,3.0194,3.0126,3.0171,3.1329,3.1327,3.0912,3.016,3.0574,0.0,0.0,0.0,3.0615,0.0,0.0,0.0,3.0381,2.9697,2.9307,2.9307,2.8652,2.8291,2.8291,2.8291,2.8291,2.8291,2.8291,2.8291,2.8291,2.8291,2.8291,2.8291,2.8291,0.0,0.0,2.8291,2.8291,2.8291,2.8291,2.8291,2.8291,2.8291,2.8291,2.8291,2.8291,2.8291,2.8291,2.8291,2.8066,2.7783,2.7783,2.7783,2.7734,2.748,2.7588,2.7725,2.7471,2.7725,2.8086,2.8252,2.8291,2.8291,2.8291,2.8164,2.8047,2.8047,2.79,2.7705,2.7451,2.7402,2.7256,2.6826,2.6768,2.6611,2.6182,2.6133,2.6025,2.5762,2.5742,2.5742,2.5742,2.5742,2.5742,2.5742,2.5742,2.5742,2.5742,2.5742,2.5742,2.5742,2.5742,2.5742,2.5742,2.5742,2.6004,2.6648,2.701,2.8017,2.8567,2.96,3.0913,3.1193,3.0411,2.9725,3.0001,2.9268,2.851,2.851,2.851,2.851,2.851,2.8643,2.9039,2.9941,2.9804,2.9862,3.088,3.1076,3.0917,3.0161,0.0,3.1065,0.0,3.0615,3.0889,0.0,0.0,0.0,3.0889,3.0166,2.9697,2.957,2.8857,2.8418,2.8291,2.8291,2.8291,2.8291,2.8291,2.8291,2.8291,2.8291,2.8291,2.8291,2.8291,0.0,0.0,2.8291,2.8291,2.8291,2.8291,2.8291,2.8291,2.8291,2.8291,2.8291,2.8291,2.8291,2.8291,2.8291,2.8291,2.8291,2.8291,2.8291,2.8232,2.7939,2.8066,2.8223,2.793,2.8066,2.8291,2.8291,2.8291,2.8291,2.8291,2.8291,2.8291,2.8291,2.8291,2.8203,2.79,2.7851,2.7705,2.7275,2.7207,2.7051,2.6631,2.6572,2.6406,2.5977,2.5937,2.5879,2.5752,2.5742,2.5742,2.5742,2.5742,2.5742,2.5742,2.5742,2.5742,2.5742,2.5742,2.5742,2.5742,2.5742,2.61,2.6733,2.7094,2.8384,2.9286,2.9048,2.8958,2.9988,2.9412,2.8849,2.9905,2.9268,2.851,2.851,2.851,2.851,2.851,2.8931,2.946,3.0001,3.0963,3.1651,3.1642,3.2784,3.2886,0.0,0.0,3.1411,3.0309,3.0615,0.0,0.0,0.0,0.0,3.0889,3.0449,3.0,2.958,2.9141,2.8711,2.8301,2.8291,2.8291,2.8291,2.8291,2.8291,2.8291,2.8291,2.8291,2.8291,0.0,0.0,0.0,2.8291,2.8291,2.8291,2.8291,2.8291,2.8291,2.8291,2.8291,2.8291,2.8291,2.8291,2.8291,2.8291,2.8291,2.8291,2.8291,2.8291,2.8291,2.8281,2.8291,2.8291,2.8281,2.8291,2.8291,2.8291,2.8291,2.8291,2.8291,2.8291,2.8291,2.8291,2.8291,2.8291,2.8281,2.8281,2.8144,2.7725,2.7656,2.75,2.706,2.7012,2.6846,2.6426,2.6387,2.6201,2.5771,2.5742,2.5742,2.5742,2.5742,2.5742,2.5742,2.5742,2.5742,2.5742,2.5742,2.5742,2.5742,2.5742,2.5742,2.5732,2.6733,2.8567,2.8538,2.9028,2.9769,3.004,2.9616,2.9201,2.9462,2.9015,2.851,2.851,2.8799,2.9051,2.9051,2.9484,3.0254,3.1529,3.2022,3.2508,3.3161,0.0,0.0,3.1771,3.1379,3.1116,0.0,0.0,0.0,0.0,0.0,0.0,3.0889,3.0752,3.0459,3.001,2.959,2.9297,2.917,2.8867,2.8721,2.8721,2.8428,2.8291,2.8291,2.8291,2.8291,0.0,0.0,0.0,0.0,2.8291,2.8291,2.8291,2.8291,2.8291,2.8291,2.8291,2.8291,2.8291,2.8291,2.8291,2.8291,2.8291,2.8291,2.8291,2.8291,2.8291,2.8291,2.8291,2.8291,2.8291,2.8291,2.8291,2.8291,2.8291,2.8291,2.8291,2.8291,2.8291,2.8291,2.8291,2.8291,2.8291,2.8291,2.8291,2.8252,2.8115,2.8096,2.7939,2.7519,2.7461,2.7187,2.6465,2.6387,2.6211,2.5771,2.5742,2.5742,2.5742,2.5742,2.5742,2.5742,2.5742,2.5742,2.5742,2.5742,2.5742,2.5742,2.6035,2.6705,2.7669,2.8708,3.005,2.8136,2.8468,2.9021,2.9459,2.9165,2.8858,2.921,2.9039,2.8751,2.8546,2.9088,2.9532,2.934,2.9893,3.0783,3.1985,3.2527,3.2966,0.0,0.0,0.0,3.1891,0.0,0.0,0.0,0.0,0.0,0.0,0.0,0.0,3.0889,3.0889,3.0762,3.0469,3.0029,2.9726,2.957,2.9297,2.9082,2.8916,2.8652,2.8447,2.8291,2.8291,2.8291,0.0,0.0,0.0,0.0,2.8291,2.8291,2.8291,2.8291,2.8291,2.8291,2.8291,2.8291,2.8291,2.8291,2.8291,2.8291,2.8291,2.8291,2.8291,2.8291,2.8291,2.8291,2.8291,2.8291,2.8291,2.8291,2.8291,2.8291,2.8291,2.8291,2.8291,2.8291,2.8291,2.8291,2.8291,2.8291,2.8291,2.8291,2.8291,2.8291,2.8291,2.8291,2.8193,2.7939,2.791,2.7578,2.6719,2.6631,2.6377,2.5791,2.5742,2.5742,2.5742,2.5742,2.5742,2.5742,2.5742,2.5742,2.5742,2.5742,2.582,2.5986,2.6416,2.7532,2.9162,3.0024,3.1199,0.0,2.7502,2.7414,2.8379,2.8207,2.8124,2.9116,2.9304,0.0,2.8715,2.9436,3.0013,2.9556,3.0266,3.1144,3.1793,3.2743,0.0,0.0,3.3424,0.0,0.0,3.0678,0.0,3.0244,0.0,0.0,0.0,0.0,0.0,3.0889,3.0889,3.0889,3.0889,3.0478,3.0059,2.9668,2.9629,2.9404,2.9014,2.8945,2.8711,2.834,2.8301,2.8291,0.0,0.0,0.0,0.0,2.8291,2.8291,2.8291,2.8291,2.8291,2.8291,2.8291,2.8291,2.8291,2.8291,2.8291,2.8291,2.8291,2.8291,2.8291,2.8291,2.8291,2.8291,2.8291,2.8291,2.8291,2.8291,2.8291,2.8291,2.8291,2.8291,2.8291,2.8291,2.8291,2.8291,2.8291,2.8291,2.8291,2.8291,2.8291,2.8291,2.8291,2.8291,2.8291,2.8291,2.8291,2.7959,2.7109,2.7012,2.667,2.581,2.5742,2.5742,2.5742,2.5742,2.5742,2.5742,2.5742,2.5742,2.5742,2.5762,2.5996,2.6435,2.6855,2.8157,3.0242,3.069,3.2097,2.8402,0.0,2.8198,2.8454,2.8452,2.8464,0.0,2.9304,2.9376,2.9665,3.0242,3.0771,3.106,3.1312,3.2046,3.3801,0.0,3.4421,3.4302,0.0,0.0,3.153,3.0976,3.0732,0.0,0.0,0.0,0.0,0.0,3.0889,3.0889,3.0889,3.0889,3.0889,3.0781,3.0674,3.0586,3.0225,2.999,2.9893,2.9228,2.8867,2.876,2.8437,2.8291,0.0,0.0,0.0,2.8291,2.8291,2.8291,2.8291,2.8291,2.8291,2.8291,2.8291,2.8291,2.8291,2.8291,2.8291,2.8291,2.8291,2.8291,2.8291,2.8291,2.8291,2.8291,2.8291,2.8291,2.8291,2.8291,2.8291,2.8291,2.8291,2.8291,2.8291,2.8291,2.8291,2.8291,2.8291,2.8291,2.8291,2.8291,2.8291,2.8291,2.8291,2.8291,2.8291,2.8291,2.8291,2.7959,2.7109,2.7012,2.667,2.581,2.5742,2.5742,2.5742,2.5742,2.5742,2.5742,2.5742,2.5742,2.5742,2.6064,2.6445,2.6865,2.7305,2.8777,3.1236,3.1356,3.2619,2.851,2.8871,2.9232,2.9232,2.9232,2.9364,2.9893,2.9833,2.9737,3.0025,3.0699,3.1324,3.1613,3.1484,3.2073,0.0,3.4106,0.0,0.0,0.0,3.2261,3.2079,3.1366,3.0889,0.0,0.0,0.0,0.0,0.0,3.0889,3.0889,3.0889,3.0889,3.0889,3.0889,3.0889,3.0889,3.0644,3.041,3.0185,2.9531,2.9111,2.8906,2.8486,2.8291,0.0,0.0,0.0,2.8291,2.8291,2.8291,2.8291,2.8291,2.8291,2.8291,2.8291,2.8291,2.8291,2.8291,2.8291,2.8291,2.8291,2.8291,2.8291,2.8291,2.8291,2.8291,2.8291,2.8291,2.8291,2.8291,2.8291,2.8291,2.8291,2.8291,2.8291,2.8291,2.8291,2.8291,2.8291,2.8291,2.8291,2.8291,2.8291,2.8291,2.8291,2.8291,2.8291,2.8291,2.8291,2.8037,2.7383,2.7314,2.6973,2.6113,2.6035,2.6035,2.6035,2.585,2.583,2.6025,2.584,2.583,2.6035,2.6455,2.6885,2.7314,2.7744,2.8995,3.0856,3.137,3.2488,2.8703,2.9438,3.0085,3.0025,3.0086,3.0326,3.0771,3.053,3.023,3.0314,3.1108,3.1841,3.1818,3.1551,0.0,0.0,0.0,0.0,3.4026,3.3098,3.2405,3.2549,3.1546,0.0,0.0,0.0,0.0,0.0,0.0,3.0889,3.0889,3.0889,3.0889,3.0889,3.0889,3.0889,3.0889,3.0889,3.0693,3.0293,2.9805,2.9375,2.9004,2.8516,2.8291,2.8291,0.0,0.0,2.8291,2.8291,2.8291,2.8291,2.8291,2.8291,2.8291,2.8291,2.8291,2.8291,2.8291,2.8291,2.8291,2.8291,2.8291,2.8291,2.8291,2.8291,2.8291,2.8291,2.8291,2.8291,2.8291,2.8291,2.8291,2.8291,2.8291,2.8291,2.8291,2.8291,2.8291,2.8291,2.8291,2.8291,2.8291,2.8291,2.8291,2.8291,2.8291,2.8291,2.8291,2.8291,2.8135,2.7715,2.7666,2.7344,2.6553,2.6426,2.6416,2.6484,2.6016,2.5908,2.6279,2.5937,2.5947,2.6387,2.6797,2.7226,2.7666,2.8086,2.8804,2.9922,3.0856,3.1982,2.9605,2.9891,2.9897,2.9487,3.0098,3.0771,3.0855,3.0819,3.0879,3.1336,3.1925,3.2361,3.226,3.2959,3.3717,0.0,0.0,3.3407,0.0,0.0,3.0912,3.1555,0.0,0.0,0.0,0.0,0.0,0.0,0.0,3.0889,3.0889,3.0889,3.0889,3.0889,3.0889,3.0889,3.0889,3.0889,3.0859,3.0771,2.9961,2.9531,2.9443,2.8652,2.8291,2.8291,0.0,2.8291,2.8291,2.8291,2.8291,2.8291,2.8291,2.8291,2.8291,2.8291,2.8291,2.8291,2.8291,2.8291,2.8291,2.8291,2.8291,2.8291,2.8291,2.8291,2.8291,2.8291,2.8291,2.8291,2.8291,2.8291,2.8291,2.8291,2.8291,2.8291,2.8291,2.8291,2.8291,2.8291,2.8291,2.8291,2.8291,2.8291,2.8291,2.8291,2.8291,2.8291,2.8291,2.8291,2.8135,2.7715,2.7666,2.7461,2.6963,2.6592,2.6543,2.6894,2.6172,2.5762,2.583,2.5771,2.5947,2.6387,2.6797,2.7226,2.7666,2.8086,2.8804,2.9922,3.013,3.1257,2.91,2.9855,3.0326,2.9425,2.9788,3.0629,3.1472,3.1293,3.1149,3.234,3.2743,3.2864,3.2782,0.0,3.2521,3.2274,0.0,3.372,3.2675,3.1789,0.0,0.0,0.0,0.0,0.0,0.0,0.0,0.0,0.0,0.0,3.0889,3.0889,3.0889,3.0889,3.0889,3.0889,3.0889,3.0644,3.0644,3.0879,3.0,2.957,2.9541,2.8682,2.8291,2.8291,0.0,2.8291,2.8291,2.8291,2.8291,2.8291,2.8291,2.8291,2.8291,2.8291,2.8291,2.8291,2.8291,2.8291,2.8291,2.8291,2.8291,2.8291,2.8291,2.8291,2.8291,2.8291,2.8291,2.8291,2.8291,2.8291,2.8291,2.8291,2.8291,2.8291,2.8291,2.8291,2.8291,2.8291,2.8291,2.8291,2.8291,2.8291,2.8291,2.8291,2.8291,2.8291,2.8291,2.8291,2.8223,2.8027,2.7998,2.7832,2.7402,2.7187,2.6963,2.6689,2.6309,2.6191,2.6416,2.6211,2.6406,2.707,2.7266,2.7578,2.8008,2.8193,2.8601,2.9006,2.9618,3.0742,2.8811,2.9678,3.0383,2.9711,3.0086,3.0919,3.2111,3.1861,3.1798,3.3313,3.3645,3.3541,0.0,3.253,0.0,3.1126,3.2682,3.338,0.0,0.0,0.0,0.0,0.0,0.0,0.0,0.0,0.0,0.0,0.0,0.0,3.0889,3.0889,3.0889,3.0889,3.0889,3.0889,3.0889,3.043,3.0371,3.0723,2.9834,2.9414,2.9394,2.8633,2.8291,2.8291,2.8291,2.8291,2.8291,2.8291,2.8291,2.8291,2.8291,2.8291,2.8291,2.8291,2.8291,2.8291,2.8291,2.8291,2.8291,2.8291,2.8291,2.8291,2.8291,2.8291,2.8291,2.8291,2.8291,2.8291,2.8291,2.8291,2.8291,2.8291,2.8291,2.8291,2.8291,2.8291,2.8291,2.8291,2.8291,2.8291,2.8291,2.8291,2.8291,2.8291,2.8291,2.8291,2.8291,2.8291,2.8291,2.8291,2.8291,2.8125,2.7695,2.7666,2.7393,2.6728,2.6592,2.668,2.7002,2.6709,2.6894,2.7646,2.7666,2.7871,2.8291,2.8291,2.8291,2.8291,2.9408,3.0535,2.9701,2.9691,2.9541,3.0503,3.1505,3.2331,3.243,3.2734,3.3419,3.4511,0.0,0.0,0.0,3.3576,3.3454,3.3344,3.3029,3.2292,0.0,0.0,0.0,0.0,0.0,0.0,0.0,0.0,0.0,0.0,0.0,0.0,3.0869,3.0889,3.0889,3.0889,3.0889,3.0889,3.0889,3.043,3.0215,3.0234,2.9375,2.8965,2.8955,2.8496,2.8291,2.8291,2.8291,2.8291,2.8291,2.8291,2.8291,2.8291,2.8291,2.8291,2.8291,2.8291,2.8291,2.8291,2.8291,2.8291,2.8291,2.8291,2.8291,2.8291,2.8291,2.8291,2.8291,2.8291,2.8291,2.8291,2.8291,2.8291,2.8291,2.8291,2.8291,2.8291,2.8291,2.8291,2.8291,2.8291,2.8291,2.8291,2.8291,2.8291,2.8291,2.8291,2.8291,2.8291,2.8291,2.8291,2.8291,2.8291,2.8291,2.8125,2.7695,2.7666,2.7637,2.7578,2.7197,2.6982,2.7012,2.6982,2.7187,2.7656,2.7666,2.7871,2.8291,2.8291,2.8291,2.8291,2.9408,3.0535,2.8991,2.994,3.0631,2.9963,3.1609,3.335,3.2961,3.3082,3.3734,3.5481,3.5809,0.0,0.0,0.0,3.2159,3.2454,3.1554,3.0555,2.9947,0.0,0.0,0.0,0.0,0.0,0.0,0.0,0.0,0.0,0.0,0.0,3.0059,3.0068,3.0068,3.0068,3.0068,3.0068,3.0068,2.9629,2.9404,2.9404,2.9072,2.8916,2.8906,2.8486,2.8291,2.8291,2.8291,2.8291,2.8291,2.8291,2.8291,2.8291,2.8291,2.8291,2.8291,2.8291,2.8291,2.8291,2.8291,2.8291,2.8291,2.8291,2.8291,2.8291,2.8291,2.8291,2.8291,2.8291,2.8291,2.8291,2.8291,2.8291,2.8291,2.8291,2.8291,2.8291,2.8291,2.8291,2.8291,2.8291,2.8291,2.8291,2.8291,2.8291,2.8291,2.8291,2.8291,2.8291,2.8291,2.8291,2.8291,2.8291,2.8291,2.8232,2.8066,2.8057,2.8057,2.8057,2.7402,2.7256,2.7793,2.7559,2.7617,2.8047,2.8057,2.8135,2.8291,2.8291,2.8291,2.8291,2.9408,3.0535,2.8763,3.0062,3.1221,3.0454,3.2026,3.3875,3.4164,3.407,3.4445,3.6321,3.6519,3.6033,3.4693,0.0,0.0,0.0,3.0429,2.9521,2.9385,0.0,0.0,0.0,0.0,0.0,0.0,0.0,0.0,0.0,0.0,0.0,0.0,2.957,2.957,2.957,2.957,2.957,2.957,2.9141,2.8916,2.8916,2.8779,2.8721,2.8711,2.8428,2.8291,2.8291,2.8291,2.8291,2.8291,2.8291,2.8291,2.8291,2.8291,2.8291,2.8291,2.8291,2.8291,2.8291,2.8291,2.8291,2.8291,2.8291,2.8291,2.8291,2.8291,2.8291,2.8291,2.8291,2.8291,2.8291,2.8291,2.8291,2.8291,2.8291,2.8291,2.8291,2.8291,2.8291,2.8291,2.8291,2.8291,2.8291,2.8291,2.8291,2.8291,2.8291,2.8291,2.8291,2.8291,2.8291,2.8291,2.8291,2.8291,2.8291,2.8291,2.8291,2.8291,2.8291,2.7744,2.7685,2.8271,2.8018,2.7998,2.8281,2.8291,2.8291,2.8291,2.8291,2.8291,2.8291,2.9408,3.0338,2.9304,3.0074,3.1144,3.2226,3.2899,3.3849,3.5918,3.599,3.5918,3.6976,3.6771,3.5926,3.4356,3.3001,0.0,0.0,0.0,0.0,2.8975,2.8916,0.0,0.0,0.0,0.0,0.0,0.0,0.0,0.0,0.0,0.0,0.0,2.956,2.956,2.956,2.956,2.956,2.956,2.9131,2.8916,2.8906,2.8496,2.8291,2.8291,2.8291,2.8291,2.8291,2.8291,2.8291,2.8291,2.8291,2.8291,2.8291,2.8291,2.8291,2.8291,2.8291,2.8291,2.8291,2.8291,2.8291,2.8291,2.8291,2.8291,2.8291,2.8291,2.8291,2.8291,2.8291,2.8291,2.8291,2.8291,2.8291,2.8291,2.8291,2.8291,2.8291,2.8291,2.8291,2.8291,2.8291,2.8291,2.8291,2.8291,2.8291,2.8291,2.8291,2.8291,2.8291,2.8291,2.8291,2.8291,2.8291,2.8291,2.8291,2.8291,2.8291,2.8291,2.8291,2.8291,2.8291,2.8291,2.8291,2.8291,2.8291,2.8291,2.8291,2.8291,2.8291,2.8291,2.8291,2.9408,2.9922,2.94,3.0338,3.1504,3.1829,0.0,0.0,3.4763,3.5485,3.6362,0.0,3.6771,3.6141,3.5301,0.0,0.0,0.0,0.0,0.0,0.0,2.9192,2.8437,0.0,0.0,0.0,0.0,0.0,0.0,0.0,0.0,0.0,0.0,2.8672,2.8672,2.8672,2.8672,2.8672,2.8672,2.8545,2.8476,2.8476,2.835,2.8291,2.8291,2.8291,2.8291,2.8291,2.8291,2.8291,2.8291,2.8291,2.8291,2.8291,2.8291,2.8291,2.8291,2.8291,2.8291,2.8291,2.8291,2.8291,2.8291,2.8291,2.8291,2.8291,2.8291,2.8291,2.8291,2.8291,2.8291,2.8291,2.8291,2.8291,2.8291,2.8291,2.8291,2.8291,2.8291,2.8291,2.8291,2.8291,2.8291,2.8291,2.8291,2.8291,2.8291,2.8291,2.8291,2.8291,2.8291,2.8291,2.8291,2.8291,2.8291,2.8291,2.8291,2.8291,2.8291,2.8291,2.8291,2.8291,2.8291,2.8291,2.8291,2.8291,2.8291,2.8291,2.8291,2.8291,2.8291,2.8291,2.9408,2.9922,3.0482,3.1264,3.2142,3.2767,3.4126,3.5244,3.5028,0.0,0.0,0.0,3.6459,3.5889,3.5053,3.3958,0.0,0.0,0.0,0.0,0.0,0.0,2.8291,0.0,0.0,0.0,0.0,0.0,0.0,0.0,0.0,0.0,0.0,2.8291,2.8291,2.8291,2.8291,2.8291,2.8291,2.8291,2.8291,2.8291,2.8291,2.8291,2.8291,2.8291,2.8291,2.8291,2.8291,2.8291,2.8291,2.8291,2.8291,2.8291,2.8291,2.8291,2.8291,2.8291,2.8291,2.8291,2.8291,2.8291,2.8291,2.8291,2.8291,2.8291,2.8291,2.8291,2.8291,2.8291,2.8291,2.8291,2.8291,2.8291,2.8291,2.8291,2.8291,2.8291,2.8291,2.8291,2.8291,2.8291,2.8291,2.8291,2.8291,2.8291,2.8291,2.8291,2.8291,2.8291,2.8291,2.8291,2.8291,2.8291,2.8291,2.8291,2.8291,2.8291,2.8291,2.8291,2.8291,2.8291,2.8291,2.8291,2.8291,2.8291,2.8291,2.8291,2.8291,2.8291,2.8291,2.8291,2.9006,2.9207,3.1961,3.243,3.2863,3.4378,3.4787,0.0,3.6098,3.5918,3.5701,3.623,0.0,3.5294,3.4307,3.3712,3.3001,0.0,0.0,0.0,0.0,0.0,2.8291,0.0,0.0,0.0,0.0,0.0,0.0,0.0,0.0,0.0,0.0,2.8291,2.8291,2.8291,2.8291,2.8291,2.8291,2.8291,2.8291,2.8291,2.8291,2.8291,2.8291,2.8291,2.8291,2.8291,2.8291,2.8291,2.8291,2.8291,2.8291,2.8291,2.8291,2.8291,2.8291,2.8291,2.8291,2.8291,2.8291,2.8291,2.8291,2.8291,2.8291,2.8291,2.8291,2.8291,2.8291,2.8291,2.8291,2.8291,2.8291,2.8291,2.8291,2.8291,2.8291,2.8291,2.8291,2.8291,2.8291,2.8291,2.8291,2.8291,2.8291,2.8291,2.8291,2.8291,2.8291,2.8291,2.8291,2.8291,2.8291,2.8291,2.8291,2.8291,2.8291,2.8291,2.8291,2.8291,2.8291,2.8291,2.8291,2.8291,2.8291,2.8291,2.8291,2.8291,2.8291,2.8291,2.8291,2.8291,2.8291,2.8291,3.124,3.1853,3.2779,3.3921,3.4523,3.4992,3.5641,3.5376,3.5148,3.5677,3.5701,3.5385,3.4769,3.4492,3.4421,0.0,0.0,0.0,0.0,0.0,0.0,0.0,0.0,0.0,0.0,0.0,0.0,0.0,0.0,0.0,2.8291,2.8291,2.8291,2.8291,2.8291,2.8291,2.8291,2.8291,2.8291,0.0,2.8291,2.8291,2.8291,2.8291,2.8291,2.8291,2.8291,2.8291,2.8291,2.8291,2.8291,2.8291,2.8291,2.8291,2.8291,2.8291,2.8291,2.8291,2.8291,2.8291,2.8291,2.8291,2.8291,2.8291,2.8291,2.8291,2.8291,2.8291,2.8291,2.8291,2.8291,2.8291,2.8291,2.8291,2.8291,2.8291,2.8291,2.8291,2.8291,2.8291,2.8291,2.8291,2.8291,2.8291,2.8291,2.8291,2.8291,2.8291,2.8291,2.8291,2.8291,2.8291,2.8291,2.8291,2.8291,2.8291,2.8291,2.8291,2.8291,2.8291,2.8291,2.8291,2.8291,2.8291,2.8291,2.8291,2.8291,2.8291,2.8291,2.8291,2.8291,2.8291,3.1829,3.2442,3.3128,3.4162,0.0,3.4895,3.5172,3.5028,3.4907,3.5184,3.5244,3.5148,3.4871,3.4823,3.4628,3.4115,0.0,0.0,0.0,0.0,0.0,0.0,0.0,0.0,0.0,0.0,0.0,0.0,0.0,2.8291,2.8291,2.8291,2.8291,2.8291,2.8291,2.8291,2.8291,2.8291,2.8291,2.8291,2.8291,2.8291,2.8291,2.8291,2.8291,2.8291,2.8291,2.8291,2.8291,2.8291,2.8291,2.8291,2.8291,2.8291,2.8291,2.8291,2.8291,2.8291,2.8291,2.8291,2.8291,2.8291,2.8291,2.8291,2.8291,2.8291,2.8291,2.8291,2.8291,2.8291,2.8291,2.8291,2.8291,2.8291,2.8291,2.8291,2.8291,2.8291,2.8291,2.8291,2.8291,2.8291,2.8291,2.8291,2.8291,2.8291,2.8291,2.8291,2.8291,2.8291,2.8291,2.8291,2.8291,2.8291,2.8291,2.8291,2.8291,2.8291,2.8291,2.8291,2.8291,2.8291,2.8291,2.8291,2.8291,2.8291,2.8291,2.8291,2.8291,2.8291,2.8291,2.8291,3.225,3.3008,3.3537,3.4571,3.4823,0.0,3.4823,3.4823,3.4823,3.4823,3.4823,3.4823,3.4823,3.4823,3.4421,3.34,3.2286,0.0,0.0,0.0,0.0,0.0,0.0,0.0,0.0,0.0,0.0,0.0,0.0,2.8291,2.8291,2.8291,2.8291,2.8291,2.8291,2.8291,2.8291,2.8291,2.8291,2.8291,2.8291,2.8291,2.8291,2.8291,2.8291,2.8291,2.8291,2.8291,2.8291,2.8291,2.8291,2.8291,2.8291,2.8291,2.8291,2.8291,2.8291,2.8291,2.8291,2.8291,2.8291,2.8291,2.8291,2.8291,2.8291,2.8291,2.8291,2.8291,2.8291,2.8291,2.8291,2.8291,2.8291,2.8291,2.8291,2.8291,2.8291,2.8291,2.8291,2.8291,2.8291,2.8291,2.8291,2.8291,2.8291,2.8291,2.8291,2.8291,2.8291,2.8291,2.8291,2.8291,2.8291,2.8291,2.8291,2.8291,2.8291,2.8291,2.8291,2.8291,2.8291,2.8291,2.8291,2.8291,2.8291,2.8291,2.8291,2.8291,2.8291,2.8291,2.8291,2.8291,3.0434,3.1877,3.3537,3.4571,3.4823,3.4823,0.0,0.0,3.4823,0.0,3.4823,3.4823,3.4823,3.4823,3.4421,3.34,3.2286,3.1165,3.0026,0.0,0.0,0.0,0.0,0.0,0.0,0.0,0.0,0.0,2.8291,2.8291,2.8291,2.8291,2.8291,2.8291,2.8291,2.8291,2.8291,2.8291,2.8291,2.8291,2.8291,2.8291,2.8291,2.8291,2.8291,2.8291,2.8291,2.8291,2.8291,2.8291,2.8291,2.8291,2.8291,2.8291,2.8291,2.8291,2.8291,2.8291,2.8291,2.8291,2.8291,2.8291,2.8291,2.8291,2.8291,2.8291,2.8291,2.8291,2.8291,2.8291,2.8291,2.8291,2.8291,2.8291,2.8291,2.8291,2.8291,2.8291,2.8291,2.8291,2.8291,2.8291,2.8291,2.8291,2.8291,2.8291,2.8291,2.8291,2.8291,2.8291,2.8291,2.8291,2.8291,2.8291,2.8291,2.8291,2.8291,2.8291,2.8291,2.8291,2.8291,2.8291,2.8291,2.8291,2.8291,2.8291,2.8291,2.8291,2.8291,2.8291,2.8291,2.8291,3.112,3.2346,3.3537,3.4571,3.4823,3.4823,3.4823,3.4823,3.4823,3.4823,3.4823,3.4823,3.4823,3.4323,3.3603,3.2745,3.1761,3.0621,2.9474,2.8957,2.8555,2.832,0.0,0.0,0.0,0.0,0.0,0.0,2.8291,2.8291,2.8291,2.8291,2.8291,2.8291,2.8291,2.8291,2.8291,2.8291,2.8291,2.8291,2.8291,2.8291,2.8291,2.8291,2.8291,2.8291,2.8291,2.8291,2.8291,2.8291,2.8291,2.8291,2.8291,2.8291,2.8291,2.8291,2.8291,2.8291,2.8291,2.8291,2.8291,2.8291,2.8291,2.8291,2.8291,2.8291,2.8291,2.8291,2.8291,2.8291,2.8291,2.8291,2.8291,2.8291,2.8291,2.8291,2.8291,2.8291,2.8291,2.8291,2.8291,2.8291,2.8291,2.8291,2.8291,2.8291,2.8291,2.8291,2.8291,2.8291,2.8291,2.8291,2.8291,2.8291,2.8291,2.8291,2.8291,2.8291,2.8291,2.8291,2.8291,2.8291,2.8291,2.8291,2.8291,2.8291,2.8291,2.8291,2.8291,2.8291,2.8291,2.8291,3.1372,3.2274,3.2959,3.4138,3.4535,3.4667,0.0,0.0,3.4823,0.0,3.4823,3.4823,3.4823,3.4023,3.2994,3.201,3.1232,3.036,2.9192,2.9082,2.8975,2.8652,2.8613,2.8574,0.0,0.0,0.0,0.0,2.8291,2.8291,2.8291,2.8291,2.8291,2.8291,2.8291,2.8291,2.8291,2.8291,2.8291,2.8291,2.8291,2.8291,2.8291,2.8291,2.8291,2.8291,2.8291,2.8291,2.8291,2.8291,2.8291,2.8291,2.8291,2.8291,2.8291,2.8291,2.8291,2.8291,2.8291,2.8291,2.8291,2.8291,2.8291,2.8291,2.8291,2.8291,2.8291,2.8291,2.8291,2.8291,2.8291,2.8291,2.8291,2.8291,2.8291,2.8291,2.8291,2.8291,2.8291,2.8291,2.8291,2.8291,2.8291,2.8291,2.8291,2.8291,2.8291,2.8291,2.8291,2.8291,2.8291,2.8291,2.8291,2.8291,2.8291,2.8291,2.8291,2.8291,2.8291,2.8291,2.8184,2.8291,2.8291,2.8184,2.8291,2.8291,2.8291,2.8291,2.8291,2.8291,2.8184,2.8232,2.9917,3.0603,3.1384,3.2971,3.3729,3.421,0.0,0.0,3.4823,3.4823,3.4823,3.4823,3.4823,3.4193,3.3081,3.1021,3.0967,3.0819,2.9754,2.9531,2.9531,2.9502,2.9502,2.9346,2.8926,2.8887,0.0,0.0,2.8291,2.8291,2.8291,2.8291,2.8291,2.8291,2.8291,2.8291,2.8291,2.8291,2.8291,2.8291,2.8291,2.8291,2.8291,2.8291,2.8291,2.8291,2.8291,2.8291,2.8291,2.8291,2.8291,2.8291,2.8291,2.8291,2.8291,2.8291,2.8291,2.8291,2.8291,2.8291,2.8291,2.8291,2.8291,2.8291,2.8291,2.8291,2.8291,2.8291,2.8291,2.8291,2.8291,2.8291,2.8291,2.8291,2.8291,2.8291,2.8291,2.8291,2.8291,2.8291,2.8291,2.8291,2.8291,2.8291,2.8291,2.8291,2.8291,2.8291,2.8291,2.8291,2.8291,2.8291,2.8291,2.8291,2.8291,2.8291,2.8291,2.8291,2.8291,2.8184,2.796,2.8184,2.8184,2.796,2.8184,2.8291,2.8291,2.8291,2.8291,2.8291,2.8067,2.7864,2.9797,3.023,3.0759,3.2382,3.3176,3.3693,3.421,3.4583,3.4823,3.4823,3.4823,3.4421,3.3001,3.2779,3.2581,3.2169,3.1203,3.0403,3.0084,2.9971,2.9873,2.96,2.957,2.9512,2.9355,2.9336,2.9277,2.9121,0.0,2.9111,2.9111,2.9111,2.9111,2.9111,2.8838,2.8564,2.8291,2.8291,2.8291,2.8291,2.8291,2.8291,2.8291,2.8291,2.8291,2.8291,2.8291,2.8291,2.8291,2.8291,2.8291,2.8291,2.8291,2.8291,2.8291,2.8291,2.8291,2.8291,2.8291,2.8291,2.8291,2.8291,2.8291,2.8291,2.8291,2.8291,2.8291,2.8291,2.8291,2.8291,2.8291,2.8291,2.8291,2.8291,2.8291,2.8291,2.8067,2.8184,2.8291,2.8291,2.8291,2.8291,2.8291,2.8291,2.8291,2.8291,2.8174,2.8077,2.8291,2.8184,2.8077,2.8291,2.8184,2.8067,2.8291,2.797,2.7862,2.8067,2.7862,2.7647,2.753,2.7647,2.7647,2.753,2.7389,2.7593,2.8067,2.8067,2.7825,2.7362,2.7246,2.7017,2.9364,2.9689,3.0206,3.1817,3.2491,3.302,3.4066,3.4438,3.4619,3.4787,3.4519,3.3819,3.2387,3.1853,3.1699,3.1748,3.1035,3.043,3.043,3.0293,3.0156,3.0029,2.9873,2.9785,2.9785,2.9785,2.9726,2.958,2.957,0.0,2.957,2.957,2.957,2.957,2.9141,2.8779,2.8506,2.8359,2.8291,2.8291,2.8291,2.8291,2.8291,2.8291,2.8291,2.8291,2.8291,2.8291,2.8291,2.8291,2.8291,2.8291,2.8291,2.8291,2.8291,2.8291,2.8291,2.8291,2.8291,2.8291,2.8291,2.8291,2.8291,2.8291,2.8291,2.8291,2.8291,2.8291,2.8291,2.8291,2.8291,2.8291,2.8291,2.8184,2.8184,2.8077,2.7745,2.797,2.8184,2.8184,2.8077,2.8077,2.8184,2.8077,2.797,2.797,2.7853,2.7745,2.797,2.7862,2.7745,2.797,2.7862,2.7853,2.797,2.7647,2.7539,2.7745,2.7539,2.7323,2.7323,2.7314,2.7257,2.7116,2.6852,2.6882,2.7227,2.7324,2.7075,2.6608,2.6512,2.6352,0.0,0.0,0.0,0.0,0.0,0.0,3.4258,0.0,3.415,3.4594,3.3895,3.3178,3.3089,3.175,3.034,2.9695,3.0283,3.085,3.085,3.0459,3.0342,3.0801,3.0449,3.0185,3.0195,3.0195,3.0029,2.9639,2.9609,2.9609,2.9609,2.9609,2.96,2.957,2.917,2.8945,2.8916,2.8525,2.833,2.833,2.833,2.833,2.833,2.833,2.833,2.833,2.831,2.831,2.831,2.8301,2.8291,2.8291,2.8291,2.8291,2.8291,2.8291,2.8291,2.8291,2.8291,2.8291,2.8291,2.8291,2.8291,2.8291,2.8291,2.8291,2.8291,2.8291,2.8291,2.8291,2.8291,2.8291,2.8184,2.796,2.7853,2.7745,2.7422,2.7638,2.7853,2.7853,2.7638,2.753,2.7853,2.7638,2.7431,2.7431,2.7431,2.7431,2.7431,2.7431,2.7431,2.7431,2.7431,2.7431,2.7431,2.7431,2.7431,2.7431,2.7431,2.7206,2.6989,2.7196,2.7009,2.6402,2.6586,2.6379,2.5778,2.6078,2.6163,2.6153,2.5853,2.5759,2.851,0.0,0.0,0.0,0.0,0.0,0.0,0.0,3.2978,3.3071,3.2857,3.2259,3.0987,3.0716,3.0227,2.9292,2.957,2.9941,2.9941,2.9824,2.9795,2.9922,2.9824,2.9863,3.0166,3.0195,3.0293,0.0,3.0527,3.0527,3.0527,3.0527,3.0234,2.959,2.9746,2.9551,2.8926,2.9121,2.9219,2.9219,2.9219,2.9219,2.9219,2.9219,2.9219,2.9199,2.8887,2.875,2.8721,2.8418,2.8291,2.8291,2.8291,2.8291,2.8291,2.8291,2.8291,2.8291,2.8291,2.8291,2.8291,2.8291,2.8291,2.8291,2.8291,2.8291,2.8291,2.8291,2.8291,2.8291,2.8291,2.8184,2.796,2.796,2.7745,2.7422,2.7206,2.7206,2.7314,2.7539,2.7638,2.7745,2.753,2.7422,2.7431,2.7431,2.7206,2.7206,2.7431,2.7206,2.7206,2.7431,2.7215,2.7215,2.7431,2.7008,2.6899,2.7098,2.6899,2.68,2.6691,2.6504,2.6291,2.6065,2.5607,2.5265,2.5052,2.5647,2.5629,2.5136,2.4831,2.4592,2.851,2.8667,0.0,0.0,0.0,0.0,3.1525,3.1746,3.1821,0.0,3.1506,3.1034,3.0078,2.9727,2.9387,2.876,2.9014,2.9365,2.9541,2.9414,2.9365,2.9551,2.9414,2.9463,2.9893,2.9932,3.0049,3.0322,3.0342,3.0342,3.0342,3.0508,3.0371,2.9853,3.0068,2.9961,2.9463,2.9531,2.957,2.957,2.957,2.957,2.956,2.9385,2.9297,2.9277,2.8848,2.8662,2.8643,2.8398,2.8291,2.8291,2.8291,2.8291,2.8291,2.8291,2.8291,2.8291,2.8291,2.8291,2.8291,2.8291,2.8291,2.8291,2.8291,2.8291,2.8291,2.8291,2.8184,2.8067,2.797,2.7862,2.7638,2.753,2.7422,2.7215,2.689,2.689,2.7098,2.7206,2.7323,2.7323,2.7215,2.7107,2.7116,2.7116,2.6899,2.6899,2.7008,2.6899,2.6899,2.7008,2.6899,2.6899,2.7008,2.68,2.6617,2.6532,2.6424,2.6252,2.6087,2.5839,2.5637,2.5472,2.5014,2.4693,2.4519,2.4951,2.4951,2.451,2.4271,2.4152,2.8522,2.8895,2.9508,0.0,3.035,0.0,3.1275,3.1089,3.0682,0.0,3.0306,2.9942,2.9787,2.9171,2.8512,2.8463,2.879,2.9162,2.9443,2.916,2.9062,2.9453,2.9111,2.9023,2.9453,2.9502,2.9512,2.957,2.957,2.957,2.957,2.9922,3.0127,3.0127,3.0176,3.0195,3.0195,2.9883,2.9687,2.9639,2.9639,2.9619,2.956,2.917,2.8994,2.8965,2.8545,2.8359,2.8359,2.831,2.8291,2.8291,2.8291,2.8291,2.8291,2.8291,2.8291,2.8291,2.8291,2.8291,2.8291,2.8291,2.8291,2.8291,2.8291,2.8291,2.8291,2.8291,2.8067,2.7745,2.7431,2.7431,2.7323,2.7098,2.6989,2.689,2.6691,2.6791,2.6989,2.6989,2.6791,2.6691,2.689,2.6791,2.6591,2.6591,2.6591,2.6591,2.6591,2.6591,2.6573,2.6527,2.6518,2.6499,2.6454,2.6454,2.6289,2.5913,2.5894,2.5738,2.539,2.5326,2.5142,2.4785,2.4739,2.4528,2.4152,2.4152,2.4152,2.4152,2.4152,2.4152,2.8631,2.8895,2.9244,2.9027,0.0,0.0,2.9809,3.0059,3.0095,0.0,2.9734,2.9831,2.9386,2.9888,3.0173,2.97,3.0047,3.0012,2.9143,2.8975,2.8945,2.9033,2.8672,2.8584,2.9004,2.9043,2.9189,2.9541,2.957,2.957,2.957,2.9648,2.9687,2.9687,3.0019,3.0195,3.0195,3.0488,3.0449,3.0078,3.0078,2.9893,2.957,2.9482,2.9443,2.9414,2.8984,2.8799,2.8769,2.8428,2.8291,2.8291,2.8291,2.8291,2.8291,2.8291,2.8291,2.8291,2.8291,2.8291,2.8291,2.8291,2.8291,2.8291,2.8291,2.8291,2.8291,2.8067,2.7755,2.7431,2.7431,2.7206,2.7098,2.6989,2.689,2.6691,2.6591,2.6691,2.6691,2.6691,2.6791,2.689,2.6691,2.6582,2.6591,2.6591,2.6591,2.6591,2.6591,2.6591,2.6463,2.6114,2.6078,2.5949,2.5637,2.561,2.5573,2.5491,2.5482,2.5454,2.5372,2.5069,2.4858,2.4785,2.4445,2.4235,2.4152,2.4152,2.4152,2.4152,2.4152,2.4152,2.8655,2.8895,2.9304,2.9304,0.0,0.0,0.0,2.995,2.9915,2.9329,2.9446,2.9504,2.9295,2.9246,2.9271,2.9162,2.9332,2.924,2.8711,2.8975,2.916,2.8945,2.873,2.8603,2.8603,2.8603,2.8691,2.8916,2.8935,2.8935,2.8935,2.9336,2.957,2.957,3.0205,3.0547,3.0547,3.0547,3.043,3.0195,2.999,2.9775,2.956,2.9346,2.9365,2.9531,2.8887,2.8721,2.8887,2.8467,2.8291,2.8291,2.8291,2.8291,2.8291,2.8291,2.8291,2.8291,2.8291,2.8291,2.8291,2.8291,2.8291,2.8291,2.8291,2.8184,2.796,2.753,2.7314,2.7206,2.7008,2.6899,2.6791,2.6791,2.6691,2.6591,2.6591,2.6591,2.6591,2.6591,2.6516,2.6476,2.627,2.6444,2.6518,2.6307,2.627,2.627,2.627,2.6105,2.5903,2.5683,2.5665,2.5582,2.539,2.5372,2.5289,2.5087,2.5078,2.4986,2.4776,2.4574,2.4464,2.4464,2.4262,2.4152,2.4152,2.4152,2.4152,2.4152,2.4152,2.4152,0.0,0.0,0.0,0.0,0.0,3.0228,0.0,0.0,0.0,2.9572,2.946,0.0,0.0,0.0,0.0,0.0,0.0,0.0,0.0,2.8888,0.0,2.8838,2.8799,2.8662,2.833,2.8223,2.8203,2.8281,2.8223,2.8203,2.8291,2.8945,2.9365,2.9443,3.0215,3.0674,3.0752,3.0381,3.0156,3.0068,2.9648,2.9404,2.9316,2.8955,2.8984,2.9287,2.8594,2.8486,2.8769,2.8437,2.8291,2.8291,2.8291,2.8291,2.8291,2.8291,2.8291,2.8291,2.8291,2.8291,2.8291,2.8291,2.8291,2.8184,2.8184,2.796,2.7618,2.7004,2.6933,2.6871,2.659,2.6463,2.6463,2.6463,2.6408,2.638,2.6454,2.6463,2.649,2.6573,2.6252,2.5958,2.5958,2.6178,2.6243,2.5894,2.5848,2.5848,2.5848,2.5564,2.5344,2.5262,2.5262,2.5225,2.5142,2.5133,2.4996,2.4684,2.4656,2.451,2.417,2.4152,2.4152,2.4152,2.4152,2.4152,2.4152,2.4152,2.4152,2.4152,2.4152,2.4053,0.0,0.0,0.0,0.0,2.9749,0.0,0.0,0.0,3.0097,2.9986,0.0,0.0,0.0,0.0,0.0,0.0,0.0,0.0,2.844,2.8511,2.8418,2.8369,2.8359,2.834,2.8301,2.7959,2.7891,2.8262,2.7949,2.79,2.8271,2.8389,2.8603,2.8984,2.9463,2.9902,3.0273,3.0225,3.001,2.9639,2.9199,2.8799,2.8437,2.8389,2.8389,2.8428,2.833,2.832,2.8359,2.831,2.8291,2.8291,2.8291,2.8291,2.8291,2.8291,2.8291,2.8291,2.8291,2.8291,2.8291,2.8291,2.8184,2.796,2.796,2.753,2.7023,2.6561,2.6513,2.6608,2.6133,2.6032,2.6032,2.6032,2.5766,2.5601,2.5958,2.6032,2.6142,2.6518,2.6252,2.5958,2.5958,2.5711,2.5491,2.5445,2.5436,2.5436,2.5436,2.5399,2.5234,2.4886,2.4849,2.4702,2.4326,2.429,2.4271,2.4225,2.4225,2.4207,2.4152,2.4152,2.4152,2.4152,2.4152,2.4053,2.3854,2.3854,2.3854,2.3854,2.3854,2.3755,0.0,0.0,0.0,0.0,0.0,0.0,3.0242,0.0,3.017,0.0,0.0,0.0,0.0,0.0,0.0,0.0,2.7565,0.0,0.0,0.0,2.7646,0.0,0.0,0.0,2.793,2.7773,2.7842,2.8262,2.791,2.7851,2.8271,2.8525,2.874,2.8916,2.9346,2.9658,2.9834,2.958,2.9365,2.9189,2.876,2.8467,2.8291,2.8291,2.8428,2.8643,2.8398,2.8428,2.8643,2.8398,2.8291,2.8291,2.8291,2.8291,2.8291,2.8291,2.8291,2.8291,2.8291,2.8291,2.8291,2.8077,2.7796,2.7497,2.7178,2.6689,2.6262,2.5875,2.5853,2.5839,2.5665,2.5619,2.5619,2.5619,2.5491,2.5417,2.5582,2.5619,2.5665,2.5848,2.5555,2.5271,2.5271,2.5326,2.5289,2.5069,2.5032,2.5032,2.5032,2.4812,2.4601,2.4436,2.4418,2.4345,2.417,2.4152,2.4152,2.4152,2.4152,2.4152,2.4152,2.4053,2.3954,2.3954,2.3854,2.3646,2.3555,2.292,2.2509,2.2417,2.3238,2.3555,2.8655,0.0,0.0,0.0,0.0,0.0,0.0,0.0,0.0,0.0,0.0,0.0,0.0,0.0,0.0,0.0,0.0,2.6074,0.0,2.6475,0.0,0.0,0.0,0.0,0.0,2.7627,2.7715,2.8252,2.7793,2.7725,2.8262,2.8584,2.875,2.875,2.916,2.9394,2.9394,2.9082,2.8916,2.8916,2.8496,2.8291,2.8291,2.8291,2.8457,2.873,2.8428,2.8398,2.8564,2.8369,2.8223,2.8135,2.8252,2.8291,2.8291,2.8291,2.8291,2.8291,2.8291,2.8291,2.8165,2.7825,2.7478,2.6998,2.6368,2.602,2.5665,2.5347,2.5289,2.5344,2.5234,2.5216,2.5216,2.5216,2.5124,2.5069,2.5188,2.5216,2.5243,2.5353,2.5051,2.4785,2.4785,2.4922,2.4941,2.4656,2.4611,2.4611,2.4611,2.4345,2.4152,2.4152,2.4152,2.4152,2.4152,2.4152,2.4053,2.4053,2.4053,2.4053,2.4053,2.3845,2.3646,2.3646,2.3238,2.2929,2.2828,2.1692,2.0971,2.0775,2.1802,2.2316,0.0,0.0,0.0,2.8667,0.0,0.0,0.0,0.0,3.0242,0.0,0.0,0.0,0.0,0.0,0.0,0.0,0.0,0.0,0.0,0.0,0.0,0.0,0.0,0.0,0.0,2.7519,2.7383,0.0,2.7519,2.7402,2.8242,2.8301,2.831,2.831,2.8721,2.8945,2.8945,2.8926,2.8916,2.8916,2.8496,2.8291,2.8291,2.8291,2.8301,2.831,2.8301,2.8066,2.7734,2.8135,2.8057,2.7725,2.8135,2.8291,2.8291,2.8291,2.8291,2.8291,2.8291,2.8174,2.7892,2.7497,2.6931,2.6318,2.5927,2.5589,2.5289,2.4904,2.5078,2.5289,2.4904,2.4803,2.4803,2.4803,2.4491,2.4308,2.4711,2.4803,2.4913,2.5298,2.5051,2.4785,2.4785,2.4455,2.4189,2.417,2.417,2.417,2.417,2.4161,2.4152,2.4152,2.4152,2.4152,2.4152,2.3954,2.3845,2.3845,2.3845,2.3845,2.3845,2.3546,2.3447,2.3447,2.2308,2.1591,2.1387,2.0246,1.9531,1.9228,1.9531,1.9531,0.0,0.0,2.9172,2.8643,0.0,0.0,0.0,0.0,0.0,0.0,0.0,0.0,0.0,0.0,0.0,0.0,0.0,0.0,0.0,0.0,0.0,0.0,0.0,0.0,0.0,0.0,0.0,0.0,2.7344,0.0,2.8242,2.8291,2.8291,2.8291,2.8428,2.8506,2.8506,2.8506,2.8506,2.8496,2.8076,2.8027,2.8271,2.7705,2.7607,2.7861,2.7568,2.7363,2.7246,2.7383,2.7363,2.7246,2.7393,2.7627,2.791,2.8193,2.8291,2.8291,2.8067,2.7777,2.742,2.6854,2.6229,2.5554,2.5219,2.4886,2.4537,2.4409,2.4464,2.4537,2.44,2.4363,2.4363,2.4363,2.4262,2.4189,2.4335,2.4363,2.4409,2.4537,2.4464,2.4363,2.4363,2.4244,2.4152,2.4152,2.4152,2.4152,2.4152,2.4152,2.4152,2.4152,2.4053,2.4053,2.4152,2.3954,2.3755,2.3555,2.282,2.2409,2.2409,2.2106,2.1692,2.0869,2.1081,2.0775,1.9952,1.8819,1.8199,1.8094,1.7252,1.7772,2.851,2.8763,0.0,2.8595,2.8763,0.0,2.9015,0.0,0.0,0.0,0.0,0.0,0.0,0.0,0.0,2.5117,0.0,0.0,0.0,2.4893,0.0,0.0,0.0,0.0,0.0,0.0,2.71,2.7832,2.7344,0.0,0.0,2.8291,2.8291,2.8291,2.8291,2.8291,2.8291,2.8291,2.8291,2.8291,2.7861,2.7812,2.8047,2.7334,2.7168,2.7412,2.7139,2.6934,2.6807,2.6953,2.6934,2.6807,2.6953,2.7187,2.7471,2.7734,2.7842,2.7842,2.7516,2.7227,2.6977,2.621,2.5582,2.5116,2.4693,2.4372,2.4152,2.4152,2.4152,2.4152,2.4152,2.4152,2.4152,2.4152,2.4152,2.4152,2.4152,2.4152,2.4152,2.4152,2.4152,2.4152,2.4152,2.4152,2.4152,2.4152,2.4152,2.4152,2.4152,2.4152,2.4152,2.4152,2.3954,2.3746,2.3746,2.3338,2.2929,2.2627,2.1582,2.0963,2.0963,2.0664,2.0254,1.9428,1.9642,1.9339,1.861,1.747,1.6849,1.6849,1.5791,1.6205]}]]